GFSCGP_sfc_30mbdewp_000.txt.gz
Dewpoint
50 46 42 42 37 33 30 27 25 25 26 27 27 27 27 27 24 25 29 31 34 36 38 40 41 43 44 45 44 43 43 45 52 58 58 58 58 59 59 58 57 56 55 54
47 42 44 43 39 30 30 27 24 26 28 26 25 24 26 21 25 29 31 33 35 36 37 39 40 41 42 42 44 44 43 45 50 55 57 58 58 59 59 60 59 59 58 57
42 43 45 39 35 32 29 27 25 27 29 28 27 26 21 25 29 32 33 34 35 37 37 39 40 42 42 41 40 41 43 46 47 53 56 57 58 58 57 58 58 59 60 60
42 39 41 39 32 28 27 28 27 28 26 23 27 21 20 25 29 31 32 33 34 36 38 40 41 41 41 41 41 41 41 41 42 46 48 49 50 50 52 54 55 54 56 57
39 36 37 32 31 29 27 30 28 26 25 24 24 23 22 25 27 30 31 32 33 36 39 40 40 41 42 42 42 41 41 41 41 40 41 41 41 46 47 47 45 46 48 50
33 33 33 30 30 30 31 27 27 27 25 22 23 23 21 24 25 29 32 32 33 36 39 40 41 41 41 41 41 41 41 41 41 41 41 40 40 40 41 41 42 43 44 46
33 26 23 28 25 24 26 26 24 23 23 21 23 23 23 24 28 29 32 32 32 36 38 39 39 40 40 40 40 40 41 41 41 41 41 42 42 42 42 42 42 42 42 42
29 24 22 21 26 25 25 26 24 22 22 22 21 19 20 24 28 31 33 33 33 36 37 38 39 40 40 40 40 40 40 41 41 42 42 42 43 43 43 43 43 43 42 43
25 25 26 25 22 25 23 24 28 26 26 24 24 25 23 30 31 32 33 33 33 35 37 38 39 39 39 39 39 39 41 42 42 42 43 43 43 42 42 42 42 42 42 41
29 24 28 25 25 23 25 26 24 25 22 19 20 21 22 27 30 32 33 33 33 34 37 38 39 39 39 39 40 41 42 42 42 42 42 42 42 41 40 40 39 39 39 39
33 28 29 27 26 26 24 21 20 24 23 20 18 20 24 24 30 32 33 34 34 34 37 38 38 39 39 41 42 41 40 38 37 39 39 39 40 39 39 37 37 36 36 36
38 32 27 29 30 29 27 25 22 20 20 22 20 19 24 26 27 30 32 34 35 35 37 38 38 40 41 41 40 39 37 35 35 36 36 36 38 35 33 32 31 32 32 32
37 34 30 30 31 33 30 28 25 26 26 24 21 20 26 30 25 30 32 35 34 37 38 35 37 41 41 40 38 36 34 32 33 34 32 33 31 28 27 27 27 28 28 29
35 31 29 27 28 31 29 31 28 25 23 21 23 22 25 27 28 31 32 34 35 38 34 33 39 41 39 37 35 32 30 28 30 29 28 29 25 25 25 25 24 24 25 25
31 26 27 27 26 26 28 29 31 29 27 22 22 23 24 26 26 28 29 33 37 34 32 35 41 39 37 34 31 28 26 25 25 23 25 22 21 21 21 21 20 21 21 21
31 26 23 19 20 21 18 20 20 23 27 28 27 22 25 27 29 34 35 35 35 32 32 40 40 36 34 32 28 26 24 23 22 21 18 16 14 14 15 16 16 17 17 17
26 21 17 11 24 23 19 24 23 20 20 18 18 20 25 27 32 34 35 35 33 31 38 39 36 35 32 27 25 24 22 20 15 17 11 10 11 11 12 12 13 14 13 15
25 24 23 19 23 17 25 29 28 24 26 26 25 28 31 34 33 33 34 35 31 35 38 36 34 31 28 24 23 20 17 12 8 10 9 10 10 10 11 11 11 11 11 12
28 26 24 24 24 26 28 28 28 28 30 31 32 32 33 33 32 32 35 35 36 38 36 34 31 29 25 21 17 12 8 6 6 8 9 10 11 11 11 11 11 11 11 11
28 28 25 26 24 20 26 30 31 29 25 34 35 34 35 34 31 32 37 37 37 36 33 31 29 24 20 14 8 5 5 5 5 8 9 11 12 12 11 11 11 12 12 12
25 25 25 27 26 27 30 31 32 26 23 35 34 33 33 34 35 36 38 36 35 33 31 27 25 20 14 7 6 5 6 5 7 9 11 12 12 12 12 12 13 14 14 14
26 26 25 27 26 22 33 32 30 31 34 33 32 32 32 34 36 37 36 35 34 31 27 23 19 13 8 8 7 6 6 7 9 10 12 12 13 13 13 14 15 15 15 14
28 31 30 29 27 32 33 32 33 34 33 33 33 33 32 35 35 36 35 35 34 28 21 16 14 11 8 8 9 7 8 9 10 12 12 13 13 13 13 15 15 15 15 14
31 33 31 31 32 34 33 33 34 34 34 34 34 33 33 32 33 35 34 34 31 23 16 13 9 7 7 9 9 9 10 11 12 12 13 13 13 14 14 14 15 15 15 15
32 34 33 33 34 33 34 34 34 34 34 34 34 33 33 32 33 35 35 35 27 18 15 10 8 8 9 10 9 10 11 12 12 13 13 13 14 14 15 15 15 15 16 18
36 33 31 31 34 33 33 34 35 35 34 34 33 32 33 34 34 36 34 25 19 13 10 8 9 10 9 10 10 11 12 13 13 13 13 14 15 15 15 15 15 17 19 20

GFSCGP_sfc_30mbdewp_003.txt.gz
Dewpoint
50 45 41 42 42 40 33 29 26 26 27 25 26 27 27 28 26 24 29 32 34 36 38 40 41 41 41 42 44 45 46 48 52 57 57 57 57 58 59 59 57 56 55 55
46 42 43 44 39 35 31 29 28 28 29 26 26 26 27 25 24 26 30 33 35 36 37 39 41 41 40 40 41 41 43 47 51 55 57 57 58 58 59 59 59 59 59 59
40 42 46 43 42 37 33 30 32 30 28 28 27 26 27 23 27 30 32 34 36 37 37 39 39 40 40 40 40 41 41 41 46 53 56 56 55 55 52 53 53 52 54 56
43 42 45 42 39 40 39 31 30 28 27 25 27 23 23 23 27 30 32 34 35 37 39 39 40 40 41 41 41 41 41 41 41 42 43 45 45 44 47 48 46 45 47 47
40 41 42 43 40 35 38 29 28 27 26 24 24 23 24 23 26 29 31 31 34 37 38 39 40 40 41 41 41 41 41 41 41 41 41 41 41 42 42 42 42 42 42 44
36 41 43 40 39 32 30 28 27 27 25 23 24 23 22 22 24 28 30 31 34 37 38 39 40 40 39 40 40 41 40 40 41 41 41 41 41 41 41 41 41 41 41 42
30 34 34 31 29 29 28 26 25 24 24 23 24 23 23 24 24 27 30 30 34 37 38 38 39 39 39 39 39 40 41 41 41 41 41 41 41 41 40 39 39 39 39 39
30 31 27 24 26 26 27 27 25 20 21 21 23 21 21 27 27 28 31 30 33 36 38 38 39 39 38 38 39 40 40 40 41 41 41 40 39 39 38 38 38 38 38 38
27 28 25 23 23 27 23 25 28 26 27 25 23 24 24 29 29 30 30 31 32 35 37 38 38 38 37 39 40 40 39 39 39 39 39 39 37 37 36 36 36 36 35 34
28 23 27 24 24 22 25 26 25 25 24 22 21 21 22 25 28 30 30 30 32 35 37 38 38 37 39 40 40 38 37 36 36 36 37 37 35 34 34 33 31 31 32 32
29 25 28 25 25 24 21 22 22 25 24 20 19 19 23 24 29 30 31 31 32 34 37 38 38 38 40 40 38 36 34 33 33 34 33 32 30 29 27 25 26 26 27 27
36 29 25 26 30 28 26 23 21 21 20 21 19 19 24 25 30 32 32 33 34 34 36 37 38 39 39 38 35 32 31 30 31 30 30 27 24 22 21 22 22 21 21 22
36 31 28 30 31 32 28 27 23 25 25 22 19 19 25 27 28 29 31 33 34 35 37 37 39 39 38 36 33 29 27 27 27 26 25 21 18 18 19 19 19 18 19 19
35 32 27 24 28 30 29 28 26 25 23 22 22 21 24 25 26 30 32 34 34 36 35 36 40 39 37 33 29 26 24 23 22 22 18 14 14 15 15 16 16 16 17 16
29 28 27 27 27 30 30 29 27 24 24 22 22 23 23 25 26 26 28 31 35 36 33 37 40 38 35 31 27 24 22 21 19 18 12 12 13 12 12 13 13 14 14 13
29 27 23 21 21 20 21 24 30 29 29 26 27 25 24 27 30 33 34 33 35 35 32 38 39 35 32 28 25 23 21 17 13 13 9 11 11 11 11 12 12 12 12 12
24 23 20 19 22 22 16 19 20 19 20 21 18 18 26 30 33 33 35 34 35 33 34 39 36 33 30 25 23 21 17 10 7 10 9 10 11 11 11 12 11 11 11 12
22 20 19 14 22 11 22 29 27 24 27 23 31 31 32 33 33 32 33 35 34 32 37 36 33 30 25 23 19 15 9 6 6 8 9 10 11 11 12 12 11 12 12 12
26 24 22 20 21 24 28 28 27 28 31 33 32 33 33 32 31 32 34 35 34 36 36 34 30 27 22 18 13 7 5 6 6 8 9 10 11 12 12 11 12 12 12 13
28 27 25 26 23 19 26 30 31 28 28 35 34 34 34 34 30 32 36 37 36 35 32 30 27 23 19 11 6 5 6 5 6 8 10 11 12 12 12 12 12 13 14 14
24 25 25 27 25 26 29 31 31 25 23 34 32 32 31 31 33 35 37 36 35 33 31 27 25 19 12 7 7 6 5 5 8 10 11 12 13 13 12 13 13 14 15 14
25 25 25 27 26 24 32 32 30 31 34 32 32 32 31 32 34 36 37 35 34 30 28 24 19 12 7 8 7 6 4 8 10 11 12 13 13 13 13 14 15 16 15 15
28 29 28 28 27 33 33 32 33 33 32 33 33 33 32 33 35 36 36 35 33 29 22 18 15 10 6 8 8 5 7 10 11 12 12 12 13 13 14 15 15 15 15 14
30 32 31 31 33 33 33 34 34 34 34 34 34 33 33 32 32 34 35 34 31 24 20 14 9 5 6 9 8 8 10 11 12 11 12 13 13 14 15 15 15 15 14 15
31 34 32 32 34 34 33 34 34 34 34 34 34 34 33 32 32 34 34 35 30 21 15 10 7 7 7 9 9 10 11 11 11 12 13 13 13 14 15 15 15 15 16 18
35 33 31 29 33 32 33 34 35 34 34 35 34 34 33 34 33 35 35 33 24 19 11 8 7 8 8 9 10 10 11 12 12 12 12 13 15 16 16 15 14 16 18 19

GFSCGP_sfc_30mbdewp_006.txt.gz
Dewpoint
48 45 42 42 42 39 37 31 33 30 28 27 26 26 26 28 28 26 27 33 35 37 39 40 40 40 40 41 41 43 46 50 54 56 56 56 56 58 58 59 59 58 57 57
46 41 43 43 42 41 35 31 30 30 29 27 27 27 27 28 26 25 28 33 35 37 38 39 40 40 40 40 40 41 42 45 52 56 57 57 57 58 55 53 51 52 53 53
40 43 43 42 39 39 35 35 35 33 30 29 27 26 26 25 26 29 32 34 36 36 37 39 39 40 40 40 40 40 40 41 42 46 50 50 50 48 46 46 44 45 45 43
43 45 43 41 41 40 39 36 34 31 30 25 27 24 25 24 25 29 32 35 36 38 39 40 40 40 40 40 41 41 41 41 41 42 42 42 42 41 43 43 42 41 43 42
41 43 44 42 40 42 40 36 35 32 27 25 25 23 24 23 24 28 31 34 36 38 39 39 39 40 40 41 40 41 41 41 42 41 42 41 41 41 41 40 39 40 40 41
39 43 44 44 43 40 37 33 28 27 25 24 25 24 22 23 23 27 31 32 35 38 39 39 40 39 39 40 41 41 41 41 41 41 41 40 39 38 37 37 37 38 38 39
34 41 39 42 38 32 34 33 29 24 24 23 24 23 23 24 24 26 30 31 35 38 39 39 38 38 39 39 40 41 41 40 41 39 38 38 38 37 36 36 35 34 34 34
33 32 34 30 38 36 34 32 25 21 22 22 24 22 21 26 30 28 31 31 35 37 38 39 38 38 39 40 40 39 39 38 39 38 36 35 34 34 33 32 32 32 32 33
34 32 26 26 28 38 28 29 28 26 26 25 26 23 25 28 28 29 30 31 35 37 38 38 38 38 39 40 39 37 36 36 36 36 34 31 29 28 27 28 29 27 28 26
29 25 27 23 23 23 27 28 26 26 23 22 23 21 23 23 26 30 30 30 34 36 37 38 37 39 40 39 37 35 34 34 33 33 30 27 25 24 24 23 21 21 23 23
27 25 27 24 24 25 24 24 25 26 25 21 19 19 23 23 25 29 30 31 34 36 37 38 37 40 39 37 34 32 31 30 29 30 26 21 18 19 19 19 20 19 19 20
31 27 24 25 30 27 24 23 24 24 22 22 20 22 24 26 26 31 31 32 33 35 37 38 38 39 37 34 31 29 28 27 26 26 20 16 16 16 14 15 17 17 16 17
33 29 28 29 30 32 27 24 23 24 23 21 20 20 25 26 30 32 32 33 33 34 37 37 39 38 36 32 28 25 24 23 23 19 14 12 12 12 12 13 14 14 14 15
35 31 26 27 27 29 28 27 24 24 23 22 21 22 23 25 28 30 31 33 34 35 36 38 39 38 34 29 26 24 22 20 19 13 10 10 10 11 11 13 13 13 14 14
31 28 28 26 29 30 28 27 26 24 24 24 24 23 23 25 26 27 29 31 34 36 35 39 39 36 31 27 25 23 20 14 14 9 9 10 11 12 12 12 13 13 13 13
30 27 24 21 22 23 26 29 27 26 25 24 25 24 26 29 30 33 34 34 34 36 34 39 39 35 31 26 24 21 17 8 9 9 9 10 11 12 12 13 12 12 12 12
25 24 23 22 22 20 19 21 29 28 27 27 25 25 26 31 32 32 33 34 34 35 33 38 37 33 28 24 23 18 10 7 7 8 8 10 11 12 12 12 12 12 12 13
23 22 19 16 22 16 19 29 23 25 24 24 26 30 31 33 33 32 32 34 35 34 36 38 34 29 25 23 18 12 7 6 6 6 8 10 11 12 12 12 12 12 12 13
25 23 21 16 16 21 28 28 27 25 29 32 32 32 32 32 32 32 35 35 34 34 37 35 31 26 22 17 10 5 5 5 5 7 9 10 12 12 12 12 12 12 13 13
28 27 21 25 17 12 24 30 30 31 27 34 33 34 34 33 29 31 35 36 36 36 34 30 27 23 16 9 6 4 4 4 5 8 10 11 12 12 12 12 12 13 14 14
24 25 20 26 24 26 29 31 30 26 26 35 33 32 33 31 32 34 37 36 34 32 30 26 23 19 12 6 6 5 4 4 8 10 11 12 12 12 13 13 14 14 15 15
20 21 24 27 25 22 32 32 29 31 33 32 32 32 31 32 34 36 36 35 32 30 28 24 19 12 7 8 7 5 4 8 10 11 11 11 12 12 13 14 15 16 16 15
25 27 26 27 27 33 33 33 34 33 32 32 32 32 32 32 34 35 36 35 33 29 25 21 17 10 6 8 8 5 7 10 11 11 11 11 12 13 13 15 15 15 15 14
31 33 31 30 32 32 33 34 33 33 33 34 34 33 33 32 32 33 35 35 33 27 22 17 11 6 6 9 8 8 9 11 11 10 10 11 12 14 15 15 16 16 15 15
30 32 32 32 34 34 33 34 34 34 34 34 34 34 33 32 32 33 34 34 31 25 18 12 8 6 6 8 8 10 10 11 10 11 11 12 13 14 15 16 16 15 15 17
34 32 30 29 33 33 33 34 34 34 34 34 34 34 33 33 33 34 34 35 30 22 14 9 7 7 7 9 9 10 11 11 11 12 12 12 14 16 16 15 15 17 18 18

GFSCGP_sfc_30mbdewp_009.txt.gz
Dewpoint
44 43 41 41 42 39 33 32 32 34 30 27 27 27 29 29 29 28 28 34 36 38 39 40 40 40 40 41 42 44 50 53 56 57 56 57 56 53 51 49 48 47 49 49
40 40 43 43 42 38 35 33 32 31 30 29 31 29 28 29 28 27 28 34 36 37 38 39 40 40 40 40 41 41 43 46 54 57 58 57 51 48 46 45 44 43 40 40
36 41 42 42 42 40 37 35 34 34 32 30 27 26 26 26 26 29 31 35 36 37 38 39 39 40 41 41 41 41 42 43 44 46 46 45 45 44 43 42 40 41 40 38
40 43 42 42 40 40 38 35 36 34 36 33 27 25 26 26 25 29 33 36 36 38 39 39 39 40 40 41 42 42 42 42 43 43 43 42 41 39 40 39 39 37 38 38
40 43 41 41 41 40 39 39 38 35 33 26 26 25 25 24 23 28 32 36 37 39 39 39 40 40 41 41 42 42 42 42 42 41 41 39 38 38 37 36 34 35 34 36
42 45 44 41 42 42 33 34 34 29 26 25 25 25 24 23 23 27 31 34 37 39 39 39 40 40 40 42 42 42 40 40 39 39 38 37 36 33 32 32 30 29 29 31
40 43 45 47 38 36 35 37 32 29 26 25 25 24 24 25 24 27 30 33 37 39 39 39 39 39 40 41 41 40 40 38 37 35 34 34 33 31 28 26 24 22 21 24
34 34 39 45 40 36 38 36 31 25 23 23 25 23 21 25 29 29 31 33 37 38 39 38 39 39 40 40 39 38 37 37 35 32 29 28 27 25 22 22 20 19 19 20
32 33 36 37 36 39 35 36 31 26 25 25 26 25 26 27 28 29 30 33 37 38 39 39 38 39 40 38 37 36 35 34 34 30 24 21 20 19 18 18 17 17 17 14
34 27 30 23 33 29 35 34 33 27 23 21 24 23 24 23 25 29 30 33 36 37 38 38 38 39 39 36 35 34 32 31 29 24 20 17 16 15 15 14 14 15 14 15
28 27 26 23 26 29 31 34 31 27 26 23 19 19 23 23 24 28 30 33 35 37 38 38 38 40 37 34 32 31 29 28 25 20 15 13 13 13 12 11 13 13 14 14
27 27 24 24 29 27 27 30 29 25 23 23 21 23 24 26 27 29 30 32 35 37 38 38 39 38 34 31 29 27 25 24 22 16 12 11 11 11 9 10 11 12 12 12
31 29 27 27 29 31 27 24 25 25 24 22 21 22 25 29 31 31 31 32 33 36 38 38 39 36 32 29 26 24 22 21 16 12 10 9 10 9 9 11 11 11 11 12
33 30 29 27 27 28 27 25 24 25 24 23 22 22 23 27 30 31 32 33 33 34 37 38 39 36 32 27 24 22 19 18 13 10 9 9 9 11 11 12 12 12 12 11
32 28 27 26 29 28 27 27 24 24 24 23 24 23 24 25 28 30 29 30 33 35 37 38 38 35 29 26 24 21 16 12 10 8 8 10 12 13 12 12 13 12 12 12
32 28 24 22 27 28 28 28 26 24 24 24 24 24 26 28 29 31 34 33 34 35 36 39 38 34 29 25 24 21 13 7 9 8 8 11 12 12 13 13 12 12 12 11
33 27 24 24 22 21 24 25 28 27 27 25 24 26 26 30 32 33 33 34 34 36 35 39 38 33 28 25 23 18 7 6 7 8 9 11 12 12 13 12 11 11 11 12
32 31 24 19 20 20 24 28 29 28 26 27 25 25 28 32 32 31 33 33 33 35 34 38 36 31 25 23 19 10 6 6 6 7 8 11 12 12 12 12 11 12 12 12
29 25 25 19 18 20 26 27 25 27 27 27 28 31 33 32 32 32 35 35 35 34 37 37 33 26 23 18 12 6 5 5 5 7 9 11 12 12 11 10 11 12 12 12
27 25 26 24 15 16 22 29 30 30 23 33 33 32 32 32 29 31 35 36 35 36 35 32 26 22 17 9 6 4 4 3 4 8 10 11 12 11 11 11 12 13 13 13
24 24 24 24 19 23 28 31 30 25 23 34 34 34 33 31 31 34 36 35 34 32 30 26 23 19 12 6 6 5 4 3 8 10 11 11 11 11 12 12 13 14 14 14
24 22 21 25 21 16 31 31 27 31 34 33 32 32 31 32 34 35 36 35 32 29 27 24 19 13 8 8 6 4 3 7 10 11 11 11 11 11 12 14 15 15 15 14
22 24 23 24 23 33 33 33 34 33 32 32 32 32 32 32 34 36 35 35 32 29 26 22 17 10 7 8 7 4 6 9 10 11 10 10 11 11 13 14 14 14 14 14
30 33 30 29 32 32 33 33 33 33 33 33 33 33 32 33 33 34 35 35 33 28 23 19 14 9 7 9 8 7 9 10 11 9 9 10 11 13 13 14 15 15 15 15
30 32 31 32 33 33 33 33 34 34 34 34 34 33 33 32 32 33 33 34 33 27 22 16 12 8 7 8 8 9 10 11 10 10 10 10 11 13 14 15 15 15 16 17
33 31 29 28 33 33 33 34 34 34 34 34 34 33 33 33 33 34 33 34 30 25 16 12 9 7 7 8 9 10 11 11 11 10 10 11 14 15 15 14 15 17 18 18

GFSCGP_sfc_30mbdewp_012.txt.gz
Dewpoint
40 39 37 41 43 36 31 32 33 33 33 32 33 33 31 33 32 30 29 32 34 36 38 40 41 41 42 43 47 51 54 55 55 55 56 54 50 47 44 43 41 39 39 39
36 36 40 44 41 36 36 34 33 32 32 31 33 34 35 33 30 30 29 32 34 36 37 38 39 39 40 41 42 45 51 55 56 57 53 48 45 43 42 41 40 38 37 36
34 35 39 45 41 37 36 33 31 32 34 35 32 31 31 27 27 28 28 33 35 35 36 37 39 40 40 41 42 42 45 46 46 45 44 44 44 42 40 39 37 36 36 33
33 36 40 44 40 38 36 36 36 36 37 33 33 28 29 28 27 28 31 34 35 36 37 38 39 40 41 43 44 43 43 43 43 43 42 41 39 38 37 35 35 33 33 30
33 32 41 40 41 37 35 38 37 38 36 34 33 29 27 26 25 27 31 34 35 37 37 38 40 41 42 44 43 42 41 40 40 39 38 36 35 35 34 32 30 29 27 26
31 43 39 42 42 40 38 36 36 34 32 30 30 28 25 24 23 26 31 35 36 37 38 39 40 41 42 43 42 40 38 38 37 36 35 34 32 29 28 26 23 21 19 20
33 40 42 43 42 39 38 37 33 31 32 28 25 25 24 26 25 27 31 34 36 38 38 39 39 40 41 42 41 38 36 35 34 32 30 30 28 25 22 19 16 14 12 14
30 33 43 43 40 38 37 35 29 24 25 25 25 24 23 26 28 27 30 34 36 38 38 38 39 40 41 40 39 37 35 33 30 28 25 23 21 19 16 14 13 10 10 10
31 34 42 42 40 38 39 37 32 26 26 24 24 26 27 27 28 28 29 34 37 38 38 38 40 40 39 38 37 36 35 32 28 24 20 17 15 14 12 11 10 10 10 8
33 32 37 36 41 36 39 38 32 29 24 22 23 24 22 24 24 28 29 34 36 38 38 38 39 39 38 36 36 34 32 28 24 20 16 14 10 9 9 8 8 9 8 9
34 32 31 33 39 37 37 38 37 31 27 22 19 21 24 24 25 26 29 33 36 38 38 38 38 39 36 35 34 31 29 26 21 17 13 11 8 7 7 6 7 7 7 8
34 28 33 31 30 34 36 35 34 31 26 25 23 21 24 26 28 28 29 33 36 37 38 38 39 38 35 33 31 28 27 23 19 13 10 8 8 7 5 5 7 6 6 7
31 28 27 32 32 29 35 33 35 31 26 25 24 23 25 30 31 31 30 33 35 37 38 38 39 37 34 31 29 26 24 20 15 11 8 7 7 6 6 7 7 7 7 8
32 30 25 25 27 29 30 31 34 34 29 26 24 24 24 28 30 31 31 32 34 36 38 37 38 36 34 30 27 24 22 19 12 9 8 8 8 8 8 9 8 8 8 8
34 28 29 28 29 29 28 30 28 30 31 27 27 26 26 26 30 31 32 32 32 34 37 38 38 37 33 29 26 23 19 15 9 7 7 9 9 10 10 10 9 9 10 10
34 30 26 25 29 28 27 28 29 30 30 28 27 26 27 27 30 30 31 32 33 34 36 38 39 37 33 28 25 23 16 10 8 6 7 9 9 9 9 10 9 9 10 10
33 30 27 25 24 26 26 27 27 27 27 26 25 27 27 28 28 30 32 33 34 34 36 37 38 37 32 28 26 22 13 8 6 6 6 8 9 9 9 9 8 8 9 9
33 32 28 23 24 24 26 28 28 27 27 27 27 27 28 28 32 33 34 34 35 36 36 38 39 35 30 27 24 15 9 7 5 5 5 8 8 8 8 7 7 8 8 8
37 36 33 26 23 22 22 27 26 28 28 29 28 27 31 32 33 34 35 35 35 35 36 38 37 33 27 24 18 12 8 5 4 5 6 7 7 7 6 6 7 8 8 9
31 39 36 26 21 22 22 29 28 29 22 29 29 30 32 32 29 32 35 35 36 37 37 35 31 27 24 18 12 10 6 3 2 5 7 8 8 8 6 8 8 9 9 9
31 29 30 29 32 23 27 30 31 21 25 32 32 32 33 31 33 35 35 35 34 34 33 29 26 24 20 12 10 7 3 2 6 8 8 8 7 7 7 8 9 10 10 9
27 27 26 30 31 24 31 30 27 32 35 35 35 34 33 34 35 35 35 34 32 30 29 26 24 19 13 10 8 5 3 6 8 9 8 7 7 7 8 11 12 11 8 8
26 29 24 26 25 33 34 33 35 35 34 33 33 33 33 34 34 35 36 34 32 30 27 24 22 16 12 9 6 4 5 8 8 8 7 6 7 8 10 10 10 9 8 8
29 32 29 28 32 32 33 34 34 34 33 34 33 33 33 34 35 35 35 35 33 31 28 24 20 18 12 9 8 6 8 9 9 7 6 6 7 10 10 9 9 9 8 10
31 32 31 31 33 33 33 33 34 34 34 34 34 34 34 34 33 34 34 35 35 31 27 23 21 17 13 8 7 8 9 9 7 6 6 7 8 10 10 8 9 11 13 15
32 31 30 29 33 32 32 34 35 34 34 34 34 34 34 34 33 34 34 34 34 30 25 21 18 14 8 7 7 8 10 9 8 7 7 8 11 10 8 8 9 12 15 17

GFSCGP_sfc_30mbdewp_015.txt.gz
Dewpoint
34 36 34 36 39 38 34 35 33 33 33 33 33 32 32 31 32 31 30 28 32 35 38 40 41 41 43 48 51 53 53 54 55 55 55 52 48 45 43 41 40 39 38 38
33 34 35 34 38 41 41 34 31 31 33 33 31 31 31 32 33 33 29 29 32 35 36 38 39 39 40 43 48 52 54 55 54 51 50 47 45 43 42 40 38 36 34 34
30 33 37 32 37 40 39 35 29 30 32 33 32 33 33 34 34 31 30 29 33 35 35 37 38 39 40 41 44 46 46 46 47 47 46 45 44 42 39 37 35 34 32 27
32 32 35 33 35 40 39 36 32 32 34 30 34 25 26 29 28 28 28 30 33 34 35 36 38 40 42 44 44 43 43 43 43 43 42 41 39 36 35 34 33 31 30 25
33 33 35 34 38 42 40 35 33 35 35 36 35 32 27 29 26 28 28 31 34 35 36 37 39 41 43 44 43 41 41 40 40 39 37 36 34 33 32 31 28 26 24 22
32 32 36 36 40 42 43 35 36 35 33 30 30 30 24 26 26 26 29 32 35 35 37 38 40 42 43 43 42 40 38 37 36 35 34 33 32 30 29 26 23 20 18 18
33 33 38 41 42 45 44 37 33 31 31 24 27 28 26 23 25 25 29 32 35 36 37 39 40 41 42 42 40 37 35 34 33 32 31 30 29 26 23 20 18 16 14 14
28 28 35 39 42 38 40 37 27 22 23 23 26 25 24 26 27 27 31 33 35 36 37 38 39 40 42 40 37 36 34 31 30 28 26 25 24 21 19 16 15 13 11 10
30 31 38 42 44 40 38 35 32 28 26 23 26 26 25 26 27 27 29 33 35 36 37 38 40 41 41 39 37 36 32 30 27 25 23 20 18 17 15 13 12 12 9 6
35 31 38 43 43 43 39 38 31 28 23 21 22 22 23 24 25 27 28 33 35 36 37 38 39 40 39 37 36 35 31 28 25 22 20 17 14 12 11 11 9 8 8 7
38 32 33 40 40 38 40 38 35 30 27 22 20 21 25 24 25 27 28 33 36 37 37 38 39 39 38 37 35 33 29 26 23 21 18 16 12 11 9 8 7 6 6 6
40 38 32 34 35 38 38 38 34 29 26 25 23 21 24 25 28 28 28 32 36 37 37 38 38 38 36 36 33 31 29 25 23 18 15 13 12 11 9 7 6 5 5 5
37 32 32 33 33 36 38 35 35 33 30 26 22 23 25 29 30 28 29 32 36 37 37 37 38 37 36 34 32 29 27 24 20 16 14 13 12 10 8 7 7 6 6 6
37 31 29 26 27 35 36 37 34 32 29 27 26 24 24 28 29 30 30 33 35 37 37 37 38 37 35 34 31 28 26 22 17 14 13 13 11 9 8 8 8 8 8 8
36 29 28 26 27 31 32 33 34 33 32 28 27 26 26 27 29 30 31 33 34 36 37 37 38 37 35 33 30 26 24 20 15 12 11 12 10 9 9 9 9 8 9 10
36 31 28 28 29 28 27 29 31 32 32 31 29 28 29 28 27 30 31 32 33 34 36 37 38 38 35 32 29 25 22 17 13 10 10 10 8 8 8 9 8 9 10 11
35 33 28 25 26 28 27 28 28 29 29 29 27 29 30 27 28 30 30 31 32 33 35 37 38 38 36 32 28 25 20 14 11 9 7 7 7 7 8 8 7 8 9 10
34 33 30 27 26 25 26 28 28 28 28 29 30 30 29 29 29 31 32 32 33 34 35 36 38 38 35 31 28 23 15 12 9 8 6 6 6 6 6 6 7 8 9 9
35 35 32 28 28 29 26 25 27 28 27 29 28 28 28 32 33 33 34 34 35 35 37 38 39 37 32 28 23 17 14 10 7 6 5 5 5 6 6 6 7 9 9 10
38 36 36 32 25 23 24 28 27 29 26 28 30 29 30 32 29 32 35 36 36 37 38 38 36 32 28 25 19 17 12 8 4 5 5 6 7 7 6 6 8 10 10 10
34 37 34 34 30 31 27 29 29 22 28 30 30 30 32 31 33 35 35 35 35 36 34 32 30 28 24 19 18 14 8 4 5 6 7 6 6 6 6 8 11 12 11 10
33 33 33 34 32 29 31 30 26 33 33 32 32 33 33 35 34 34 34 34 33 32 30 29 27 23 18 17 15 10 5 5 6 7 7 7 6 6 9 12 14 12 10 8
32 32 29 29 32 33 33 34 34 35 34 34 34 35 34 34 34 35 34 33 32 30 28 27 24 20 17 14 12 7 6 7 7 7 6 6 6 8 9 12 11 11 8 7
28 30 28 26 31 32 33 34 35 35 34 34 34 34 33 34 34 35 34 33 32 30 28 26 23 20 16 12 8 6 7 7 7 6 5 5 8 10 10 10 10 9 7 9
30 30 30 30 33 33 33 34 34 34 34 34 34 34 34 34 34 34 34 35 34 32 29 27 25 22 17 13 8 7 8 8 7 5 5 8 9 10 10 10 8 8 10 12
32 30 29 27 32 32 33 34 34 34 34 34 34 34 35 34 34 34 34 35 34 32 28 26 24 21 14 9 7 7 8 8 7 7 8 9 10 11 9 8 9 10 12 13

GFSCGP_sfc_30mbdewp_018.txt.gz
Dewpoint
34 34 33 36 37 37 35 34 36 35 37 37 35 34 35 35 34 33 33 31 32 36 39 40 42 44 49 52 53 54 54 55 56 57 53 48 45 43 42 40 37 36 35 37
32 32 33 33 35 36 36 36 36 37 36 35 34 34 35 34 33 33 32 32 32 37 38 39 40 42 47 51 53 55 55 52 51 50 49 47 44 42 40 38 36 32 29 29
30 30 33 30 31 32 32 37 37 38 37 34 33 31 32 32 32 32 34 34 34 36 37 38 40 41 44 47 47 48 48 48 48 47 45 43 43 42 39 37 35 32 26 24
29 30 28 31 30 31 30 35 38 39 38 34 33 28 30 31 33 34 34 30 35 36 37 38 40 42 44 45 45 45 46 46 46 46 45 43 38 36 36 34 33 29 26 21
30 30 29 31 33 35 34 38 39 40 40 37 35 31 31 30 32 33 29 29 35 36 36 38 41 44 45 44 43 42 41 40 40 39 38 37 35 34 32 30 26 24 24 20
30 34 33 31 34 35 36 37 41 41 38 33 34 32 29 28 29 28 28 32 35 35 37 40 43 44 44 44 42 39 37 37 36 35 35 34 32 30 27 23 21 20 21 20
31 34 35 36 35 35 36 35 31 31 31 28 29 30 30 24 26 28 28 33 35 36 38 41 42 43 43 41 39 37 35 33 33 32 31 29 27 24 20 19 18 15 15 15
26 22 34 36 33 35 36 34 31 27 27 25 27 27 27 26 27 29 31 34 36 37 39 40 42 43 42 40 37 35 32 30 29 27 24 23 23 20 18 16 15 13 12 11
28 29 36 32 34 40 37 31 37 32 23 25 26 26 25 27 27 29 32 35 36 37 39 39 41 43 42 38 36 34 31 28 26 23 20 18 17 16 15 14 13 12 11 8
32 28 36 37 39 40 42 39 35 33 22 23 26 25 24 25 27 27 32 34 36 37 39 39 41 41 40 38 36 32 29 26 24 21 18 15 13 12 12 11 9 9 8 8
34 31 34 39 38 35 37 37 40 33 28 24 22 22 27 26 27 27 31 35 36 37 38 40 40 40 38 37 35 31 27 24 22 20 17 14 13 12 10 9 8 7 7 7
35 32 30 34 39 39 39 38 36 28 27 27 24 22 26 27 27 28 28 35 37 37 38 39 40 38 37 36 33 29 26 24 21 17 15 14 13 11 9 8 8 7 7 8
36 31 30 32 36 42 39 39 39 37 33 27 22 22 28 29 28 29 30 35 37 38 38 39 39 37 37 35 32 30 26 22 18 16 14 14 13 11 9 9 9 9 8 9
41 36 32 31 32 38 37 38 37 37 31 29 27 23 28 29 28 29 30 34 37 38 38 38 39 37 36 34 31 28 24 20 16 15 14 13 11 10 10 10 10 10 10 11
38 36 36 36 36 36 36 37 36 34 33 29 27 25 25 29 30 30 32 35 37 37 38 38 39 37 35 33 30 27 23 18 15 14 14 12 11 10 10 11 11 10 11 12
35 35 34 28 32 34 35 36 36 35 32 31 32 31 29 28 31 31 32 34 36 37 38 38 39 37 35 32 28 25 21 16 13 12 12 10 9 9 9 10 10 10 11 12
35 34 32 25 28 29 27 32 33 34 34 33 32 32 32 27 29 30 31 34 35 36 38 38 39 37 35 31 27 23 19 14 12 10 9 8 8 8 8 9 8 9 10 10
35 35 34 27 27 23 26 28 29 29 30 32 31 31 30 29 32 34 33 32 33 35 37 38 39 38 34 30 26 21 15 13 11 9 7 7 7 7 7 8 8 9 10 10
36 35 35 27 28 28 28 25 27 28 28 29 29 31 32 33 33 34 35 36 36 36 37 39 39 34 30 28 20 15 13 10 9 7 6 6 6 7 7 7 8 9 11 12
37 37 36 35 27 24 25 28 27 29 27 30 30 30 32 32 29 33 36 37 38 39 39 37 33 30 27 20 17 15 11 9 6 6 6 7 7 7 7 7 8 11 13 13
35 36 34 34 32 31 29 28 28 25 27 31 31 32 33 32 34 35 36 36 37 36 33 31 29 27 22 19 18 12 8 5 6 7 7 7 7 7 7 9 11 13 14 12
34 34 34 34 32 29 30 29 27 33 33 32 34 35 35 35 34 34 35 34 33 32 31 29 25 20 19 18 13 9 6 7 7 8 8 8 7 7 8 12 14 14 12 10
33 34 34 35 34 33 33 34 35 35 34 35 36 36 35 34 34 34 33 32 31 29 28 25 20 18 16 15 10 7 7 7 7 7 7 6 6 8 10 11 12 11 10 8
32 31 30 29 31 32 34 34 35 36 35 36 35 35 35 35 35 34 33 31 29 28 27 23 20 17 13 10 8 8 8 8 7 7 6 6 8 11 11 11 11 10 8 9
29 30 30 30 33 33 34 34 35 34 34 34 35 35 35 35 35 35 33 32 31 29 27 24 22 18 14 11 8 9 8 8 7 6 6 9 10 11 11 11 10 10 11 12
31 29 30 29 32 31 33 35 35 34 34 35 35 35 35 35 35 35 35 34 32 29 28 27 24 18 13 9 8 9 9 9 8 8 10 11 12 13 12 10 10 13 13 14

GFSCGP_sfc_30mbdewp_021.txt.gz
Dewpoint
35 33 32 34 36 34 33 34 34 36 38 38 37 38 38 39 36 35 33 30 33 37 40 41 43 47 50 52 53 54 56 56 55 50 46 43 41 39 37 34 32 30 31 29
33 32 33 35 36 37 35 34 33 35 38 38 37 37 37 37 36 36 35 34 35 39 39 41 44 49 52 53 53 54 53 53 51 49 46 44 41 39 37 34 28 25 24 25
31 30 32 32 32 33 34 34 33 32 36 39 38 37 36 36 36 35 35 35 37 38 39 40 44 47 47 48 49 49 48 47 46 44 43 42 41 39 35 33 29 23 21 22
32 32 30 32 31 31 29 32 32 31 34 33 39 32 35 35 33 32 32 33 36 38 39 40 43 45 45 45 46 47 47 45 44 44 43 41 38 35 35 33 29 24 20 19
30 29 30 28 30 32 29 31 32 32 33 34 36 36 34 32 32 32 32 33 36 38 38 40 43 44 45 43 42 41 42 43 42 42 40 37 35 34 32 28 25 23 19 17
32 32 31 29 29 31 33 32 31 35 34 29 33 36 30 30 30 31 32 34 36 37 39 43 44 44 42 41 39 37 36 36 36 36 35 33 30 26 23 20 19 19 19 17
33 32 35 36 33 34 34 31 23 23 25 24 33 34 35 29 28 32 30 34 36 38 42 43 43 42 41 38 37 35 34 32 31 29 28 25 22 20 19 17 15 14 13 12
26 22 31 34 32 30 33 29 22 19 20 23 35 33 33 33 30 31 33 35 37 40 42 43 43 42 40 37 35 33 31 29 27 25 23 22 20 18 17 15 14 12 11 11
26 26 34 32 32 31 31 29 28 31 32 29 33 29 26 28 30 32 34 35 37 40 42 43 43 42 39 36 33 31 28 26 23 21 19 17 16 15 13 12 12 11 10 9
31 26 28 32 36 34 33 33 28 30 25 27 28 24 24 26 29 33 34 35 37 39 41 42 43 41 39 36 33 29 27 24 21 18 15 13 13 13 11 10 8 7 8 8
32 31 29 31 33 31 34 32 32 33 30 27 24 24 26 26 29 32 34 35 37 39 40 42 42 40 38 35 31 28 25 22 19 16 14 12 12 10 9 8 7 7 7 8
35 32 27 29 39 36 34 34 32 27 31 30 23 22 27 27 28 32 34 36 38 39 40 41 41 39 37 34 30 26 24 21 19 16 14 13 11 9 8 8 8 8 8 9
35 30 25 30 36 38 36 37 39 37 37 29 21 22 29 28 28 29 34 36 38 38 40 40 39 37 36 32 28 26 23 20 16 15 14 13 11 9 9 9 9 10 9 10
36 33 30 29 34 38 35 36 37 36 33 29 25 25 28 27 28 29 35 37 38 38 39 39 37 37 36 32 29 26 22 18 16 15 14 12 10 10 10 11 11 11 11 11
38 31 34 34 36 38 37 35 36 37 35 29 24 24 28 27 28 30 36 37 37 38 39 38 37 36 35 32 29 24 19 16 15 15 13 11 11 10 10 11 11 10 11 12
37 31 37 34 37 37 36 37 36 36 34 34 32 31 28 30 30 31 36 37 37 37 38 38 37 36 34 31 27 22 17 15 15 14 12 11 10 9 10 9 9 9 10 11
34 35 36 28 36 36 34 35 36 36 35 33 31 31 29 30 30 31 35 37 37 38 38 38 37 36 34 29 25 20 16 14 13 11 10 9 9 8 8 8 8 8 9 10
33 35 35 28 27 22 25 32 36 36 35 35 34 32 30 31 34 34 34 36 37 38 38 39 38 35 32 26 23 16 14 12 11 9 8 8 7 7 7 8 8 8 9 11
36 35 33 29 28 28 27 25 27 30 30 31 34 33 32 33 33 34 36 36 36 38 38 39 37 33 27 24 17 14 12 11 10 7 7 6 6 6 7 7 7 8 11 13
37 37 35 34 27 23 25 27 28 29 26 31 30 31 32 32 28 33 37 38 38 37 36 33 30 25 21 17 14 12 10 9 8 6 7 7 7 7 7 7 7 11 13 13
35 35 33 33 32 31 31 28 29 24 26 32 33 32 33 30 32 36 37 35 34 32 30 28 24 21 18 15 13 11 9 6 7 7 7 7 7 7 7 8 11 13 13 13
34 33 34 34 31 27 30 28 24 31 33 35 35 35 34 35 35 35 34 33 32 31 28 25 22 19 18 14 11 7 6 7 7 8 8 8 7 7 9 12 12 12 12 10
33 35 35 33 31 34 34 33 35 35 34 36 35 35 35 34 34 33 32 31 30 28 23 21 19 17 16 11 9 7 7 8 8 7 7 6 7 9 12 11 11 12 11 9
36 34 33 34 32 33 33 35 35 36 35 36 35 35 34 33 33 32 31 29 28 25 21 19 16 13 11 9 8 8 8 8 7 6 6 7 10 14 11 12 12 11 11 11
31 32 32 30 33 33 34 34 35 35 35 35 36 35 34 33 32 31 30 29 28 26 21 19 16 13 9 8 8 8 8 8 7 6 8 10 12 12 13 12 11 13 13 15
30 29 31 31 32 30 31 35 35 34 35 35 35 35 35 34 33 33 31 30 28 26 23 21 18 15 10 8 9 9 9 8 8 9 10 11 14 14 13 12 13 15 15 15

GFSCGP_sfc_30mbdewp_024.txt.gz
Dewpoint
36 33 30 32 35 35 32 31 31 35 36 37 37 37 37 39 40 39 38 36 35 34 39 40 43 47 51 52 53 53 54 51 48 46 43 42 38 35 32 30 29 28 27 27
34 32 33 32 34 36 35 33 32 33 33 34 36 37 39 39 38 38 39 37 34 36 39 42 46 50 52 53 54 55 55 51 49 46 43 40 37 35 31 27 24 24 24 23
31 29 32 33 33 33 34 34 32 31 33 32 31 30 34 37 39 38 38 37 35 37 39 42 48 50 51 52 52 53 51 48 46 43 40 38 36 34 30 26 22 21 21 22
32 33 31 32 31 33 30 34 34 33 31 27 35 26 30 35 36 37 37 37 36 38 40 42 48 48 49 49 49 49 47 45 43 42 39 36 34 32 32 28 23 20 19 19
32 32 32 30 31 31 30 31 30 31 31 30 28 28 30 35 34 36 36 36 35 39 40 44 46 47 46 46 46 46 45 44 43 42 39 37 35 34 31 25 20 17 17 17
32 34 32 30 30 32 33 32 31 30 30 24 24 28 26 32 35 35 36 34 35 39 40 44 45 44 43 42 42 42 42 41 41 39 37 34 31 28 25 23 21 18 17 16
33 34 35 34 30 31 30 29 21 21 22 17 21 25 25 33 35 34 34 34 36 39 41 44 43 41 39 39 38 38 38 37 36 34 31 28 25 21 18 18 17 14 12 12
27 24 33 35 30 29 30 28 21 13 18 14 27 25 28 34 32 32 34 34 37 40 42 43 42 40 38 36 35 33 33 31 29 27 24 21 20 19 17 15 13 12 11 11
26 26 32 32 32 30 31 28 27 22 23 25 28 32 33 33 32 31 33 36 38 41 42 42 41 39 37 35 33 31 28 26 24 22 19 18 17 16 14 12 12 10 11 9
28 24 30 31 34 33 30 30 26 27 17 16 26 31 27 29 30 33 34 36 39 42 42 42 40 38 36 33 31 28 26 23 20 18 16 15 14 12 11 9 7 8 8 8
31 28 29 32 31 27 31 29 30 25 25 23 18 26 31 28 30 33 35 37 40 41 42 42 40 38 35 32 29 26 23 20 17 15 13 12 11 10 9 7 7 7 8 8
31 31 25 25 29 34 35 31 30 23 20 30 29 25 27 28 31 34 35 37 40 41 42 42 40 37 34 31 28 25 22 18 16 14 13 12 10 9 8 8 8 9 8 9
36 30 24 25 30 33 32 32 34 30 29 22 28 26 29 29 32 35 35 38 39 41 42 41 39 36 33 30 26 24 21 18 15 14 13 11 10 9 9 9 10 10 10 10
37 33 28 25 31 36 32 33 33 33 29 24 27 31 27 27 30 34 36 38 39 40 41 40 38 36 33 29 25 23 20 17 16 15 13 11 10 10 10 11 11 10 11 11
36 30 33 32 33 34 35 33 34 31 33 30 32 29 28 27 28 34 36 38 38 39 40 39 38 36 32 28 25 22 18 16 16 14 13 12 11 10 11 11 10 11 11 12
37 30 31 30 35 35 34 37 35 34 33 33 35 32 28 29 31 35 36 37 38 39 39 38 37 36 32 29 24 20 16 16 15 14 13 12 10 10 10 10 9 9 10 10
35 32 31 31 37 36 33 37 33 33 37 35 34 30 29 29 30 34 36 37 38 39 39 38 37 36 33 28 22 18 16 16 15 14 12 10 9 8 9 8 8 8 8 11
33 33 35 32 35 24 26 33 39 38 36 35 34 31 29 30 33 34 36 37 38 38 39 38 37 36 31 25 20 16 15 14 13 12 10 9 8 7 8 8 7 7 9 11
35 33 33 32 30 28 25 26 31 34 33 32 35 33 32 33 33 34 37 37 38 38 39 38 37 32 27 22 17 14 13 12 11 9 8 7 7 7 7 7 7 8 11 12
37 36 34 33 28 24 25 28 28 28 27 31 30 33 32 32 29 31 37 38 38 38 37 35 30 26 21 17 14 13 12 10 9 8 7 7 8 7 6 7 8 11 13 13
35 35 32 31 32 30 33 30 30 25 25 32 33 33 33 30 33 36 34 33 32 31 29 26 24 21 17 14 13 12 10 9 8 8 7 7 8 7 7 9 12 13 13 12
34 32 33 33 30 25 32 29 24 28 35 35 35 35 34 36 35 33 32 31 29 27 24 22 19 17 14 13 12 9 9 8 8 8 8 8 7 7 10 12 12 13 12 10
33 35 34 33 31 34 34 32 35 34 34 35 35 36 35 35 34 33 31 29 26 24 22 20 18 14 13 11 9 8 7 8 8 7 6 6 8 11 12 12 12 11 11 12
36 36 35 34 33 34 33 35 36 36 35 35 35 35 35 34 33 31 30 26 24 22 20 18 16 12 10 9 9 8 8 8 7 6 6 9 11 15 13 13 12 13 13 13
35 34 32 32 32 33 33 34 35 36 35 35 35 34 33 32 31 30 28 26 23 20 18 16 13 11 9 9 8 9 8 8 6 6 9 10 13 13 13 12 13 15 15 16
31 33 33 32 32 30 31 35 36 35 35 35 34 33 33 32 31 30 28 27 23 20 18 16 12 10 9 8 8 9 9 7 7 9 10 13 15 13 13 13 13 17 16 16

GFSCGP_sfc_30mbdewp_027.txt.gz
Dewpoint
36 32 30 33 35 35 34 33 31 34 35 34 34 35 37 39 38 38 39 40 40 38 37 39 41 43 48 49 50 48 54 50 49 46 43 42 39 34 31 30 28 27 27 26
34 31 33 32 32 32 34 33 31 33 33 32 32 31 32 33 33 39 38 39 39 38 37 39 42 47 51 51 53 53 51 49 48 46 42 39 35 31 28 26 24 23 23 23
31 29 32 32 31 31 32 31 29 29 30 32 31 27 24 26 31 37 40 39 39 38 37 38 43 48 51 52 54 53 50 48 45 41 38 34 30 27 24 22 21 21 21 21
34 34 32 30 30 32 28 32 33 32 31 25 31 21 23 26 28 32 36 39 39 37 37 39 45 49 51 52 53 50 48 45 41 40 37 35 32 28 27 22 20 19 18 18
31 33 31 29 30 32 29 31 32 32 30 29 27 26 24 25 25 31 36 38 38 38 38 40 46 49 50 50 50 48 45 43 41 39 37 35 33 30 25 20 17 16 17 16
32 35 33 32 31 32 33 31 31 31 30 23 23 24 18 17 22 32 35 37 38 37 39 43 47 48 47 47 47 45 44 42 41 39 37 35 30 26 22 19 17 16 16 15
33 34 35 35 31 30 31 31 22 20 21 17 20 21 20 21 28 34 34 35 37 37 40 44 46 46 44 45 44 43 43 40 38 36 34 31 28 24 21 20 17 14 12 12
27 25 33 36 31 29 31 30 23 14 15 16 19 17 19 24 24 24 25 31 34 38 42 44 45 44 43 42 41 41 39 36 34 31 28 25 23 22 19 17 15 12 11 11
27 25 34 35 33 32 31 28 29 25 21 21 23 23 26 21 29 32 33 33 34 39 42 44 43 41 40 38 37 37 34 31 28 25 22 20 19 17 15 12 12 11 11 9
29 24 29 33 34 35 32 30 26 27 17 14 12 17 26 25 23 22 24 32 36 40 43 43 41 38 36 34 32 31 29 27 23 20 18 17 15 13 12 11 9 8 8 9
31 28 26 32 30 28 31 29 29 26 22 14 12 10 12 21 26 26 29 35 39 41 42 41 39 36 34 31 29 26 24 21 18 17 15 13 11 10 8 7 8 8 8 9
32 30 25 24 31 31 29 28 29 22 20 21 19 19 28 29 29 31 35 39 42 42 41 40 37 35 32 30 27 23 20 18 16 14 13 11 10 8 8 8 8 9 8 10
33 30 24 26 29 32 31 32 32 29 27 22 19 16 28 27 32 35 38 40 42 42 41 39 36 34 31 28 25 21 18 16 14 13 12 10 9 9 9 9 10 10 10 11
35 32 28 23 27 32 28 31 33 31 26 23 23 20 20 20 29 36 39 41 42 41 40 38 36 33 30 27 24 20 17 15 14 13 11 10 10 9 10 11 10 10 11 11
36 29 32 32 31 31 31 33 32 30 29 27 24 23 24 27 37 36 38 40 40 41 40 38 36 33 29 26 23 19 17 15 14 13 12 11 11 11 11 10 10 11 11 11
37 30 31 29 32 33 31 33 33 31 30 32 32 30 30 35 35 36 38 39 40 40 40 39 36 33 28 25 22 18 16 16 15 14 13 12 11 11 10 10 9 9 9 11
34 31 30 26 35 33 28 32 34 34 34 34 31 33 35 33 32 36 37 38 39 40 40 38 36 33 29 25 20 18 16 16 15 14 13 11 10 9 9 8 8 8 9 11
35 32 32 29 33 26 34 39 38 36 36 36 36 36 37 34 33 36 37 38 39 39 39 38 36 33 28 23 19 17 16 15 15 13 11 10 9 8 8 7 7 8 10 11
38 35 32 31 30 30 25 34 36 34 35 37 36 38 34 34 34 35 37 38 39 39 39 38 36 32 25 21 17 16 15 15 13 11 10 9 7 7 7 6 7 9 11 12
39 38 34 31 29 24 26 28 28 37 29 33 39 37 33 32 27 30 37 38 39 39 38 35 31 26 22 18 16 15 14 13 11 10 8 8 8 7 6 7 9 11 13 12
34 36 33 30 29 30 32 33 29 24 25 32 33 33 33 30 34 34 34 34 35 35 32 29 26 23 18 15 15 13 12 11 10 9 8 8 8 7 8 11 12 12 12 11
33 31 30 32 30 24 31 29 25 28 34 34 35 34 34 34 33 31 30 29 29 28 25 22 20 16 14 14 14 11 11 9 9 8 8 7 7 10 12 12 13 12 12 12
32 34 32 33 29 33 34 33 35 34 34 34 35 36 34 33 31 29 26 25 24 22 21 18 16 14 13 12 12 10 8 9 8 7 6 7 11 12 12 12 11 12 13 13
36 37 35 34 33 35 33 35 36 36 35 36 36 36 34 32 30 26 24 23 22 20 18 16 14 13 11 10 10 9 9 8 7 5 8 11 14 14 13 12 12 14 14 15
35 35 34 33 33 33 33 34 35 35 35 35 34 34 33 31 29 27 24 22 20 18 16 15 13 11 10 9 8 9 8 7 5 8 10 13 13 13 13 13 13 16 16 17
32 34 33 32 34 31 31 35 36 35 34 34 33 32 32 31 29 27 24 22 19 17 15 13 11 10 9 9 8 8 8 7 8 9 11 16 14 13 13 13 14 16 17 17

GFSCGP_sfc_30mbdewp_030.txt.gz
Dewpoint
35 33 32 35 34 33 33 33 33 33 34 33 32 32 32 33 35 37 38 39 39 40 40 39 39 41 44 46 48 51 57 53 51 48 46 44 41 36 33 31 29 28 27 27
34 31 32 32 33 34 33 31 29 31 32 32 31 30 31 32 32 34 37 38 40 40 39 38 39 43 47 47 49 52 53 51 50 48 44 41 36 31 29 26 25 24 24 24
30 29 32 32 31 30 30 29 29 28 28 30 29 26 22 23 26 29 30 32 36 40 40 39 39 43 48 49 51 51 50 49 46 42 37 31 28 26 24 22 22 22 22 21
34 34 32 32 30 31 28 31 31 30 29 24 31 19 21 23 23 25 27 31 37 39 39 39 39 44 48 51 53 51 49 46 42 39 37 36 34 28 24 22 20 19 19 19
31 32 33 31 30 31 29 31 31 31 31 30 28 26 22 23 22 23 26 32 35 37 39 38 39 42 49 51 52 49 46 44 41 39 38 36 32 26 22 19 17 16 16 16
32 35 33 32 32 31 33 31 31 33 31 23 23 24 18 17 17 17 22 29 34 38 39 39 41 47 49 50 49 46 44 42 40 38 36 34 28 21 18 17 15 15 16 15
33 34 35 35 31 32 34 31 23 21 21 18 21 23 20 19 20 22 23 29 35 37 38 41 44 47 48 49 47 45 43 41 39 37 35 30 24 21 18 17 15 13 12 12
27 23 33 35 31 28 30 30 23 15 15 15 20 17 17 21 22 23 24 27 30 36 39 42 45 47 48 48 46 44 42 39 37 34 31 26 23 22 20 17 14 13 11 11
27 25 33 34 34 30 31 28 29 26 26 22 21 21 24 24 22 24 28 27 25 29 38 43 46 47 46 45 44 43 39 35 33 29 25 23 21 20 17 13 13 11 11 10
30 24 28 32 35 33 32 33 26 27 17 15 16 16 15 18 15 15 21 22 26 35 40 44 46 44 43 41 39 37 34 31 26 23 21 19 16 14 12 11 10 9 9 9
31 29 26 32 31 28 31 29 30 28 26 16 11 9 12 11 13 26 31 28 26 36 41 44 42 40 37 35 34 31 27 25 21 19 16 14 12 10 9 8 8 8 9 10
31 31 25 24 29 30 30 29 28 22 20 22 18 15 18 22 28 30 33 35 36 40 43 41 37 35 34 32 29 27 23 20 18 15 13 11 9 8 8 8 8 9 10 12
31 30 23 23 28 29 31 31 29 27 24 21 18 14 17 18 21 30 36 40 42 41 39 36 35 34 31 28 25 22 19 17 15 13 11 10 9 8 8 9 10 10 11 12
34 32 25 22 23 31 28 29 32 31 25 22 24 20 21 22 24 26 37 41 42 40 39 36 34 31 28 25 22 19 16 15 14 12 11 10 10 9 10 10 10 11 11 11
34 29 31 31 31 32 31 31 31 29 29 26 24 24 23 23 29 33 38 42 42 41 38 36 33 29 26 23 20 17 15 14 13 12 12 11 11 11 11 10 11 11 11 12
37 30 31 29 32 32 30 32 32 32 31 31 30 29 33 34 36 37 38 41 42 41 38 36 32 28 26 22 18 16 15 14 14 13 13 12 12 11 10 10 10 10 11 12
34 31 29 25 31 31 30 32 33 33 35 33 29 30 32 36 38 37 38 41 42 41 38 35 32 28 25 22 18 16 15 15 15 14 13 12 11 10 9 9 8 9 10 12
34 32 31 28 32 26 34 40 38 35 35 33 33 33 36 37 38 37 38 39 40 40 39 36 32 28 24 20 18 16 16 15 15 13 12 11 10 9 8 7 8 9 11 12
38 36 31 29 29 31 31 36 35 33 33 37 35 36 35 37 35 35 38 39 40 40 39 36 32 27 22 19 17 16 16 15 14 12 11 9 8 8 7 7 9 10 12 12
37 36 33 32 27 26 28 31 36 37 31 37 36 36 37 37 34 33 37 39 40 39 38 34 29 24 21 18 17 16 15 14 12 11 9 8 8 6 7 9 11 12 12 11
34 35 31 31 29 29 32 32 33 24 26 33 38 38 38 37 36 36 36 37 37 36 33 29 26 23 19 17 16 15 14 13 11 9 9 8 7 7 10 12 12 12 11 11
32 33 30 30 29 24 33 30 26 29 33 34 34 35 36 34 33 31 31 32 31 30 27 24 21 18 16 16 15 13 12 11 9 9 8 7 9 12 13 12 12 12 12 12
32 33 30 32 30 32 35 33 35 35 34 34 35 35 33 32 30 28 26 25 24 23 21 19 17 15 14 14 13 11 9 9 8 7 7 10 12 12 13 12 12 12 13 14
35 36 35 34 33 33 34 35 35 35 35 36 35 34 32 29 26 25 24 23 21 20 18 16 15 13 12 11 10 9 9 8 6 7 10 14 15 13 13 12 12 14 15 15
35 36 35 34 34 34 33 34 35 35 35 34 34 32 29 27 26 24 22 20 18 17 16 15 13 11 10 9 9 8 7 6 7 10 12 13 14 13 13 13 13 16 17 17
34 34 33 32 34 32 31 35 35 34 34 33 32 31 30 27 25 23 20 19 17 16 14 13 11 10 9 8 8 7 7 8 9 10 14 16 13 13 13 13 14 16 17 17

GFSCGP_sfc_30mbdewp_033.txt.gz
Dewpoint
35 33 31 34 34 32 32 32 30 32 33 33 31 31 32 33 33 33 33 34 35 39 40 41 41 41 40 42 46 49 56 59 57 54 52 50 47 44 38 35 32 31 30 28
34 31 33 34 35 34 33 32 28 29 30 31 30 29 29 30 30 30 30 32 34 34 39 41 40 40 41 43 47 52 57 55 55 54 51 48 45 39 34 30 27 27 27 25
30 30 33 32 31 31 31 30 30 29 29 29 28 24 20 21 25 27 29 31 32 33 36 39 40 40 42 46 48 51 54 52 51 45 42 38 36 33 29 25 24 24 23 22
33 34 32 32 31 31 28 30 30 29 28 23 29 17 17 19 20 21 24 27 29 31 33 36 39 40 42 46 51 51 51 49 46 43 42 42 42 37 30 24 22 21 21 21
29 32 33 31 30 32 28 30 29 30 30 28 26 24 20 23 22 22 23 23 27 30 33 37 39 40 43 49 51 51 49 46 43 43 43 44 43 32 23 20 18 18 19 19
31 34 33 31 32 32 32 31 31 32 30 23 23 25 20 20 19 19 21 22 25 31 34 38 40 41 45 50 51 49 47 44 42 42 40 38 34 23 19 18 16 16 17 16
33 34 35 34 31 32 31 31 22 21 21 18 20 24 21 21 22 23 21 21 23 28 35 38 40 43 47 50 50 47 45 43 40 39 37 32 26 22 19 17 16 15 13 13
26 22 33 35 32 29 30 30 22 16 15 15 20 20 19 23 23 22 22 23 26 29 34 38 41 45 47 50 48 46 44 41 39 37 32 27 23 22 19 17 16 14 13 12
27 24 32 34 34 31 31 28 29 25 24 23 21 20 21 22 23 23 23 25 27 27 29 34 42 46 48 49 47 45 42 39 37 32 27 25 23 22 19 16 15 13 12 11
30 24 27 31 35 34 33 32 26 27 17 15 18 20 17 17 15 14 19 31 32 30 30 36 43 46 48 48 45 43 39 36 32 28 25 22 20 17 15 14 12 12 11 11
30 28 25 32 30 27 31 29 30 28 26 17 13 12 15 13 13 15 30 32 35 35 33 38 45 46 45 42 41 37 33 30 26 23 19 17 15 13 12 10 10 10 11 13
31 29 25 24 28 31 28 28 28 24 20 25 22 18 18 19 23 29 24 34 39 40 40 43 42 39 39 37 35 33 29 25 21 18 16 13 12 10 9 9 10 11 12 13
31 29 23 20 27 29 29 29 29 31 28 24 20 15 18 20 20 24 28 36 40 41 39 37 37 37 36 33 30 27 23 19 16 14 12 11 10 9 9 9 10 12 12 13
32 30 24 20 20 28 28 29 31 30 25 23 24 21 20 21 23 25 29 36 41 39 36 36 35 33 31 28 25 21 18 16 14 12 11 10 10 10 10 11 11 12 12 13
33 29 30 30 29 29 31 31 31 29 28 25 24 27 27 27 27 30 36 38 41 39 36 34 32 29 26 23 20 18 15 14 13 12 12 12 11 12 12 12 13 12 13 14
35 30 32 29 32 32 30 32 32 31 31 31 30 29 30 30 33 35 38 39 41 40 37 33 30 27 24 21 18 16 15 14 14 14 13 13 12 12 12 12 11 13 13 13
35 32 30 26 30 32 30 33 35 33 33 31 28 29 31 31 32 36 37 40 42 42 36 32 29 26 22 19 17 15 14 15 14 14 13 13 12 11 11 10 11 12 12 13
34 32 31 28 31 25 35 39 37 36 35 35 34 34 33 32 36 39 38 38 43 40 35 32 28 24 20 18 16 15 15 15 15 13 13 12 11 10 9 9 10 11 12 12
36 34 30 28 28 29 29 32 34 36 34 36 36 35 34 39 38 35 38 40 42 40 35 32 28 23 19 17 16 16 16 15 14 12 12 10 9 8 8 9 11 11 12 11
37 36 33 31 27 24 30 32 35 36 29 37 37 36 37 38 34 34 36 40 40 38 34 30 25 21 19 17 16 16 15 14 12 11 10 9 8 7 8 11 12 12 12 11
34 33 30 30 30 28 31 33 35 23 27 35 39 38 38 39 36 35 36 37 37 35 31 26 24 21 18 17 16 15 14 13 11 10 9 8 8 9 12 12 12 11 11 11
30 31 32 32 28 25 33 31 28 31 33 34 34 37 41 36 32 32 32 32 32 30 26 23 20 18 17 16 15 14 12 11 10 9 8 9 12 12 13 13 12 12 12 12
31 33 30 30 29 32 35 35 35 35 34 34 35 35 36 33 30 29 27 26 25 24 22 19 18 16 15 15 14 12 10 9 8 8 11 12 12 13 13 12 13 13 14 13
34 36 34 34 33 34 34 34 35 35 35 35 34 33 31 29 27 25 24 22 21 20 18 17 15 14 12 12 11 10 9 8 8 11 13 13 13 13 12 13 13 14 15 15
35 36 35 34 34 34 34 34 35 35 34 32 30 29 27 27 25 23 21 20 19 18 16 15 13 12 10 10 9 8 8 9 10 12 13 14 13 13 12 13 14 17 17 18
34 34 33 32 34 33 32 35 35 34 33 31 29 28 27 25 23 21 19 18 16 15 14 12 11 10 8 8 7 7 9 10 11 14 15 14 13 13 13 14 14 17 16 17

GFSCGP_sfc_30mbdewp_036.txt.gz
Dewpoint
37 34 31 30 31 29 30 29 28 29 30 29 28 28 29 30 30 29 30 30 31 33 35 37 39 40 42 42 42 42 44 48 54 57 59 60 60 58 55 51 48 42 38 33
34 31 31 31 32 32 31 29 28 28 28 28 26 24 24 24 24 25 25 25 24 25 28 30 35 38 41 41 42 44 47 51 55 57 57 57 56 52 47 42 39 38 35 28
30 29 31 32 31 31 30 29 27 27 27 26 25 22 20 19 20 21 24 24 25 24 24 25 28 35 39 41 42 45 49 54 56 56 56 53 46 41 38 34 33 31 28 25
31 31 30 31 29 29 25 27 28 26 26 22 27 18 20 20 20 20 20 21 24 25 27 27 27 30 35 40 44 47 51 54 56 55 51 49 50 46 41 36 33 29 28 26
30 32 32 29 29 30 27 29 28 27 26 25 25 25 19 22 21 21 21 21 22 24 25 26 29 30 33 40 46 49 52 54 53 51 51 52 50 46 39 33 26 23 22 21
29 34 32 30 31 31 31 30 29 28 28 23 22 24 18 16 18 19 19 20 20 21 24 27 29 32 34 40 49 51 51 51 51 51 51 52 48 40 33 24 22 22 22 20
30 30 33 33 30 32 31 31 21 21 22 17 17 17 20 17 20 21 19 19 21 22 23 26 33 35 38 41 50 51 50 50 50 50 50 50 43 39 33 24 21 19 18 17
26 25 31 35 31 27 30 28 20 14 10 12 19 17 15 18 20 21 21 22 23 24 27 27 32 38 40 43 48 50 49 48 48 48 47 44 38 31 24 22 19 19 17 16
28 26 30 33 32 30 31 28 28 25 24 21 17 15 17 17 18 20 20 20 24 27 26 29 29 36 42 45 49 49 48 47 46 46 40 32 28 23 23 19 20 16 16 14
30 26 27 31 34 33 31 29 26 27 16 12 12 13 13 15 16 18 18 21 26 28 29 33 32 35 41 46 49 49 47 45 44 41 36 29 25 23 20 19 17 15 13 12
31 27 26 30 29 27 30 29 30 25 22 17 13 12 13 14 14 15 15 24 26 32 34 37 35 38 44 47 49 47 45 42 39 36 32 25 20 20 20 18 16 14 12 13
29 28 24 24 25 27 25 25 26 24 20 24 22 20 20 18 17 22 23 22 28 35 39 41 40 43 46 47 46 44 41 38 34 30 26 21 17 16 16 15 13 12 12 12
30 29 23 20 28 28 27 27 25 28 28 25 23 19 23 21 20 21 21 23 27 37 40 40 41 42 43 44 42 40 36 30 27 24 19 16 15 15 14 12 11 11 11 12
32 29 24 18 19 27 29 29 31 30 25 24 24 23 22 25 25 23 25 26 33 39 39 39 40 41 41 41 38 33 26 21 19 16 15 15 15 14 12 11 11 12 12 12
31 29 28 28 28 28 30 30 32 30 30 26 24 25 29 29 31 29 29 34 37 40 39 38 38 38 38 33 27 22 19 16 15 15 15 15 14 13 12 12 12 12 12 13
34 30 32 29 30 31 31 34 34 33 33 31 31 30 30 30 31 30 29 32 38 40 39 37 36 35 31 25 21 18 16 15 15 16 16 15 13 13 13 12 12 13 14 13
33 32 30 26 30 31 31 35 36 36 36 33 29 30 29 30 31 33 37 38 39 41 39 35 34 30 26 21 19 17 15 16 16 16 15 14 13 12 12 11 12 14 13 14
34 32 31 28 30 25 33 36 37 36 35 36 32 31 32 35 37 39 39 39 39 41 37 34 30 25 22 20 17 16 16 17 16 15 14 12 12 11 10 10 12 13 13 13
34 33 30 27 28 29 30 31 31 35 35 38 36 36 36 37 38 37 38 41 43 39 35 32 27 24 22 19 17 17 17 17 16 14 13 11 10 9 9 11 12 12 12 12
35 35 32 31 26 24 28 32 34 38 33 39 40 38 38 39 35 35 38 42 37 35 32 29 25 23 21 18 18 17 16 16 14 13 11 10 9 8 10 12 13 12 11 10
34 33 29 30 29 29 30 34 35 25 27 34 39 40 39 40 35 36 38 38 39 33 29 26 23 21 18 18 17 16 15 14 12 11 9 8 9 10 12 13 13 12 11 10
31 31 31 32 30 26 33 34 31 33 35 34 35 38 41 36 34 34 34 33 31 29 26 22 19 18 17 17 16 16 14 12 10 9 9 10 12 12 14 15 14 13 12 10
31 32 32 31 29 34 35 36 36 36 35 35 35 37 38 34 33 31 31 29 28 25 24 22 20 18 17 17 15 12 11 10 9 10 11 12 13 13 14 14 15 12 11 9
34 35 34 34 34 35 34 35 35 35 35 35 35 34 34 31 29 28 27 26 24 23 21 20 18 16 15 14 12 10 10 9 10 10 11 12 12 12 12 12 13 12 10 10
34 36 35 35 35 35 34 35 35 34 33 31 30 30 30 29 28 26 24 22 21 20 19 18 16 14 13 11 10 9 9 10 11 13 14 14 13 12 12 12 12 12 13 16
35 34 33 32 34 34 33 35 35 34 32 30 29 28 28 27 25 24 22 20 19 17 16 15 13 12 10 9 9 9 10 11 11 11 12 12 12 12 11 10 9 16 16 17

GFSCGP_sfc_30mbdewp_039.txt.gz
Dewpoint
36 32 30 29 29 29 26 27 25 26 28 28 27 26 26 27 27 28 29 30 30 31 33 34 36 38 38 38 40 41 41 43 45 49 53 57 58 63 63 62 61 56 51 45
34 32 30 29 29 29 29 28 26 26 27 27 25 24 24 24 24 24 24 25 27 27 28 29 32 35 37 38 40 41 41 43 46 51 55 57 60 59 58 57 55 51 46 40
31 29 30 30 30 29 29 27 26 25 26 25 23 22 20 21 22 22 23 24 24 24 24 24 25 29 35 37 39 41 42 44 48 52 56 58 54 49 46 46 46 44 41 34
30 30 29 28 29 28 26 26 25 25 25 22 26 20 20 19 19 20 20 21 21 23 23 24 24 24 26 34 41 43 43 46 51 55 56 57 53 49 45 43 42 39 34 32
30 30 29 28 27 27 26 29 27 27 26 26 24 23 21 17 17 20 21 21 21 22 22 23 25 27 28 30 40 45 45 48 54 56 56 55 50 50 43 40 38 35 32 30
29 31 31 30 29 29 30 28 28 27 27 24 21 20 16 14 11 13 17 20 19 20 21 22 24 26 29 33 39 46 48 51 54 56 53 52 52 46 39 36 33 32 31 28
30 29 30 30 29 30 29 29 22 23 22 17 15 15 16 16 17 17 18 18 20 19 21 20 21 26 29 33 36 46 49 51 54 53 52 52 53 44 40 34 33 31 26 26
26 26 29 32 31 28 28 27 21 14 8 11 17 15 15 16 16 18 19 19 19 21 20 26 27 27 34 36 38 45 49 50 51 52 52 53 48 44 41 36 32 26 26 23
26 26 29 32 31 29 28 27 27 24 21 19 15 14 16 17 16 16 16 17 19 20 23 26 28 31 29 37 40 46 49 49 50 51 52 50 45 42 37 32 26 23 22 20
31 27 27 30 31 31 29 28 25 27 18 13 12 12 12 14 15 15 16 16 19 24 25 28 32 35 30 37 42 46 48 48 49 50 49 46 38 31 25 24 23 21 18 18
31 27 26 29 29 26 29 28 27 24 24 17 15 14 16 18 20 18 15 15 21 23 29 32 36 38 34 38 45 47 48 47 48 45 38 34 29 26 23 21 20 18 17 17
30 29 25 24 25 26 26 27 26 24 19 23 25 22 23 22 22 22 23 23 22 24 26 37 39 40 39 43 47 48 47 46 44 38 32 28 24 22 21 20 19 20 17 16
30 28 23 24 26 25 25 26 25 27 30 26 24 21 23 23 23 26 26 26 22 25 28 38 39 41 43 47 47 46 44 42 38 33 27 24 23 22 20 20 20 16 14 13
30 28 25 20 22 25 29 28 28 32 27 24 25 25 26 26 27 32 29 29 29 28 34 39 40 40 42 45 44 42 39 35 33 28 23 20 19 18 17 17 16 15 14 13
31 28 26 27 27 27 29 30 31 32 32 28 28 29 31 31 30 33 35 33 31 31 36 39 40 40 41 42 40 34 31 30 27 23 20 18 17 16 16 15 14 14 14 14
34 28 32 28 29 29 30 31 33 36 35 34 34 32 34 31 31 31 32 31 30 35 40 39 38 39 39 34 30 26 23 20 19 19 18 18 17 16 16 15 14 15 15 14
33 32 29 26 28 28 30 36 36 36 36 36 30 31 31 31 33 36 38 40 39 39 41 38 37 36 29 25 22 19 18 19 19 18 17 16 16 16 15 15 16 16 14 15
32 32 31 28 28 25 31 33 34 34 37 38 35 35 35 35 38 39 39 40 39 40 38 36 33 29 23 20 18 18 20 20 18 17 16 16 16 14 14 14 15 14 14 14
33 32 30 26 25 26 29 31 31 33 35 39 38 39 38 39 41 39 42 42 42 38 36 31 27 22 20 20 21 20 19 19 18 17 18 17 14 13 13 13 13 13 13 13
32 32 32 27 26 22 27 31 34 39 31 39 39 39 40 40 36 36 41 38 36 32 28 26 24 22 24 26 24 26 26 25 24 20 14 12 11 12 13 14 14 13 12 11
33 32 29 29 28 28 30 32 34 27 28 35 39 40 41 36 35 38 40 37 36 33 33 32 31 30 31 31 29 25 21 16 14 12 11 11 12 13 14 14 13 13 12 11
31 31 30 31 29 27 33 34 32 34 35 34 37 40 36 35 36 35 34 35 32 27 25 24 22 20 20 19 17 15 13 12 11 11 11 12 13 13 16 16 15 13 12 11
30 30 36 35 32 33 35 36 36 36 35 36 36 41 40 37 34 35 34 31 29 25 22 21 20 19 19 19 17 14 12 11 12 12 12 13 14 16 17 17 17 13 11 9
33 34 33 34 34 34 35 36 36 35 34 35 36 36 38 33 32 30 29 29 27 26 22 20 18 16 14 13 12 11 11 12 12 12 13 13 13 13 13 13 14 12 10 8
34 35 33 34 34 34 35 35 35 34 32 32 32 33 33 31 30 29 27 25 24 22 21 19 17 14 12 11 10 11 12 12 12 13 13 14 13 12 12 12 11 10 11 15
34 33 30 29 35 34 34 35 35 33 31 31 31 31 31 30 28 26 24 22 21 20 19 17 14 12 10 10 11 12 13 14 13 12 12 12 12 12 11 9 8 17 14 15

GFSCGP_sfc_30mbdewp_042.txt.gz
Dewpoint
40 38 35 37 37 35 31 27 26 26 27 27 27 27 27 28 27 27 28 29 31 32 34 34 35 36 36 35 37 43 44 44 44 46 54 58 59 62 62 62 61 60 54 52
34 32 32 31 30 29 28 27 27 28 27 26 25 25 26 26 25 25 26 27 28 30 31 31 32 35 37 38 38 38 42 44 44 45 50 55 61 61 62 62 60 55 52 45
31 29 32 32 29 28 29 28 28 26 26 26 25 23 23 23 24 24 24 25 25 25 26 28 29 30 34 36 38 39 41 42 45 47 56 56 53 52 53 53 52 49 46 42
32 32 28 29 29 29 27 28 27 25 25 23 26 22 22 21 21 21 21 23 24 24 25 25 25 26 28 32 37 38 40 43 45 49 56 56 57 56 50 49 47 45 43 38
30 29 30 28 27 28 26 29 28 27 26 26 25 23 22 19 18 18 20 22 22 23 24 24 25 26 26 28 35 39 40 44 46 51 56 56 54 49 47 43 41 40 38 36
30 31 30 30 29 28 30 28 28 28 27 23 24 22 20 15 15 16 18 21 22 22 21 23 22 24 28 31 31 35 44 44 50 54 57 55 51 46 43 40 39 37 35 33
30 30 30 31 29 29 28 27 24 24 22 16 17 22 18 15 16 17 17 18 20 21 20 22 22 24 28 28 33 35 42 46 53 56 56 52 51 45 42 40 39 35 33 31
25 24 29 30 29 28 27 27 23 19 17 19 20 17 16 18 19 17 17 18 19 20 21 22 26 28 30 32 33 35 45 49 54 56 54 52 45 42 40 38 36 34 31 30
25 27 29 31 31 30 27 26 28 24 21 19 16 13 14 16 16 16 17 18 19 20 21 25 28 32 34 35 37 37 46 50 54 54 53 49 44 41 38 36 35 33 31 27
31 26 28 31 30 30 28 28 25 25 17 16 15 14 14 16 21 23 21 19 20 21 25 27 34 37 39 39 37 39 47 50 52 52 50 46 43 39 37 34 31 26 24 22
29 28 26 30 29 28 28 27 26 25 25 19 17 16 20 22 23 24 25 24 23 23 26 28 37 38 41 41 39 42 48 50 51 51 46 35 30 30 30 27 24 21 22 20
29 29 25 26 27 30 28 27 26 22 19 22 24 22 24 23 23 26 25 24 24 23 25 28 39 39 41 40 44 45 48 49 42 38 32 30 26 23 23 22 20 21 21 21
30 27 24 24 26 25 25 26 27 27 28 24 22 20 23 24 26 28 30 28 28 29 29 36 39 40 41 44 47 48 48 39 34 30 27 25 24 24 25 21 22 20 19 17
30 28 26 24 25 27 27 27 26 27 27 24 24 24 26 30 33 35 35 34 34 31 33 36 40 40 40 47 47 43 38 33 29 26 24 24 25 23 20 20 19 17 16 16
30 28 28 28 27 27 27 28 29 32 32 28 30 31 34 37 36 35 33 34 35 35 34 37 40 40 42 44 39 35 33 28 25 24 23 23 21 20 19 18 18 19 17 15
31 28 31 26 27 29 28 30 31 31 32 35 36 34 36 34 32 36 39 39 38 38 39 39 39 40 40 34 30 30 28 26 23 21 20 19 17 17 17 16 17 17 16 15
32 31 28 25 29 30 29 31 33 35 37 36 33 35 36 35 36 39 41 41 41 41 41 38 38 30 27 25 24 21 20 21 20 20 20 20 20 20 21 22 21 22 16 16
31 32 31 27 29 24 31 35 34 33 33 38 38 38 39 39 40 40 41 40 42 40 39 37 31 25 23 21 19 19 19 20 19 20 18 18 18 18 18 18 17 16 16 15
34 33 29 27 25 24 29 32 32 31 32 38 38 38 41 41 41 38 39 34 34 35 32 27 23 20 18 19 21 20 20 19 21 20 21 21 19 18 19 20 16 15 14 13
33 33 32 30 24 21 26 31 36 38 32 36 39 39 41 36 35 35 37 31 27 24 22 21 20 21 22 21 22 24 24 26 28 28 29 30 30 29 22 15 14 14 14 12
32 33 29 29 27 27 30 34 36 29 31 36 38 40 36 35 38 38 37 35 34 31 27 28 30 32 33 34 33 32 32 32 32 32 31 26 19 15 15 15 15 13 12 12
31 30 29 28 27 24 34 35 33 35 36 35 38 41 37 36 35 36 35 35 36 36 36 35 35 36 37 36 34 32 31 31 26 17 14 15 15 16 17 16 14 13 12 11
30 31 33 32 30 33 35 35 36 35 35 36 36 42 39 37 36 33 32 29 22 20 22 25 27 26 22 19 15 12 12 14 14 14 15 17 18 19 19 17 16 13 11 9
33 34 33 34 35 35 35 36 35 34 33 34 36 41 38 35 34 34 32 32 30 29 27 24 21 18 15 14 13 13 13 14 14 14 14 14 14 13 13 14 14 11 10 10
35 35 34 33 34 35 35 35 35 33 32 32 33 36 34 32 30 28 26 25 23 22 19 16 14 12 11 12 12 13 14 14 14 14 15 14 14 13 12 12 11 11 17 15
35 34 33 30 35 35 35 35 35 32 31 32 32 32 31 29 27 25 23 23 21 18 16 14 12 11 11 12 14 15 15 14 13 13 13 14 13 12 10 9 10 17 14 14

GFSCGP_sfc_30mbdewp_045.txt.gz
Dewpoint
45 39 37 37 38 35 34 33 28 28 29 27 27 29 29 29 30 30 30 30 30 31 34 35 35 34 33 33 36 39 44 57 59 60 62 62 61 61 61 61 59 60 57 53
36 34 37 38 38 37 34 30 27 28 28 26 26 25 25 26 27 27 27 28 29 29 30 32 33 34 35 36 36 36 43 48 54 57 59 61 61 62 62 62 61 59 54 52
33 30 32 33 32 29 29 28 28 28 27 26 25 21 22 25 25 26 26 26 27 28 29 30 30 31 31 33 36 37 39 44 44 46 55 56 57 57 59 59 57 53 51 48
32 32 30 31 31 29 27 28 28 27 25 21 27 20 24 20 20 21 23 25 25 26 26 27 27 28 29 30 33 37 38 40 44 48 52 56 58 59 57 55 49 49 47 45
31 30 30 27 29 30 28 29 28 28 27 26 25 22 22 24 19 19 20 21 24 25 25 25 25 26 26 26 27 32 37 39 42 47 52 55 58 55 51 49 46 46 44 42
30 31 30 31 29 29 29 28 28 28 26 21 23 22 16 18 16 18 18 20 22 23 23 24 25 26 27 29 29 32 36 39 42 47 55 55 54 51 49 46 45 43 43 40
29 30 30 31 29 29 29 26 22 21 22 16 22 23 21 19 19 18 17 18 21 21 21 20 22 25 29 30 30 32 34 37 42 49 56 55 52 51 49 45 44 41 38 36
24 22 29 30 30 28 28 26 21 15 19 19 21 20 19 20 21 20 19 19 19 20 20 22 24 30 34 36 36 37 34 38 45 55 55 52 49 49 47 45 43 41 37 36
25 25 30 30 30 29 28 26 28 24 22 19 17 14 15 18 22 23 22 21 22 20 20 23 33 35 36 36 37 39 38 42 52 55 52 47 47 46 44 42 40 40 35 33
31 24 30 31 30 30 26 28 24 23 12 12 17 16 13 17 20 23 24 25 25 24 25 30 36 36 36 37 39 41 39 44 54 53 47 45 44 42 40 38 36 32 30 28
29 26 29 30 28 27 28 27 25 25 24 19 17 17 19 20 23 23 26 27 29 27 24 26 37 39 39 38 41 41 41 49 53 49 45 43 40 38 37 36 32 29 25 25
29 28 25 27 29 30 29 27 25 21 17 23 22 21 23 24 25 26 29 33 31 29 28 36 39 39 39 40 43 44 47 50 45 40 38 36 35 33 31 31 27 23 23 23
29 28 22 24 26 29 28 28 27 26 27 23 21 20 23 24 27 31 36 37 36 35 31 35 39 39 39 41 48 47 42 37 36 33 30 29 27 26 24 22 23 23 23 22
30 28 24 21 25 27 25 26 27 27 26 24 23 23 25 27 33 36 37 37 37 36 35 35 38 39 40 46 42 37 33 31 30 29 27 27 26 24 23 22 22 22 21 21
30 26 28 28 29 28 27 27 28 27 28 27 25 27 31 34 38 38 38 39 39 40 40 37 38 40 42 39 35 31 30 29 29 29 27 27 26 25 23 21 21 21 22 24
31 26 30 25 26 27 27 29 29 29 30 32 33 33 36 38 39 38 41 41 39 39 40 39 40 39 34 33 30 26 28 27 27 27 24 23 23 21 20 20 20 20 20 19
31 28 27 22 27 29 28 30 30 30 33 34 33 35 39 39 40 38 38 37 39 41 41 39 31 27 26 25 25 25 22 22 22 20 19 19 19 21 23 25 24 25 25 25
31 30 30 24 27 22 31 31 33 32 34 36 36 37 38 40 39 38 33 30 31 41 37 28 24 22 20 20 21 21 21 21 20 21 21 22 24 26 26 26 27 27 26 24
34 31 28 26 25 25 30 32 32 32 31 37 36 37 39 39 41 37 32 27 25 23 21 20 19 20 21 21 21 21 21 23 25 25 28 29 29 29 29 29 28 29 28 22
35 34 31 29 24 20 30 31 35 35 29 35 37 39 39 37 35 34 34 29 23 21 22 22 22 22 21 24 25 26 27 28 28 29 31 30 30 31 30 28 22 18 14 14
31 33 29 28 27 27 29 31 38 29 29 35 38 41 36 36 36 36 35 33 31 30 30 29 31 30 30 31 30 31 31 31 33 33 34 34 33 32 30 25 18 14 13 12
30 29 29 31 27 23 30 34 33 34 36 35 39 39 36 37 36 34 35 35 34 33 33 33 33 33 33 35 33 33 32 33 33 32 32 30 26 22 19 16 15 13 12 10
30 31 31 29 27 29 35 35 36 35 35 35 37 40 38 35 33 29 28 27 34 34 34 34 32 32 32 34 34 32 32 31 27 21 19 18 18 18 17 15 14 11 9 9
34 35 34 34 35 36 35 35 34 33 33 34 39 39 37 37 33 31 28 27 26 26 25 25 23 23 19 14 15 18 17 17 16 16 16 16 16 15 15 14 13 11 11 9
34 34 33 33 34 35 35 35 34 32 32 33 36 39 37 35 34 32 30 28 27 23 19 16 14 13 13 13 14 15 15 14 14 15 15 15 15 13 11 11 12 15 15 14
35 34 33 33 34 35 35 35 34 32 32 32 33 32 33 30 28 26 24 23 19 17 15 14 13 13 13 14 15 15 16 15 14 13 13 13 12 10 9 8 9 17 16 16

GFSCGP_sfc_30mbdewp_048.txt.gz
Dewpoint
45 40 37 40 39 35 33 33 31 30 29 27 27 27 28 29 30 30 31 31 31 31 33 34 34 34 34 34 34 37 48 58 61 63 63 62 62 61 61 59 57 58 57 55
41 36 38 41 39 38 36 33 31 29 29 27 26 26 26 26 26 27 27 28 28 30 30 31 33 34 35 35 35 34 40 51 59 62 63 62 62 61 62 61 58 59 56 55
34 31 35 35 36 35 31 28 28 28 28 26 25 20 20 23 25 25 26 27 28 28 28 29 30 31 32 33 34 36 37 43 55 60 61 59 59 59 60 61 60 59 56 55
33 32 32 33 31 30 27 28 28 27 25 21 27 15 23 21 22 23 22 24 26 27 27 28 29 29 30 31 32 33 36 39 46 53 58 60 59 59 60 61 59 55 53 54
30 31 29 29 30 30 28 29 28 27 26 25 24 22 18 22 19 19 20 19 21 25 26 26 27 28 29 29 29 30 33 36 40 46 53 58 58 59 57 55 54 52 51 50
30 32 31 29 29 29 30 27 27 28 25 19 21 22 16 16 18 18 18 18 20 22 23 25 25 26 26 28 29 29 30 32 38 43 50 55 58 55 54 52 51 49 48 47
29 30 30 31 29 30 28 24 20 19 18 12 23 23 20 21 21 21 21 20 20 21 22 21 23 25 29 30 33 33 32 32 35 41 47 52 56 55 54 52 51 47 45 43
26 25 29 30 29 27 27 25 18 10 16 19 22 18 15 22 22 19 21 24 26 25 24 21 24 29 34 36 36 36 36 37 36 37 48 54 54 53 52 51 49 48 45 43
24 25 30 30 30 29 28 24 27 24 21 19 18 17 14 21 24 24 25 27 28 29 29 27 31 35 35 35 35 36 37 37 39 41 52 53 52 51 50 48 46 44 43 40
28 25 30 30 31 30 26 28 23 22 8 8 14 17 11 15 21 24 26 28 30 32 32 31 31 36 37 37 37 39 41 40 40 49 51 50 49 49 47 46 45 42 41 36
30 26 30 30 28 27 28 26 26 23 21 16 15 13 20 19 24 26 27 30 36 37 36 33 28 35 39 39 39 42 43 43 49 50 47 46 45 45 44 44 42 39 36 31
30 28 25 28 29 30 29 27 25 19 16 23 21 18 23 23 24 26 26 34 37 38 37 35 33 39 39 39 41 46 46 48 50 46 44 43 42 42 41 38 37 32 30 30
30 26 22 24 26 30 28 28 27 25 26 21 20 19 23 24 25 26 34 38 38 38 38 37 34 39 39 39 46 45 45 44 42 40 40 40 39 39 36 34 28 27 26 23
30 27 23 19 21 26 25 28 28 26 25 23 22 22 24 26 28 34 38 39 39 40 40 40 40 37 38 44 40 37 35 36 34 37 36 34 32 29 28 26 24 23 22 24
29 26 28 28 28 29 27 27 27 26 26 25 24 26 28 31 34 37 40 41 42 41 41 40 40 39 41 36 32 32 34 35 35 33 31 28 25 25 24 23 24 25 25 26
30 27 29 25 26 27 26 27 28 28 28 28 28 29 32 34 39 39 38 37 35 36 41 42 34 33 31 28 29 31 33 34 34 32 30 30 26 23 24 24 28 28 28 28
29 28 26 20 26 28 25 28 28 29 30 30 29 32 36 37 40 37 34 31 31 32 39 34 26 23 24 26 28 28 29 28 28 27 27 24 24 24 25 27 28 28 29 30
31 29 27 23 26 20 27 31 31 30 30 33 35 37 36 39 39 35 30 27 26 24 24 22 21 21 23 24 25 28 31 30 30 29 29 29 30 31 31 31 31 31 32 32
32 29 28 24 24 25 30 32 31 32 32 36 35 35 40 38 40 36 32 24 23 23 21 22 22 22 22 21 23 24 26 28 29 30 30 31 32 32 31 31 32 32 31 30
34 32 29 29 23 20 27 29 34 34 29 36 36 36 40 37 36 35 33 26 25 23 23 23 22 23 24 25 26 27 28 29 30 32 33 33 33 32 32 32 31 31 30 26
32 32 28 27 26 27 28 30 38 29 29 35 37 39 37 37 37 36 33 32 31 31 31 31 30 30 30 29 30 31 32 32 32 32 32 33 33 32 32 31 29 25 21 14
28 26 28 29 26 22 29 34 33 34 36 35 38 38 38 37 35 35 35 33 32 33 32 33 32 32 34 34 33 32 30 32 32 33 32 32 32 32 30 25 20 14 11 10
28 30 30 31 27 29 32 35 36 35 35 35 38 39 37 36 32 30 32 34 33 34 33 33 32 31 32 34 33 31 31 32 32 32 31 30 26 21 17 14 12 10 10 10
33 34 32 32 33 33 33 35 35 34 33 34 38 39 36 35 30 28 28 29 32 34 34 34 34 29 29 30 32 32 31 31 27 19 18 18 16 15 14 13 13 10 7 8
34 35 34 34 34 35 35 35 35 33 32 33 39 39 38 35 31 28 27 26 25 24 21 18 15 15 15 18 18 18 17 16 15 16 16 16 14 11 11 13 13 13 14 12
34 33 33 33 34 34 35 35 35 32 32 33 37 37 37 35 33 31 28 26 21 17 15 15 14 14 14 15 15 16 16 15 14 14 13 13 10 10 10 12 14 18 16 15

GFSCGP_sfc_30mbdewp_051.txt.gz
Dewpoint
46 40 37 38 38 34 33 32 31 31 30 28 28 27 27 28 28 28 29 32 33 33 33 33 34 34 35 35 35 36 43 57 61 64 64 64 63 63 62 62 61 58 57 56
41 37 39 43 41 38 36 34 32 31 29 28 27 26 27 27 27 27 27 28 28 29 30 31 32 33 34 34 35 34 37 50 60 62 63 62 63 63 63 62 60 58 58 56
36 34 42 40 38 38 36 32 29 28 28 26 25 22 23 23 24 25 26 27 28 28 28 28 29 30 31 33 34 35 36 39 55 62 62 61 60 60 61 61 59 58 58 57
31 32 37 35 35 33 29 29 29 27 26 24 26 18 21 20 21 23 23 23 23 25 27 28 29 29 30 31 32 33 34 37 41 54 61 61 60 59 60 61 61 58 57 57
31 30 32 32 31 30 28 29 28 27 25 24 24 21 15 20 16 18 19 20 20 21 24 25 27 28 29 30 30 30 31 33 37 45 58 60 60 59 59 60 60 56 55 56
30 32 30 29 31 30 30 27 27 28 24 17 21 21 11 15 18 18 21 24 25 26 26 25 23 25 26 27 27 28 27 28 33 39 48 58 59 57 57 57 57 55 53 54
29 30 30 31 29 29 27 24 16 15 17 11 23 22 17 21 23 24 22 26 28 30 32 31 27 23 28 29 30 31 31 30 33 36 42 50 55 57 57 56 56 53 51 50
27 26 29 30 29 28 27 25 16 7 13 18 22 18 15 22 21 21 26 28 30 33 34 34 31 31 34 36 36 36 36 35 36 36 38 46 52 56 56 55 55 53 52 52
25 25 30 30 31 28 27 24 26 22 19 19 18 17 13 23 24 26 26 28 30 35 36 36 33 33 34 35 35 36 36 37 37 37 40 45 51 54 54 54 52 51 49 46
26 24 30 30 30 30 27 28 23 21 6 1 11 15 9 18 21 25 25 26 31 37 38 38 36 34 33 36 38 39 39 40 40 41 43 47 51 52 52 49 48 47 44 43
29 27 29 29 27 27 27 26 25 23 19 13 11 8 19 19 23 24 26 27 35 38 38 38 38 36 35 39 39 39 43 45 44 45 48 48 48 48 47 47 45 44 41 40
30 28 26 27 29 30 29 26 25 19 16 22 20 16 23 24 24 25 27 29 37 39 39 38 39 37 37 39 39 43 45 47 48 47 46 45 45 45 44 44 42 41 39 37
29 24 21 23 25 28 28 28 26 24 24 21 18 16 23 25 25 28 33 36 40 39 41 42 40 40 40 39 41 40 37 38 40 42 42 42 42 42 42 40 36 35 32 29
29 25 22 18 20 26 26 28 28 25 23 21 21 21 23 25 27 31 37 40 41 41 40 41 41 40 39 39 36 35 36 37 38 39 39 39 39 39 35 34 33 30 26 24
29 26 27 27 27 28 28 26 28 26 25 23 23 24 25 26 29 33 39 38 35 34 33 35 40 38 35 31 33 36 37 36 35 33 32 31 29 28 26 25 25 26 27 27
29 27 28 24 26 27 26 27 28 27 27 27 27 27 28 30 36 40 37 32 32 31 31 37 28 27 27 28 29 31 32 32 32 31 28 27 26 27 28 28 30 30 30 30
29 28 26 20 25 28 24 27 27 27 28 27 26 28 34 36 39 38 33 29 28 26 24 22 22 24 26 29 30 29 28 30 31 31 28 29 31 30 30 31 31 31 31 32
29 28 27 24 25 19 24 30 30 28 28 30 30 31 34 38 39 34 31 25 24 24 21 21 22 23 25 29 32 33 33 34 33 32 33 34 32 32 32 32 32 32 32 32
31 29 27 23 23 24 29 33 32 31 31 34 33 35 36 39 38 37 33 24 23 24 25 24 22 22 23 24 27 29 31 32 33 33 34 33 33 32 32 32 32 32 32 32
32 30 30 28 22 19 26 29 35 34 29 35 36 35 38 38 37 37 32 29 27 28 26 27 27 28 27 27 28 29 30 32 32 33 33 33 33 33 32 32 31 32 32 30
31 32 27 26 25 25 28 30 37 28 30 35 36 36 39 37 38 36 33 31 32 32 32 33 33 33 33 32 33 32 32 31 32 33 34 33 32 32 31 31 31 30 28 18
29 27 27 27 26 22 29 35 33 34 36 36 36 38 38 37 35 35 35 32 33 32 32 33 33 33 34 33 33 31 30 32 33 32 32 32 32 33 32 30 24 17 12 10
28 27 27 28 27 28 30 33 36 36 35 34 36 39 38 36 34 35 34 33 33 33 32 32 32 32 34 34 33 31 32 33 33 32 31 31 29 24 18 13 11 10 10 10
32 33 31 33 33 33 33 34 35 34 33 33 35 39 38 36 31 31 31 34 34 34 34 33 32 32 32 33 33 33 33 32 28 22 20 17 15 14 13 13 11 7 7 8
34 34 33 34 35 35 35 36 35 34 33 32 38 39 37 34 31 30 28 28 30 29 31 22 22 24 27 28 28 26 21 18 17 17 17 15 12 11 12 13 12 14 13 11
34 33 33 33 35 34 34 36 35 34 32 32 37 38 38 34 30 29 27 26 24 19 18 19 19 20 18 18 17 16 17 16 15 14 13 12 11 13 14 16 17 18 18 17

GFSCGP_sfc_30mbdewp_054.txt.gz
Dewpoint
45 39 37 38 37 34 33 33 31 32 31 29 30 28 29 29 29 28 28 29 29 31 34 34 34 34 35 35 35 36 37 51 64 65 64 64 63 63 64 63 63 61 58 57
41 36 40 40 38 36 34 33 32 32 30 28 28 26 27 27 28 28 28 28 28 29 29 30 31 32 33 33 34 35 36 40 56 63 64 64 63 63 64 63 63 62 59 57
36 39 43 42 39 38 36 34 31 30 28 26 26 24 23 22 24 24 25 26 26 25 25 27 29 29 30 32 33 34 35 37 48 60 63 61 62 61 62 62 62 61 59 58
33 40 40 39 37 38 33 33 29 27 26 25 26 21 22 21 19 21 21 22 23 24 26 25 25 27 28 29 31 32 34 36 39 57 61 61 60 60 61 62 61 60 59 58
32 37 37 37 36 38 30 29 28 27 25 23 23 20 13 19 17 19 24 27 29 30 31 31 26 25 27 28 29 31 32 34 37 40 58 61 60 60 59 60 61 60 58 58
30 32 30 29 31 30 29 27 27 26 23 17 20 20 9 15 19 20 23 27 30 34 35 35 33 31 31 32 32 30 28 29 32 36 45 57 60 60 58 58 59 57 56 57
29 30 30 31 29 28 27 26 21 13 16 10 23 21 16 20 20 23 25 28 30 35 37 36 35 33 34 34 36 36 35 33 32 32 37 47 56 59 58 58 58 57 55 55
27 26 29 30 29 27 26 25 16 3 10 16 22 18 16 22 20 25 27 28 30 35 38 38 37 35 35 33 34 36 35 35 36 37 36 39 45 53 57 57 57 57 55 55
24 26 30 30 30 28 26 24 24 20 19 18 17 17 12 23 24 26 25 27 28 33 38 39 38 37 36 36 36 37 38 38 39 40 40 40 42 46 52 55 56 55 54 53
26 25 30 30 30 29 27 27 22 20 10 1 6 12 7 18 21 22 25 29 28 33 38 39 38 39 38 36 37 39 39 42 44 45 44 45 46 48 50 52 52 51 49 48
28 27 29 29 27 27 27 26 24 22 18 9 4 4 18 19 23 24 26 30 32 37 39 39 39 40 39 39 40 40 43 43 44 47 47 46 47 48 49 48 47 46 44 44
29 28 25 26 29 30 28 26 24 17 16 20 19 11 22 23 24 25 27 32 38 40 41 41 42 41 41 41 40 41 38 38 40 44 44 45 45 45 46 45 44 42 43 42
28 24 22 24 26 28 28 28 25 23 22 20 16 11 23 24 25 27 30 39 40 39 38 37 39 41 39 37 35 36 36 37 39 41 42 42 43 44 43 43 40 40 37 35
29 24 21 17 19 25 26 28 25 24 22 21 20 18 20 23 25 27 32 39 36 34 32 34 38 35 32 33 35 36 36 36 36 37 39 40 41 39 37 36 35 33 30 28
28 25 28 27 26 27 27 26 27 25 25 21 20 23 23 25 27 29 38 35 32 31 27 28 27 28 28 30 32 33 34 34 32 30 29 29 30 30 29 28 28 28 29 29
29 27 27 24 26 27 27 28 27 27 27 26 26 26 28 28 32 39 37 33 29 28 24 22 23 25 28 29 29 30 31 30 29 30 28 29 30 31 31 31 30 30 30 30
29 28 25 21 25 27 23 27 27 27 28 27 25 26 28 32 37 39 35 31 26 25 22 21 23 25 28 31 32 31 31 31 31 31 31 32 32 32 32 32 32 32 32 33
28 27 27 24 24 17 21 28 29 27 26 28 28 28 30 34 39 35 33 27 23 25 25 22 22 23 25 30 32 33 34 34 34 34 34 34 34 33 33 33 33 33 33 33
30 29 27 22 22 23 28 32 30 29 31 31 29 30 34 39 38 37 33 25 24 24 25 24 25 24 27 27 30 30 31 32 33 33 33 34 34 33 33 32 32 32 32 31
31 29 26 27 21 19 24 29 35 33 29 33 35 35 36 38 35 38 32 30 28 29 28 28 29 30 30 31 32 32 33 33 32 33 33 34 33 32 31 31 31 31 31 31
30 31 26 26 23 24 27 29 35 30 29 35 36 36 38 38 38 35 32 31 32 32 32 33 33 33 33 33 33 32 32 31 33 33 33 33 32 31 32 31 31 31 28 21
28 27 27 27 24 21 30 34 34 34 36 36 35 36 38 38 35 35 33 32 32 32 32 33 33 33 34 34 33 31 31 33 33 33 32 32 32 32 32 30 24 13 12 12
28 27 25 26 23 27 31 33 35 36 35 34 35 38 39 37 35 35 34 33 32 31 32 32 33 33 34 34 33 31 32 33 33 32 31 30 23 17 14 12 11 10 11 11
32 31 31 32 33 33 34 35 35 35 35 34 34 37 38 37 34 34 34 33 33 32 32 33 33 33 32 34 33 33 33 32 28 22 17 15 13 12 11 10 9 7 8 9
33 33 31 32 33 35 35 36 36 35 33 33 35 38 38 36 33 32 33 33 34 33 32 27 30 31 32 32 32 29 23 20 18 17 15 12 12 12 13 15 15 14 11 11
34 34 34 33 35 34 34 35 36 35 34 33 34 38 37 35 32 31 30 30 28 28 22 24 26 25 25 25 23 19 18 17 15 13 11 13 13 15 17 17 18 20 19 19

GFSCGP_sfc_30mbdewp_057.txt.gz
Dewpoint
43 39 35 38 37 32 33 31 31 33 30 30 30 30 30 30 30 30 30 30 30 30 31 33 34 35 36 36 36 37 38 49 63 65 64 63 64 64 64 64 64 62 61 60
40 36 39 39 37 34 32 31 32 32 29 29 28 27 29 29 29 29 29 29 29 27 25 25 28 31 33 34 35 36 36 38 50 62 63 63 63 64 64 63 63 63 61 60
34 37 41 38 38 35 34 32 31 30 28 27 26 24 24 23 23 23 23 24 26 28 29 28 25 27 30 31 33 34 35 37 41 56 63 63 63 62 63 63 63 62 62 60
36 42 41 40 37 37 34 35 30 28 27 25 26 22 24 20 23 26 28 30 32 33 33 33 31 29 29 31 31 33 34 36 38 47 59 61 60 60 61 61 62 62 62 61
34 39 37 36 37 37 35 30 28 26 25 23 23 21 19 19 18 23 27 29 32 35 35 35 34 32 33 36 35 31 31 33 36 40 54 60 60 60 61 62 62 62 61 61
32 37 36 34 40 38 32 27 26 25 23 18 20 20 11 17 19 21 25 28 31 35 38 38 37 36 36 36 37 38 36 32 31 34 41 57 60 60 60 60 60 61 60 60
33 30 30 31 29 29 28 27 21 13 17 13 23 22 18 19 21 23 26 28 29 34 38 39 38 37 38 37 37 37 37 37 37 37 35 39 49 58 59 59 59 60 57 57
27 26 29 30 29 28 26 27 21 5 9 13 22 18 16 22 22 25 27 28 29 33 38 39 39 39 39 39 38 37 38 39 40 41 40 38 40 46 53 58 58 59 59 58
25 27 30 31 30 28 26 25 23 19 18 17 16 18 16 23 22 26 25 30 32 34 38 40 39 39 40 39 39 39 40 41 44 45 45 44 43 43 44 50 55 57 58 56
27 26 30 29 30 29 27 26 21 19 9 3 5 8 6 20 23 22 26 28 32 38 40 41 41 41 41 41 41 41 42 42 42 45 46 46 47 47 48 49 51 53 53 52
28 27 29 29 27 26 26 25 23 21 17 7 3 3 16 17 22 24 26 29 35 40 40 39 39 41 41 40 40 40 38 39 40 42 44 45 46 46 47 48 49 49 48 48
29 28 26 26 29 29 28 26 22 17 17 19 18 8 20 21 24 25 27 30 40 39 37 35 36 38 36 35 36 36 37 38 40 41 43 44 44 45 46 46 46 45 46 45
27 24 23 25 26 28 28 27 24 21 22 19 14 7 22 24 25 25 28 38 37 34 31 34 34 31 32 34 36 36 36 35 36 39 41 42 43 43 42 42 41 41 41 40
28 24 21 18 20 26 26 27 24 23 21 20 19 15 18 20 24 27 32 37 33 32 28 27 27 28 29 31 32 32 32 32 31 31 33 35 37 37 35 35 33 30 29 28
28 25 28 26 26 27 26 27 26 24 24 21 18 20 21 24 26 28 37 35 32 29 25 23 25 27 29 29 30 31 31 30 30 30 31 31 32 33 33 32 33 33 33 33
29 27 27 24 26 27 27 28 27 26 26 25 25 25 27 28 29 37 37 33 29 27 24 22 24 26 29 31 31 32 31 32 31 32 31 32 32 33 34 34 34 33 33 33
28 27 24 21 25 26 24 26 27 27 28 27 25 25 28 29 32 39 36 32 27 25 25 23 23 25 30 32 33 34 34 34 34 34 34 33 33 32 33 33 34 34 34 35
28 26 26 24 23 17 20 28 28 27 27 29 28 28 29 29 38 35 34 28 24 25 26 22 23 24 27 31 32 33 34 34 34 34 34 34 34 33 33 33 33 33 33 33
30 28 25 22 20 21 28 30 29 28 31 29 28 28 29 37 38 37 32 26 24 24 24 25 26 27 28 29 31 32 34 35 34 33 33 33 33 33 32 32 32 32 32 31
30 29 25 25 21 17 23 29 35 33 30 32 33 33 35 38 34 36 31 29 29 29 29 30 30 31 31 32 32 33 33 33 33 33 33 34 33 32 31 31 31 31 31 30
29 30 25 24 22 21 25 27 33 31 30 34 36 36 36 38 37 35 32 31 32 32 32 33 33 32 33 33 33 32 32 31 32 32 33 32 32 32 32 31 31 29 24 21
26 26 25 25 22 17 29 36 34 35 35 35 35 36 37 38 35 33 32 32 32 31 32 33 33 33 34 34 34 32 31 33 33 33 32 32 32 32 28 19 14 13 13 13
28 27 25 24 22 25 30 34 34 35 34 34 34 35 39 37 35 35 33 33 32 31 31 32 33 33 34 34 33 32 32 33 33 32 27 18 15 13 13 12 12 11 12 11
32 31 29 31 32 31 32 35 35 35 35 35 35 36 38 37 36 35 33 33 32 32 31 32 31 33 32 34 34 34 34 32 24 17 14 13 12 10 9 9 9 8 8 8
32 32 30 31 32 33 35 37 36 36 35 33 34 36 37 37 35 35 33 33 33 33 32 33 33 33 33 34 33 29 25 20 16 15 14 13 11 13 15 15 13 11 10 11
34 34 33 33 34 34 35 35 37 36 35 34 33 36 38 37 34 34 34 34 33 33 26 30 31 32 31 30 27 22 20 17 14 11 11 13 15 17 18 19 20 21 21 21

GFSCGP_sfc_30mbdewp_060.txt.gz
Dewpoint
42 39 36 35 32 28 28 28 25 29 30 30 30 31 32 32 31 30 30 29 29 31 31 31 31 32 33 35 36 37 37 39 46 56 64 64 64 64 64 64 64 63 62 61
38 36 38 36 35 32 29 26 26 32 31 30 29 29 30 30 30 30 29 29 28 28 27 27 26 28 30 31 33 35 37 38 39 46 58 62 62 63 64 64 64 64 63 62
33 35 36 36 35 32 30 26 30 28 29 28 27 26 26 23 23 24 25 28 31 31 30 31 29 30 31 31 32 33 35 37 38 41 47 56 60 61 62 63 63 63 63 64
36 39 37 35 33 31 30 33 32 29 29 25 27 15 23 22 26 28 31 33 35 35 34 34 34 34 35 38 38 35 35 35 37 40 42 50 56 57 58 58 61 62 63 63
33 36 38 36 34 35 34 34 31 28 27 25 23 22 19 21 23 26 29 32 35 38 38 37 37 37 38 40 41 40 36 33 35 37 41 46 53 54 55 57 59 60 62 62
35 41 38 38 41 36 29 28 27 27 26 23 21 21 13 17 20 24 27 30 33 37 39 40 39 39 40 42 41 40 38 38 37 35 38 42 47 52 55 57 59 60 61 61
32 34 37 40 34 37 33 28 26 23 24 20 22 19 15 19 20 24 30 32 33 37 40 41 40 40 41 42 42 40 39 39 40 40 39 36 40 47 54 56 57 58 59 60
30 27 34 36 31 30 29 29 25 14 11 13 22 17 16 22 23 26 27 31 35 38 40 41 41 41 42 42 42 41 41 40 43 43 44 43 41 40 42 46 51 53 55 57
28 29 30 31 30 29 28 28 24 21 20 17 15 18 20 22 22 25 26 30 34 39 41 41 41 41 42 42 42 42 41 42 41 43 45 45 46 46 45 45 46 49 52 55
29 28 30 29 30 29 28 27 24 25 14 10 9 8 11 20 22 25 27 31 35 40 40 38 38 41 41 40 40 41 40 40 41 43 44 45 47 48 48 49 49 49 50 52
29 28 30 30 29 27 26 26 24 21 18 12 1 3 17 23 24 25 27 31 38 39 37 37 39 38 37 38 38 38 39 40 41 42 44 46 46 47 48 48 48 49 50 50
29 29 26 27 29 30 28 26 23 20 20 20 20 9 17 21 25 25 28 34 39 36 35 37 35 34 35 36 37 37 37 37 38 41 43 44 45 46 46 47 46 47 47 47
28 27 24 25 27 29 28 27 25 23 24 23 17 10 22 23 24 25 29 37 37 35 33 32 32 32 32 34 34 35 34 33 34 36 38 39 40 40 40 39 39 40 41 41
28 26 23 18 23 28 28 28 25 25 24 20 19 16 20 23 22 27 32 38 36 33 30 30 30 30 31 32 33 33 33 32 32 34 35 35 35 34 33 35 34 32 31 30
29 26 28 26 26 27 27 28 26 25 26 23 21 20 19 22 26 28 35 37 34 31 28 28 29 30 32 32 33 33 33 32 33 33 33 33 34 34 34 34 34 35 35 34
30 28 27 25 26 27 27 27 28 27 26 26 25 25 26 27 28 33 38 36 32 28 26 26 26 29 32 34 35 35 34 33 33 33 32 32 33 33 34 36 35 35 36 37
28 28 26 23 26 26 24 27 27 28 28 27 26 26 27 27 29 36 38 35 30 27 27 26 26 27 31 33 34 34 34 35 35 34 33 33 33 33 34 34 34 34 35 35
28 28 27 24 24 19 23 29 28 27 27 28 28 27 28 29 35 37 36 33 28 27 27 25 25 27 29 31 32 33 35 35 35 35 34 34 34 34 34 34 33 33 33 32
29 28 26 23 21 21 25 29 28 29 31 29 28 28 30 32 39 38 34 29 27 26 26 26 27 28 29 30 32 33 34 34 35 34 34 34 34 33 33 32 31 31 31 31
30 30 26 25 22 16 26 31 34 31 30 34 31 32 34 38 36 38 34 29 29 28 28 29 29 30 31 31 32 33 33 33 33 33 33 34 33 32 31 31 31 31 31 30
29 29 26 24 23 21 23 27 30 31 31 35 36 36 36 36 39 37 33 32 31 31 31 31 31 31 32 32 34 33 33 32 33 33 33 33 33 32 32 32 31 28 24 22
25 25 25 24 23 19 27 35 34 36 36 35 35 36 36 39 35 34 33 32 32 31 31 32 31 32 33 35 34 33 32 33 34 34 33 33 33 29 24 19 16 14 13 12
26 26 25 25 22 25 30 33 33 34 33 35 35 36 37 38 35 34 33 33 32 32 31 32 33 33 34 35 35 33 33 34 33 31 25 19 14 13 14 14 13 11 11 9
31 31 28 29 30 28 28 31 35 36 36 36 36 35 38 38 37 35 34 33 32 32 31 31 32 34 33 35 35 34 34 32 26 17 13 12 11 10 9 8 8 6 5 4
32 32 30 30 31 33 34 36 38 37 36 35 34 35 37 38 37 36 34 33 33 32 32 31 34 33 34 35 35 33 30 23 15 13 13 11 10 10 12 14 11 9 12 12
34 32 30 27 32 34 35 37 38 37 36 36 34 35 38 38 37 36 34 34 33 33 33 34 34 34 34 34 31 29 25 18 13 11 11 11 13 15 17 17 19 22 22 22

GFSCGP_sfc_30mbdewp_063.txt.gz
Dewpoint
41 39 34 32 31 24 21 24 20 21 31 30 26 26 25 28 30 28 28 26 25 26 28 31 32 33 33 34 36 36 36 37 39 46 52 64 65 65 64 65 64 63 62 60
38 36 37 33 30 27 26 24 24 28 28 28 24 26 28 29 29 28 27 28 27 28 29 28 28 28 29 30 33 34 36 37 38 40 45 59 62 63 64 65 65 65 64 63
35 37 40 39 33 29 25 24 23 25 30 29 26 25 25 26 26 25 25 26 28 29 29 30 31 32 33 33 34 33 34 36 38 40 41 46 59 60 62 64 64 64 64 64
35 39 38 38 34 29 25 26 24 29 27 18 26 8 23 24 25 26 28 30 32 32 33 34 34 35 36 40 42 37 35 35 36 39 40 41 46 54 57 57 59 61 62 62
35 37 36 37 36 31 31 32 31 30 29 27 25 21 21 23 24 26 29 32 35 36 36 36 37 38 40 43 43 41 39 35 35 36 38 40 41 47 53 55 55 56 58 61
34 39 38 40 38 35 35 32 30 29 28 26 23 21 18 20 22 25 27 30 33 36 38 39 39 40 41 43 43 42 39 38 39 38 37 38 41 44 50 52 54 56 58 60
32 32 37 39 34 34 32 31 28 27 26 22 21 20 17 18 22 25 27 30 33 36 38 40 40 41 42 43 43 42 41 39 41 42 41 38 37 41 45 50 53 55 56 58
30 27 32 37 36 34 34 33 28 20 18 19 21 17 16 20 21 28 29 32 35 38 39 41 41 42 42 43 43 43 42 41 42 42 43 42 43 41 40 40 43 48 51 52
31 29 36 37 33 36 33 31 27 22 19 16 14 17 21 22 22 25 27 31 35 38 40 39 39 39 42 41 41 42 42 40 41 42 43 43 44 46 47 47 46 45 45 49
29 28 32 30 30 29 30 29 26 28 18 10 12 10 12 19 22 24 27 31 35 39 39 38 38 40 39 39 39 40 40 40 41 42 43 44 46 47 47 48 49 49 50 50
29 28 30 30 30 28 27 27 25 23 18 14 1 4 17 19 20 25 28 31 37 39 37 37 39 37 38 39 39 39 38 39 40 42 43 44 45 46 47 47 47 47 48 49
30 29 27 28 29 30 28 26 24 20 19 20 21 12 19 23 25 26 28 33 38 37 36 37 36 35 36 36 36 37 36 35 36 38 40 41 42 42 42 40 41 42 43 44
28 29 24 24 27 28 28 27 25 23 25 25 18 14 21 24 25 25 29 35 38 37 34 34 33 33 34 34 35 35 34 34 35 36 37 38 37 37 37 37 35 34 33 32
27 26 25 19 26 28 27 27 27 28 25 20 19 16 19 22 24 24 30 36 38 35 32 33 33 33 33 33 35 35 34 34 34 35 36 36 36 35 35 35 35 35 34 33
28 26 25 25 25 27 28 28 27 27 26 23 22 19 19 22 24 28 32 37 36 33 31 30 32 32 33 34 35 35 35 34 34 34 34 34 35 36 36 36 36 36 35 35
29 28 29 26 26 26 27 27 28 28 27 25 25 24 24 24 27 31 34 38 36 32 30 28 29 31 34 35 36 36 35 35 35 34 33 33 34 34 35 35 36 36 36 36
28 30 27 22 25 25 24 26 27 28 28 27 26 25 27 26 29 31 38 38 36 31 29 29 28 29 32 34 35 34 35 35 35 34 33 33 33 34 34 35 35 34 34 34
28 28 28 24 25 20 27 28 28 27 27 28 27 26 27 27 30 38 38 38 33 29 30 28 28 29 31 32 32 34 35 35 35 34 34 34 34 34 35 34 33 33 33 33
29 26 25 23 21 21 20 27 27 28 30 28 27 27 28 30 37 39 37 33 31 29 28 28 28 29 30 31 32 33 33 34 34 34 34 35 35 33 33 32 32 32 32 32
30 29 27 26 22 18 28 31 32 31 30 34 31 31 33 35 36 39 36 31 30 28 28 29 29 30 30 30 32 33 33 34 33 34 34 35 34 33 32 32 32 32 32 31
27 29 26 25 23 23 24 33 29 30 32 35 36 36 35 36 38 39 35 32 32 31 31 31 30 30 31 32 34 33 34 32 34 34 34 34 34 33 32 32 32 29 25 23
25 24 24 24 23 21 26 32 28 36 36 35 35 36 36 37 37 35 34 33 33 32 32 31 31 32 33 34 33 32 33 34 35 35 34 34 33 29 24 20 17 15 13 12
24 24 24 24 23 26 30 33 33 35 37 37 36 36 36 39 36 35 34 33 33 32 32 32 33 33 33 35 35 33 34 35 34 32 28 20 15 15 16 16 14 10 9 6
28 28 26 27 28 27 27 31 34 37 36 36 36 36 37 38 38 36 34 33 33 32 31 32 32 33 34 35 36 34 34 33 29 21 14 12 12 11 10 8 8 5 4 4
31 31 29 28 29 32 35 34 37 37 37 36 36 35 36 37 38 37 35 34 33 32 31 31 32 33 34 35 35 34 33 28 19 13 12 12 10 9 11 14 12 10 17 17
31 30 30 27 29 30 34 38 38 37 37 37 36 35 37 37 38 38 36 35 34 32 31 31 34 33 35 35 34 33 29 22 14 12 11 11 13 13 15 17 20 24 23 22

GFSCGP_sfc_30mbdewp_066.txt.gz
Dewpoint
42 37 35 36 37 33 29 28 26 26 30 31 31 31 30 28 30 30 29 27 27 28 28 31 32 32 32 33 35 36 37 38 40 41 50 65 65 65 65 65 65 66 62 61
39 34 35 36 36 34 30 26 25 25 31 30 29 28 27 27 30 30 29 28 27 27 29 29 29 28 29 30 33 35 36 38 38 40 41 55 65 65 64 64 64 65 65 64
32 34 36 33 31 32 27 25 23 25 29 29 26 24 26 28 28 27 27 27 27 29 29 30 32 34 37 41 41 38 36 36 37 40 42 43 62 63 63 63 63 63 64 64
34 39 37 38 36 32 29 25 25 27 28 23 27 13 23 26 25 25 25 26 30 31 33 34 36 37 40 43 44 43 37 36 36 37 39 41 42 50 60 62 64 64 64 64
35 37 37 34 35 35 27 28 28 30 27 26 25 23 21 25 23 25 27 32 34 34 35 36 38 40 43 44 44 43 41 38 37 36 38 39 40 42 44 53 57 58 59 63
35 39 39 38 39 41 35 32 31 30 29 26 26 22 21 22 24 27 31 33 35 37 38 39 40 40 43 44 45 43 42 40 41 41 39 38 40 40 42 47 53 54 56 58
34 33 36 40 35 38 36 29 26 25 26 24 22 23 22 22 25 27 28 31 34 37 39 40 41 42 43 44 44 43 43 42 42 42 43 43 41 39 40 42 46 50 55 57
29 26 34 37 37 35 33 31 27 18 21 21 21 20 18 22 26 27 30 33 35 38 40 41 41 41 42 42 42 42 43 42 42 42 43 44 46 47 47 48 47 46 45 47
30 29 36 37 37 37 35 32 28 23 18 18 19 19 21 21 27 28 28 32 36 39 40 39 39 41 40 39 40 40 40 41 42 43 43 45 46 47 48 48 49 49 50 50
32 28 35 36 39 36 37 35 26 26 13 12 14 16 15 20 24 25 28 31 36 39 39 38 39 38 38 39 40 39 40 40 41 43 44 45 46 47 47 48 47 47 48 49
30 29 31 33 33 32 33 32 29 24 21 17 10 10 19 21 23 24 28 32 37 39 37 38 38 37 38 38 38 37 37 37 38 40 42 42 41 42 41 39 40 40 42 43
31 29 26 28 29 29 29 27 27 22 20 20 20 15 20 21 24 27 29 33 39 38 36 37 36 35 36 36 36 36 35 35 36 38 38 38 37 38 37 36 35 34 33 33
29 29 24 25 28 28 28 28 27 25 26 24 21 15 23 25 25 25 29 35 38 37 35 35 34 34 34 35 35 35 34 35 35 36 37 36 36 35 35 35 35 35 33 33
29 26 25 22 27 29 27 27 27 26 22 23 21 17 22 24 24 24 31 36 38 37 34 34 33 33 33 34 35 35 35 35 35 35 35 35 36 36 36 36 36 35 35 34
30 26 26 25 25 28 29 28 28 26 26 22 23 19 18 21 24 26 33 37 37 35 32 31 32 33 34 35 36 36 36 35 34 34 34 35 35 36 36 37 37 35 35 36
31 27 28 23 26 26 26 27 28 28 28 27 27 25 26 26 27 30 34 37 37 35 31 29 30 32 34 35 36 35 35 36 35 34 33 34 34 34 34 34 34 35 35 35
28 29 26 23 25 25 21 26 27 28 29 28 25 26 27 27 29 31 37 39 38 34 30 29 29 31 34 34 35 34 35 35 35 34 33 33 33 33 34 34 34 34 34 34
28 29 28 25 25 18 26 28 28 28 28 28 28 28 27 27 31 36 39 39 35 31 30 28 29 30 32 33 33 35 35 35 34 34 33 33 34 34 33 33 33 33 33 32
29 28 26 24 22 22 26 26 26 27 28 28 28 28 28 33 36 37 38 34 31 30 30 28 29 30 31 31 33 34 34 33 34 33 33 33 32 33 33 32 31 31 31 31
30 29 27 25 21 20 30 29 31 30 30 33 29 28 30 35 33 39 35 31 29 28 28 28 29 30 30 30 33 33 33 34 34 34 34 34 34 33 32 32 31 32 31 30
28 28 26 25 23 23 31 33 31 30 32 36 36 35 35 35 39 38 33 32 30 30 30 30 30 30 31 33 34 32 33 33 34 35 35 34 33 32 32 32 31 29 26 24
24 26 26 25 25 19 31 30 28 36 35 36 36 36 36 38 37 35 34 33 32 32 32 31 31 32 33 34 33 33 33 35 35 34 34 34 33 32 30 25 23 17 14 13
24 25 24 24 25 28 29 33 34 36 37 36 36 37 37 38 37 35 34 34 33 33 32 32 33 33 33 34 34 33 34 35 34 33 31 25 21 19 19 16 14 10 8 5
28 28 26 26 27 27 27 32 36 37 37 36 36 36 36 38 38 36 34 34 33 33 32 33 33 32 33 35 35 35 35 34 32 27 16 13 13 13 12 10 8 6 6 5
30 29 28 28 28 30 35 32 34 37 37 37 36 35 35 36 38 37 35 34 33 33 32 32 32 32 33 35 35 34 34 33 26 14 12 12 12 8 14 21 19 14 21 20
31 31 30 29 32 32 37 38 38 38 37 37 36 36 36 37 37 38 36 35 34 33 32 32 32 33 33 34 34 34 33 28 15 13 12 12 11 13 17 19 22 24 23 22

GFSCGP_sfc_30mbdewp_069.txt.gz
Dewpoint
43 38 35 35 37 35 34 33 30 31 32 32 32 32 32 32 29 30 30 30 28 27 29 30 30 29 30 30 32 34 36 37 44 58 64 64 64 64 64 65 65 65 65 64
39 35 36 37 38 36 32 31 30 28 28 32 31 31 33 32 30 29 30 29 29 28 28 29 29 31 36 39 39 37 36 36 38 41 43 63 65 65 65 65 65 64 64 65
36 35 37 37 36 36 34 31 29 26 30 30 28 29 30 30 29 30 30 29 28 29 30 32 36 39 40 41 42 41 37 35 36 37 40 42 62 63 64 63 63 64 64 64
37 37 35 35 34 33 30 31 29 28 28 27 27 21 23 27 27 27 26 26 27 31 33 36 37 39 41 43 43 42 41 36 36 37 37 39 41 44 56 61 63 63 63 63
35 37 36 36 35 38 33 32 28 29 27 26 25 22 20 25 26 25 25 26 31 32 35 37 38 41 44 44 44 43 42 40 40 38 37 38 39 41 43 45 51 60 63 64
36 39 39 38 39 40 41 33 30 30 29 24 26 24 20 24 25 25 27 34 35 37 37 39 40 43 44 45 44 44 43 42 43 43 43 42 39 39 40 42 44 49 54 57
33 34 38 39 34 37 38 34 27 24 25 21 25 25 22 24 25 26 32 34 36 38 40 41 42 43 43 43 42 43 43 42 42 43 44 46 47 47 46 47 46 46 47 50
27 27 36 37 36 33 34 31 22 17 20 22 22 23 23 22 26 30 33 34 36 40 41 41 41 42 40 40 40 41 41 41 42 43 44 46 47 47 48 48 49 49 49 50
28 28 36 37 38 37 35 32 30 23 21 20 20 20 20 27 28 29 32 35 38 40 40 39 40 39 39 39 40 40 40 41 42 43 45 46 47 47 47 47 47 47 48 48
34 27 35 37 39 38 37 36 27 26 18 16 18 17 17 25 27 29 31 33 38 40 38 39 39 38 39 39 39 38 38 38 39 42 42 41 42 41 40 39 38 39 40 41
35 31 32 35 33 33 34 33 31 26 23 17 12 13 19 23 27 27 29 33 38 39 37 38 37 38 38 38 37 36 35 36 37 39 38 38 38 38 37 36 35 34 34 34
31 29 28 29 36 35 34 33 32 23 21 19 20 16 21 22 26 26 29 35 39 37 37 37 36 37 36 36 36 35 35 35 37 37 37 36 36 36 35 35 35 34 33 33
30 28 25 25 27 29 28 28 33 28 26 23 17 16 22 25 26 29 31 37 38 37 36 35 35 35 35 35 35 34 35 35 36 36 36 36 36 36 36 35 35 34 34 34
30 28 25 19 24 27 26 27 28 25 23 22 22 20 23 25 26 26 30 34 38 37 35 34 33 33 34 35 35 35 34 35 35 35 35 36 36 36 37 36 36 36 36 36
30 25 25 25 26 29 28 27 28 25 24 20 22 20 23 25 25 25 29 37 38 35 33 33 33 33 34 35 35 36 35 35 34 34 35 35 35 35 36 36 36 35 36 36
31 27 26 22 26 26 25 28 28 28 27 25 26 25 26 24 25 31 33 37 36 35 32 31 32 34 35 36 36 35 35 35 34 34 34 34 34 35 34 35 35 35 35 34
30 27 23 21 26 25 21 25 26 28 29 27 25 25 27 26 29 32 35 37 37 37 32 29 30 33 35 35 35 35 35 35 34 34 33 34 34 35 35 35 34 34 33 33
30 28 27 24 24 13 15 29 27 27 29 29 29 27 27 27 30 35 39 39 38 35 31 29 30 33 34 34 35 35 35 35 34 33 33 34 35 34 34 34 33 32 32 30
29 28 24 23 23 20 26 26 26 27 26 30 29 29 29 33 35 35 38 37 36 31 30 29 30 31 32 33 34 34 34 34 34 33 33 33 34 34 33 32 31 32 31 30
30 29 25 25 21 19 28 28 30 30 29 34 30 29 29 35 28 31 35 31 30 30 29 29 30 31 31 32 34 33 33 33 33 33 33 33 34 33 32 32 31 31 30 30
28 28 27 26 22 23 26 33 33 29 29 36 31 29 31 33 34 38 33 30 29 29 29 29 30 30 31 33 33 33 34 34 35 35 35 34 34 32 31 31 30 28 25 23
25 23 25 26 25 20 32 30 30 34 35 36 36 36 37 38 37 34 33 31 31 30 31 30 30 31 34 34 33 34 33 35 35 35 34 33 32 33 31 27 26 25 20 18
23 26 23 25 23 27 31 32 36 37 37 36 37 37 38 38 37 35 34 33 32 32 32 32 32 33 33 34 34 33 34 35 34 33 33 33 31 26 22 17 14 11 11 7
27 28 26 25 26 27 29 33 37 38 37 36 37 36 37 38 38 36 35 34 33 33 32 33 33 32 33 34 33 35 35 35 34 32 29 21 18 17 16 12 10 6 5 6
28 29 27 27 29 29 30 31 35 37 37 36 35 35 35 37 38 37 35 34 33 33 32 33 32 32 33 34 34 35 34 34 32 27 16 13 14 12 12 17 10 15 20 14
32 31 28 27 30 30 35 38 37 37 37 37 37 36 36 36 37 38 36 35 34 33 32 32 32 32 33 35 34 33 33 34 30 16 13 12 11 11 16 22 24 24 23 22

GFSCGP_sfc_30mbdewp_072.txt.gz
Dewpoint
43 38 34 35 36 34 35 33 32 33 33 33 34 33 33 32 32 30 31 31 30 28 29 31 31 30 31 36 35 35 36 38 56 63 63 63 63 63 63 64 65 65 65 63
40 35 36 37 37 35 35 33 31 30 31 32 32 32 33 33 33 30 30 31 30 28 29 29 32 37 38 39 40 37 36 36 38 43 49 63 64 64 64 64 64 64 64 64
35 35 37 37 37 35 35 32 30 29 30 30 30 30 31 33 32 31 31 30 30 29 29 33 36 38 40 41 42 41 40 36 36 37 40 43 60 63 63 63 63 64 64 64
36 37 36 36 36 36 33 33 32 28 28 26 28 24 24 31 31 31 30 29 28 29 32 35 37 39 40 42 43 41 40 38 37 37 37 38 40 48 57 56 59 61 63 63
35 36 35 36 35 35 32 37 31 30 28 27 26 25 24 22 27 29 29 27 28 32 35 37 39 42 44 44 44 43 42 42 43 43 39 39 39 41 43 43 45 51 56 61
37 38 38 37 39 39 39 31 31 31 30 25 25 24 22 20 23 26 26 26 30 33 37 39 42 44 44 44 44 43 43 43 43 44 45 45 41 40 41 43 43 45 50 52
35 35 38 37 34 36 37 30 27 26 26 24 25 24 22 24 25 26 27 30 35 36 38 40 42 43 43 42 42 42 41 42 43 44 46 46 47 47 47 48 48 48 49 50
29 27 35 37 35 32 35 33 25 19 21 20 23 22 23 24 24 27 30 35 37 39 40 41 42 42 40 40 40 40 41 42 43 44 46 47 47 47 48 47 47 47 48 49
28 28 36 37 38 35 34 32 33 22 21 20 20 21 21 26 27 31 34 36 38 40 41 40 41 39 39 40 40 40 41 41 43 45 44 43 44 43 42 41 42 43 42 44
32 27 34 36 39 38 36 37 28 26 17 16 19 19 19 25 27 31 33 35 39 40 39 40 39 39 39 39 38 38 38 38 40 40 39 39 38 37 36 35 35 35 34 36
35 29 31 36 33 31 34 32 32 27 22 17 14 15 19 23 28 31 33 37 39 39 38 39 38 39 39 37 36 35 36 37 38 38 37 36 36 36 36 35 34 34 33 33
32 30 27 30 36 37 35 34 30 24 24 20 19 14 21 22 28 31 32 36 39 38 38 38 37 38 37 36 35 35 35 36 37 37 36 36 36 36 35 34 34 34 34 34
31 27 26 27 30 34 33 35 35 30 25 20 16 13 23 24 27 29 30 35 39 37 38 36 36 36 35 35 34 34 35 36 36 36 36 36 36 36 36 36 36 36 35 35
30 28 23 21 22 28 27 29 34 34 28 24 23 20 21 25 26 28 33 37 38 37 37 36 34 35 35 35 34 34 34 35 35 35 36 36 36 37 36 36 36 36 36 35
29 24 25 25 28 28 27 27 29 30 30 27 27 23 21 25 26 28 31 35 38 37 36 35 34 34 34 35 35 35 35 34 34 35 35 35 35 36 36 35 35 35 35 35
31 27 26 24 26 25 25 27 28 27 26 25 24 25 27 25 26 26 27 33 36 37 35 34 33 33 34 35 35 35 35 34 34 34 34 34 35 35 35 36 36 35 34 35
29 26 23 19 26 24 21 24 25 28 29 27 25 25 27 26 25 27 29 33 37 36 33 32 33 34 35 36 35 35 35 34 33 33 34 34 35 35 35 35 34 33 33 33
29 26 25 23 24 18 20 28 26 25 27 29 28 27 26 27 28 29 35 36 37 38 35 30 31 34 35 35 35 35 35 35 34 34 34 35 34 34 34 33 33 32 31 31
30 29 24 22 23 21 21 27 27 26 24 29 29 29 28 30 33 34 38 39 38 38 34 31 31 34 34 35 35 35 34 34 34 34 34 34 34 34 33 32 31 31 30 29
29 29 23 25 21 16 22 28 29 30 26 32 30 29 29 34 28 29 37 35 35 32 30 30 31 32 33 34 34 34 34 33 33 34 33 33 35 34 32 32 31 30 29 29
29 29 26 24 24 22 25 30 32 26 26 35 33 31 30 32 31 35 35 31 31 30 30 30 31 31 32 34 34 33 33 34 34 34 34 34 34 33 32 31 30 29 27 28
27 27 27 28 25 20 30 31 29 32 36 36 33 33 32 35 37 35 33 30 29 29 30 30 30 30 33 33 33 33 33 35 35 35 34 34 33 33 31 29 28 24 21 20
24 24 24 26 25 26 30 30 31 37 36 36 36 37 39 38 36 34 33 31 30 31 31 31 31 32 33 33 33 33 35 35 35 34 33 32 32 32 29 25 23 18 15 13
26 27 26 25 25 26 28 32 36 37 37 37 37 37 38 37 37 36 34 33 32 32 31 31 32 32 32 33 34 35 35 35 33 33 32 32 31 25 21 17 14 10 7 6
26 28 26 26 27 30 29 31 35 37 37 36 36 36 36 38 38 37 36 34 33 32 32 32 32 32 33 34 33 35 35 35 32 32 31 25 20 20 14 10 9 9 13 8
31 29 27 26 28 28 29 35 34 37 36 36 36 36 36 36 36 38 37 35 34 33 33 32 32 32 33 34 33 34 35 34 33 30 24 16 14 14 15 20 22 22 23 24

GFSCGP_sfc_30mbdewp_075.txt.gz
Dewpoint
44 37 32 36 35 34 35 33 32 33 35 35 34 32 33 34 33 31 31 31 33 31 29 31 32 32 35 36 36 38 48 49 59 63 63 63 63 63 63 64 65 65 64 60
38 34 35 37 36 35 34 33 31 32 31 33 33 33 33 33 33 33 31 31 32 30 28 29 33 35 37 39 38 36 36 36 39 50 59 63 63 63 63 63 63 64 64 64
34 35 37 37 36 34 34 33 31 29 30 30 30 30 32 33 33 33 33 31 31 30 28 31 35 38 40 40 41 40 38 35 36 37 40 45 58 62 63 63 63 63 64 64
36 37 36 36 35 36 32 34 32 29 28 26 29 25 26 29 31 32 32 32 31 30 29 34 37 39 40 42 42 42 40 39 38 38 37 38 41 54 58 56 55 51 59 62
34 36 36 35 35 36 33 37 32 31 29 28 26 26 26 24 26 30 32 32 30 29 31 35 38 41 44 44 43 42 43 43 44 43 39 38 39 41 42 42 43 46 53 55
37 38 38 37 39 37 38 32 32 33 30 25 26 26 25 24 23 24 28 30 30 31 34 37 42 44 44 43 43 43 42 43 45 46 46 44 41 42 43 46 45 46 50 51
35 36 38 38 34 36 35 33 27 25 25 23 26 25 25 24 24 25 25 27 28 33 36 40 43 43 42 42 42 41 42 42 44 46 46 47 47 47 47 48 48 48 48 49
29 28 36 37 34 33 34 29 25 18 21 21 25 23 24 26 27 26 27 27 32 35 38 41 43 42 41 40 40 41 42 42 44 45 46 46 47 46 46 45 46 45 47 47
27 28 36 37 38 35 34 32 30 23 21 20 21 22 21 23 24 26 28 32 35 38 40 42 42 40 40 40 40 41 41 42 44 43 42 40 40 39 38 37 38 37 37 40
29 26 34 36 38 38 35 36 29 27 21 17 18 20 17 20 23 29 32 34 38 40 41 41 40 39 39 39 38 38 39 40 40 39 39 38 37 36 36 35 34 34 34 35
32 28 31 34 34 32 34 33 33 31 24 17 15 15 20 19 21 28 34 37 39 40 39 40 39 39 39 37 36 36 37 38 38 37 36 36 36 36 35 35 34 34 34 34
34 29 27 30 35 35 34 32 33 26 24 20 18 17 21 21 23 31 34 38 40 39 39 39 38 38 37 36 35 35 36 37 37 36 36 36 36 36 35 35 35 34 34 34
32 30 26 28 32 36 34 34 35 32 25 20 19 18 23 24 26 32 34 38 39 39 38 38 37 37 36 35 35 35 36 36 36 36 36 36 36 36 35 36 36 36 35 35
33 27 25 21 22 29 31 32 34 34 27 24 21 21 21 22 26 29 33 37 39 38 38 37 36 36 36 35 34 35 35 36 36 36 36 36 36 36 36 36 36 35 35 36
29 25 27 25 24 28 28 28 31 31 31 27 27 25 25 24 24 28 32 35 38 37 37 36 35 35 35 35 34 34 34 35 35 35 35 35 36 36 36 36 35 35 35 36
30 26 26 25 25 28 26 27 28 32 32 33 31 26 27 26 26 27 30 36 37 37 37 36 35 34 34 35 35 35 34 34 34 34 34 35 35 35 35 36 35 35 34 35
28 26 24 21 25 24 22 24 25 28 29 29 27 29 27 26 25 26 28 32 35 37 37 36 34 34 34 35 35 35 34 34 34 34 34 34 35 35 35 34 34 34 33 34
28 25 23 22 23 18 21 23 26 25 25 29 28 28 27 27 27 27 28 28 31 36 36 35 34 34 35 36 35 35 34 34 34 34 34 35 35 35 34 33 33 32 32 29
29 28 25 22 22 21 20 25 27 26 24 27 28 29 28 28 31 31 33 34 33 36 37 34 32 34 35 35 35 35 34 35 34 34 35 34 35 34 33 32 31 31 28 26
30 29 25 24 21 15 18 29 28 30 23 33 29 29 29 31 27 28 36 38 38 38 35 33 32 34 35 35 35 34 34 34 34 34 34 34 35 34 32 32 31 30 28 28
29 29 26 24 22 23 24 25 31 25 23 35 33 31 30 30 30 32 36 34 35 33 31 31 32 33 34 34 34 33 33 33 34 34 34 35 35 33 32 31 29 29 28 28
27 27 27 27 24 20 27 31 28 30 35 36 34 32 31 33 35 36 34 32 31 31 31 31 31 31 33 34 33 33 33 34 35 34 34 34 33 33 32 30 29 26 26 23
24 27 27 27 24 26 29 32 32 35 36 36 36 37 32 34 35 35 33 32 30 30 31 31 31 31 32 33 33 32 34 35 35 34 34 33 33 32 31 28 26 23 20 18
27 27 25 25 25 26 27 30 33 37 37 37 37 38 39 38 37 35 34 32 31 31 30 30 31 31 31 33 33 33 35 35 35 34 33 32 31 30 28 25 23 20 15 12
27 27 26 26 27 29 30 29 30 36 37 36 36 36 37 38 38 37 35 34 32 32 31 31 31 31 32 33 33 34 35 35 33 33 32 31 30 30 22 18 14 13 9 8
29 27 25 24 27 27 27 31 31 36 36 36 35 35 36 36 37 38 37 36 35 33 33 32 32 32 32 33 33 35 35 34 32 31 31 30 26 21 16 14 15 20 18 23

GFSCGP_sfc_30mbdewp_078.txt.gz
Dewpoint
40 36 33 35 35 33 34 33 33 34 35 35 38 34 40 41 44 44 42 39 32 33 32 30 32 34 37 38 42 50 61 62 63 63 63 63 62 63 63 64 64 64 61 60
37 33 34 37 35 35 34 33 32 32 33 35 34 33 34 35 38 40 39 34 31 32 31 29 31 33 36 37 37 36 40 42 48 59 62 62 62 62 63 63 63 63 64 64
33 35 37 36 34 33 33 32 31 30 30 32 32 31 33 34 34 34 34 33 32 32 31 29 33 35 39 39 39 38 36 35 36 37 42 46 57 61 62 63 62 62 63 63
36 37 36 36 35 33 30 34 32 31 29 28 29 26 28 31 32 33 33 34 33 32 30 30 35 38 39 41 41 39 39 39 39 38 37 38 41 51 56 55 51 49 54 58
34 36 35 35 35 34 32 36 32 30 28 28 27 26 26 26 26 30 31 32 33 32 30 31 36 39 42 42 42 42 43 44 44 42 38 37 37 40 42 42 42 45 51 52
37 39 37 37 38 36 37 32 32 32 28 25 26 26 26 25 25 25 27 31 32 31 30 34 39 43 43 43 43 42 43 44 46 46 46 42 40 42 43 45 45 47 49 49
36 36 38 38 35 37 34 32 27 25 25 22 25 25 25 26 25 24 24 25 29 31 32 36 42 43 42 42 42 42 43 43 45 46 46 46 46 46 46 47 47 47 47 47
29 28 36 37 34 33 33 31 25 18 20 21 24 23 23 27 27 27 26 27 27 30 35 40 43 42 42 41 41 42 42 43 45 45 45 46 45 45 44 44 44 42 43 44
28 29 36 37 38 36 34 30 27 26 21 20 21 23 22 23 24 24 25 27 29 32 37 41 43 41 40 40 40 41 42 43 43 42 40 39 38 37 37 36 36 36 36 37
29 26 34 36 38 37 35 34 28 28 21 18 18 19 18 18 19 23 26 29 32 36 40 42 41 40 40 39 40 40 41 41 40 39 38 37 36 36 35 35 35 34 34 35
30 26 30 35 33 33 34 33 32 28 24 18 15 15 20 20 20 20 25 33 36 38 40 41 40 39 39 38 37 38 39 38 38 37 37 36 36 35 35 35 34 34 34 34
32 28 26 29 36 35 34 31 33 27 23 22 18 18 20 21 22 23 29 36 39 39 40 40 39 39 37 36 36 36 37 37 37 36 36 36 36 36 35 35 35 35 35 35
32 28 25 28 31 35 34 34 33 32 27 23 23 21 21 24 24 30 33 38 39 39 40 39 38 38 37 35 35 35 36 36 36 36 36 36 35 35 35 35 35 35 35 34
35 31 25 20 22 29 30 31 33 33 27 25 24 24 22 22 23 28 33 38 39 39 39 38 38 37 36 35 35 35 36 36 36 36 36 36 36 36 36 36 35 35 36 35
33 28 27 26 25 29 29 31 32 31 31 28 26 25 25 26 26 25 30 36 39 38 38 38 37 37 36 35 34 35 35 35 36 35 35 35 36 36 36 36 35 35 36 36
30 28 26 24 25 27 27 28 29 32 32 32 31 30 32 29 27 26 28 34 38 38 38 37 37 36 36 35 34 34 34 35 35 35 35 35 36 36 36 35 35 35 35 36
28 26 25 23 25 24 22 24 26 27 31 31 29 31 31 29 29 27 28 34 36 37 38 37 37 36 35 35 35 34 34 34 34 34 34 35 35 35 35 34 34 34 34 34
28 26 23 22 23 18 19 23 25 25 26 30 31 31 30 29 28 27 28 30 34 36 38 37 36 35 35 35 35 35 34 34 34 34 34 35 35 35 34 34 33 32 31 29
29 26 25 24 22 21 21 23 24 24 22 26 27 28 29 29 29 29 30 29 30 34 36 36 36 35 35 35 35 35 34 34 34 34 35 35 35 34 33 32 32 31 27 25
30 29 27 25 21 17 16 29 28 28 23 30 32 30 28 30 27 28 31 34 34 34 36 35 33 35 35 35 35 34 34 34 34 34 35 35 35 34 33 32 31 29 26 26
28 30 27 25 23 21 24 25 30 24 21 35 34 32 31 29 29 30 35 37 37 36 34 33 33 34 35 35 35 34 34 34 34 34 35 35 35 34 33 32 30 28 28 27
27 26 27 27 25 21 27 30 27 28 34 36 36 33 32 32 33 35 35 34 33 32 32 32 32 33 34 34 34 33 33 34 34 34 34 34 34 34 32 30 29 28 27 25
25 26 27 26 24 26 29 31 32 33 34 36 36 37 32 34 35 35 33 32 32 31 31 32 32 32 33 34 34 33 33 34 34 34 34 33 33 32 32 29 28 25 24 21
27 28 25 27 26 27 28 28 31 34 36 37 37 39 36 35 36 35 34 32 31 31 31 31 31 31 32 33 33 33 34 35 35 34 33 33 32 31 31 29 27 23 20 17
27 27 26 25 26 28 29 29 28 32 37 36 36 37 38 38 38 36 35 33 32 31 31 31 30 31 31 32 33 33 35 35 34 34 33 32 32 32 29 27 24 22 18 15
29 26 25 24 26 26 26 29 30 33 36 36 35 35 36 37 37 38 38 36 34 33 32 31 31 31 31 32 33 34 35 35 34 33 32 31 31 30 26 23 18 20 18 17

GFSCGP_sfc_30mbdewp_081.txt.gz
Dewpoint
42 36 33 35 35 33 33 32 31 33 37 40 40 38 38 43 42 42 43 43 43 42 37 32 32 38 44 46 56 61 62 63 64 63 63 63 63 64 64 64 64 63 62 61
35 33 34 36 35 35 33 32 32 33 35 38 37 38 37 42 42 42 42 41 42 39 34 32 31 33 37 39 42 47 58 59 62 63 63 63 63 63 63 64 64 64 64 64
32 36 36 36 35 34 33 32 31 31 32 34 34 34 34 36 41 42 42 42 41 38 34 32 31 33 38 38 38 38 40 42 43 49 51 52 59 61 63 63 63 62 63 63
36 38 35 34 33 33 31 34 32 30 30 30 30 28 31 34 37 37 39 37 37 35 33 32 31 35 37 40 41 38 38 38 38 39 39 42 47 53 57 55 51 50 54 56
34 36 35 34 33 33 31 35 32 30 29 28 27 28 27 29 33 33 34 35 35 35 34 33 32 36 40 42 41 43 44 44 45 40 39 38 38 41 43 43 44 46 51 51
37 39 37 36 38 36 34 32 32 31 28 25 27 27 26 26 26 27 32 34 34 34 34 33 34 40 42 43 43 43 44 45 47 47 45 42 41 42 43 46 46 48 49 49
35 36 38 37 35 37 34 30 26 24 24 22 26 26 25 27 27 26 26 27 31 33 33 33 36 41 42 42 42 43 44 44 46 46 46 47 47 47 47 47 46 46 47 46
30 26 36 37 34 33 33 31 23 16 19 20 24 23 23 27 27 28 27 26 28 29 32 35 40 42 42 42 42 42 43 44 45 45 45 45 45 44 43 43 43 40 41 42
28 29 36 38 37 35 33 30 28 26 21 20 21 23 23 23 24 24 25 26 27 28 32 37 42 42 42 41 42 42 43 44 44 42 41 39 38 38 38 37 37 36 36 37
30 26 34 36 38 37 34 32 27 29 21 18 19 19 17 17 19 21 21 23 29 32 35 41 42 41 41 40 41 42 43 42 41 40 39 38 37 36 36 36 35 35 35 35
29 26 31 35 34 33 34 32 32 27 25 19 16 14 20 21 20 19 21 23 31 35 39 41 41 40 40 39 39 40 40 40 39 38 37 37 36 36 35 35 35 35 35 35
30 28 27 30 35 35 34 32 31 25 23 23 20 20 21 19 22 23 24 30 37 38 40 41 40 39 38 38 38 38 39 38 37 37 37 36 36 36 36 35 35 35 35 35
32 30 25 27 31 34 33 33 33 30 27 23 22 20 21 23 24 27 30 35 39 39 40 40 39 39 37 36 36 37 37 37 36 36 36 36 36 36 35 35 35 35 34 34
34 31 25 20 21 28 29 30 32 32 27 24 24 24 25 25 25 25 29 35 39 39 40 39 39 38 37 36 35 36 36 36 36 36 36 36 35 36 36 36 35 36 35 34
36 30 30 28 25 30 29 29 31 31 30 26 25 24 26 26 26 26 26 32 38 39 39 39 38 38 37 36 35 35 36 36 36 36 36 36 36 36 36 36 36 36 36 35
32 30 27 27 27 26 26 28 31 30 30 30 29 29 31 31 29 31 32 30 35 38 39 39 38 38 37 36 35 35 35 36 36 35 35 36 36 36 36 35 35 36 36 36
30 31 28 25 24 24 23 25 27 28 31 31 29 30 31 31 32 33 34 33 32 37 39 39 38 38 37 36 35 35 35 35 35 35 35 35 36 36 36 35 34 35 35 34
30 27 27 25 23 18 20 23 27 27 27 30 31 30 31 31 32 32 29 28 31 36 38 39 38 37 37 36 35 35 35 34 34 34 35 35 35 35 35 34 33 33 32 31
32 29 27 24 22 21 21 21 23 23 20 26 27 29 30 31 30 30 30 29 29 34 37 38 38 37 36 36 35 35 34 34 34 34 34 35 35 35 34 33 33 31 29 27
29 32 30 25 21 16 18 28 29 28 23 28 29 30 30 29 27 28 30 31 30 31 36 37 37 36 36 35 35 34 34 34 33 34 35 35 35 34 34 33 32 29 27 26
28 29 27 25 23 23 23 27 30 22 19 33 35 35 32 30 29 30 35 36 36 35 35 34 35 35 35 35 35 34 34 34 34 35 35 35 35 34 33 32 31 28 27 26
27 26 26 27 24 21 27 28 24 27 33 35 36 35 32 32 32 34 35 35 35 34 34 34 34 34 35 35 35 34 34 34 35 35 35 35 35 34 33 31 29 28 27 25
27 26 26 26 24 26 29 28 31 33 33 35 36 37 33 33 34 34 33 33 33 33 33 33 33 33 34 35 35 34 34 34 34 34 34 34 34 33 32 30 29 27 26 25
32 28 27 27 25 27 27 28 30 32 34 37 37 38 34 33 35 35 33 32 32 32 31 32 32 32 33 34 34 34 33 34 34 34 34 34 33 32 31 30 29 27 25 23
27 29 26 26 26 26 28 28 28 29 33 37 37 38 38 39 37 36 35 33 32 32 31 31 31 31 32 33 33 33 34 34 34 34 33 33 32 32 30 30 28 25 22 20
28 27 26 25 26 26 25 27 30 30 33 37 36 35 36 37 38 38 37 35 33 32 31 31 31 31 31 32 33 33 35 35 34 33 33 32 32 32 31 30 28 28 26 24

GFSCGP_sfc_30mbdewp_084.txt.gz
Dewpoint
39 38 31 30 34 31 31 31 30 32 37 36 34 34 34 36 39 38 38 37 37 40 41 42 36 35 52 60 63 64 64 64 64 64 64 64 64 65 65 65 65 64 64 63
35 34 32 36 35 32 31 28 28 32 35 37 34 34 35 35 37 37 37 38 37 39 41 41 35 33 41 53 55 61 63 64 64 64 64 64 64 64 64 65 65 65 65 64
33 35 35 33 33 31 30 26 28 28 32 36 34 30 33 35 37 38 38 41 40 39 40 40 37 33 36 41 46 50 56 62 63 63 63 62 63 64 64 64 64 64 64 64
35 37 35 32 31 31 29 33 32 31 30 26 33 23 28 30 33 36 36 37 39 41 41 40 36 33 36 39 43 42 43 46 48 48 55 59 60 60 61 61 59 56 56 57
34 35 33 32 32 32 29 34 32 31 30 29 29 27 24 28 29 32 34 35 37 40 40 37 35 35 37 41 43 42 41 42 41 40 40 41 42 43 45 45 46 48 52 52
37 39 35 30 37 35 35 33 32 30 28 23 22 26 21 23 24 27 32 34 36 37 38 36 36 37 39 44 44 45 44 45 45 44 42 41 41 41 41 44 45 46 48 50
36 36 38 38 34 35 33 29 25 23 25 18 25 24 19 22 27 26 27 28 32 36 37 36 35 37 40 43 44 45 45 45 46 46 46 46 46 46 46 46 46 46 47 47
30 27 36 37 34 32 29 26 20 15 15 15 25 20 17 24 27 28 29 28 28 29 33 35 35 37 40 42 43 43 44 45 45 46 46 46 47 46 45 46 44 43 43 44
29 29 36 37 37 35 32 31 29 26 22 21 19 23 24 23 24 25 26 28 28 29 30 32 34 38 41 42 43 43 44 45 45 44 43 42 42 42 41 40 40 39 39 38
30 28 35 37 37 37 34 31 27 30 21 17 18 19 14 17 20 20 20 22 23 29 30 32 37 41 42 42 43 43 44 44 43 42 41 41 40 39 39 39 38 38 37 37
30 28 32 37 34 33 33 30 31 26 24 19 13 13 20 21 20 21 22 25 29 31 33 35 39 41 41 42 42 43 43 42 41 41 40 40 39 38 38 38 37 37 37 37
30 28 28 29 34 35 33 29 29 24 22 24 22 18 21 20 21 23 26 31 36 37 37 39 40 41 40 40 41 41 41 40 40 40 39 38 38 38 37 37 37 37 37 37
32 31 26 28 31 34 34 32 32 29 28 26 21 18 21 23 24 26 29 31 36 38 39 40 41 40 40 39 39 39 39 39 38 38 38 37 37 37 37 37 36 36 36 35
33 32 27 20 22 27 29 29 31 32 28 24 25 22 21 23 25 26 26 27 34 38 38 40 40 40 39 38 38 38 38 38 37 37 37 37 37 37 37 37 37 37 35 35
36 30 31 28 27 29 29 28 30 31 31 25 25 23 24 23 23 24 27 28 31 37 38 40 40 40 39 38 37 37 37 37 37 37 37 37 37 38 37 37 37 37 36 35
37 30 32 30 32 29 28 28 29 29 29 28 27 27 27 27 27 29 29 29 31 32 37 39 40 40 39 38 37 36 37 37 37 37 37 37 37 37 37 37 37 37 36 36
33 32 29 26 29 29 26 26 27 28 29 29 28 28 28 28 29 30 30 31 32 33 33 37 39 40 40 39 38 36 36 36 36 36 36 36 36 36 36 36 36 36 36 36
32 32 30 25 24 19 21 24 27 26 26 28 29 28 28 28 29 31 32 31 32 31 32 35 39 40 40 39 38 37 36 36 36 36 36 36 36 36 36 35 35 35 34 34
35 32 29 24 22 21 22 23 24 24 21 25 26 27 28 28 30 31 31 32 33 32 32 35 38 40 40 39 38 36 35 35 36 35 36 36 36 36 35 35 35 34 32 31
32 34 29 27 21 17 17 27 26 27 21 29 28 29 31 32 29 30 32 32 31 31 33 37 39 39 38 38 37 36 35 35 35 35 35 36 36 36 35 35 34 32 31 30
28 30 28 26 24 23 23 28 29 19 20 32 35 36 35 32 31 32 34 36 37 34 33 37 38 37 37 37 36 36 35 35 35 35 36 36 36 36 35 34 33 30 29 28
28 27 26 26 24 20 27 29 24 25 33 34 36 37 35 34 33 34 35 36 36 36 35 36 36 37 37 37 36 36 36 36 36 36 36 36 36 35 34 33 31 28 27 26
28 29 25 26 22 27 28 26 28 32 32 34 37 37 34 34 34 35 35 34 35 35 35 35 37 37 37 37 37 36 37 36 36 35 35 35 35 35 34 32 30 28 27 25
32 33 29 28 25 28 28 28 32 32 33 35 38 38 34 33 35 35 34 33 33 33 34 34 34 34 35 36 36 36 36 35 35 35 34 35 34 33 32 31 30 29 28 25
25 28 32 27 27 27 27 29 28 29 30 33 37 38 39 39 37 36 35 34 33 33 32 33 33 33 34 34 35 34 34 35 34 34 34 34 34 34 31 31 30 30 28 24
17 21 26 26 29 27 27 30 30 30 31 33 37 36 38 38 38 38 37 36 34 33 32 33 34 33 34 34 34 34 34 34 34 33 34 34 33 33 31 30 30 32 28 26

GFSCGP_sfc_30mbdewp_087.txt.gz
Dewpoint
39 37 31 29 29 28 23 24 21 23 32 35 34 32 32 33 36 37 36 34 33 35 40 42 39 36 50 61 62 63 63 64 64 64 64 65 64 65 64 63 63 63 63 63
37 32 32 29 29 31 30 24 25 29 32 32 29 29 29 31 32 34 35 34 34 34 37 42 39 35 36 54 60 62 63 64 64 64 64 65 65 65 65 65 66 65 65 65
34 33 34 32 31 29 28 25 29 27 30 32 30 29 29 30 31 33 35 35 36 37 35 39 40 38 35 44 53 58 62 63 64 65 65 65 65 65 64 64 64 64 64 64
35 36 34 31 28 28 26 28 25 27 28 24 29 18 18 23 28 31 33 34 34 39 39 38 40 39 36 38 47 48 55 61 63 61 63 62 62 62 62 62 63 62 58 60
33 34 32 29 27 29 26 32 30 29 28 27 28 26 21 24 26 28 30 32 33 36 40 39 41 39 38 41 46 44 45 48 49 52 55 58 59 56 53 50 51 51 53 53
36 39 32 29 32 33 34 31 29 30 28 28 24 24 20 20 24 25 26 29 31 34 37 41 40 39 38 43 45 44 43 43 43 42 42 44 43 42 42 44 44 45 47 50
35 35 35 37 33 33 31 26 24 23 25 20 21 18 20 19 22 23 24 26 30 32 35 38 39 38 38 43 45 45 44 45 45 45 43 43 44 44 43 45 45 45 46 48
29 27 34 33 31 28 27 26 20 15 13 14 23 17 17 20 22 21 26 28 28 29 34 37 39 38 38 43 45 44 44 44 45 46 46 46 47 46 46 46 45 44 44 45
30 31 36 36 34 35 28 27 26 25 22 18 16 19 19 20 23 25 26 27 28 29 29 33 38 37 38 42 43 43 43 44 45 45 45 44 44 44 43 43 42 41 41 39
35 29 35 36 37 36 36 31 27 28 18 13 9 15 13 15 18 20 20 21 24 25 29 30 33 39 39 41 43 43 43 44 44 43 42 42 41 41 41 41 40 40 39 39
28 31 32 37 34 28 31 30 30 27 19 15 9 12 18 18 19 22 23 27 30 30 30 30 33 39 41 42 43 43 43 43 43 42 41 41 40 40 39 39 39 38 38 38
30 31 30 30 35 35 32 28 27 23 21 22 20 19 19 20 21 23 28 32 34 36 35 35 36 40 41 42 43 43 43 42 42 41 40 40 40 39 39 38 38 38 38 37
31 32 26 29 33 35 35 35 33 28 25 29 21 19 22 23 23 25 28 27 29 36 37 37 38 39 40 41 42 42 41 41 40 40 39 39 39 38 38 38 37 37 37 36
37 32 26 22 26 27 29 29 30 30 30 25 25 22 21 22 24 24 26 26 27 30 36 37 38 39 40 40 40 40 40 39 39 38 38 38 38 38 38 38 37 37 36 36
36 30 32 29 27 27 29 28 28 30 31 27 26 24 24 24 24 24 24 25 27 29 34 37 39 39 39 39 39 39 39 38 38 38 38 38 38 38 38 38 38 38 37 36
38 31 33 30 34 28 27 27 28 28 28 29 29 27 27 26 26 26 26 26 28 29 30 36 38 39 39 39 38 38 38 38 38 38 38 38 38 38 38 38 37 37 37 37
32 31 29 27 32 31 27 29 28 28 28 27 27 28 28 27 27 27 28 28 28 29 31 32 37 39 39 39 39 38 38 38 37 37 37 38 37 37 37 37 37 37 37 36
29 29 32 28 29 21 21 26 28 27 26 27 27 27 27 26 26 27 28 28 29 30 30 33 33 38 40 40 39 38 38 37 37 37 37 37 37 37 37 36 36 36 36 36
33 30 30 25 22 18 19 23 23 23 20 23 24 23 24 25 27 30 31 32 31 30 31 32 32 35 40 40 39 38 37 37 37 37 37 37 37 37 36 36 36 36 34 33
33 32 30 29 24 15 18 24 25 25 19 26 26 27 31 33 30 30 34 34 34 32 32 32 35 36 39 40 39 38 36 36 36 36 37 37 37 37 36 36 36 34 33 32
28 29 27 26 22 21 23 27 28 18 21 33 34 35 35 33 32 34 34 34 37 36 32 33 37 39 40 40 39 37 37 37 37 37 37 37 37 37 37 35 34 33 31 30
27 27 27 28 25 19 26 28 23 26 32 31 34 37 36 34 33 33 35 35 37 36 35 36 38 39 39 39 38 38 38 38 37 37 37 37 37 36 36 35 33 31 29 29
25 30 30 26 23 27 28 26 29 27 28 31 36 38 37 33 33 34 35 35 35 36 36 37 39 39 39 39 38 38 38 38 37 36 37 37 37 36 35 34 32 29 28 28
30 34 31 28 25 26 28 28 28 30 30 32 34 37 37 34 35 35 35 34 34 35 35 36 37 37 37 37 37 38 37 37 36 36 36 36 35 35 34 33 31 29 28 28
19 27 31 31 30 29 27 29 30 30 29 30 32 36 38 39 38 37 36 35 34 34 34 34 34 34 35 35 36 36 36 36 35 35 35 35 34 34 33 32 31 30 30 30
18 17 17 19 31 32 29 31 32 32 31 31 32 37 38 39 38 38 37 36 34 34 33 33 34 33 34 34 35 35 36 35 35 34 34 34 34 34 32 31 31 32 32 31

GFSCGP_sfc_30mbdewp_090.txt.gz
Dewpoint
38 38 34 31 32 27 27 26 24 29 38 38 34 34 35 34 38 38 37 37 35 35 42 43 39 39 52 60 62 63 63 64 64 64 64 64 63 64 64 63 62 62 63 63
37 34 32 30 29 28 30 24 23 32 36 38 32 32 32 32 33 37 37 36 35 35 38 41 38 36 50 60 62 63 63 64 64 64 65 65 64 64 64 64 65 65 65 65
33 37 35 32 29 30 30 28 27 29 31 31 30 29 28 29 30 31 34 35 35 35 36 41 36 35 37 53 59 61 63 64 64 65 65 65 65 64 64 64 64 65 64 65
34 35 34 32 31 29 28 28 32 32 29 26 29 24 26 28 28 29 31 33 35 35 36 40 40 37 36 40 55 57 60 63 64 65 64 62 61 60 63 63 64 60 59 59
33 35 33 31 28 29 28 29 32 32 28 27 28 27 24 24 27 28 30 32 34 35 36 39 40 39 38 45 49 49 53 59 60 60 62 62 62 61 59 58 57 55 54 54
35 38 37 32 32 29 33 32 29 29 28 27 28 26 24 21 22 26 29 31 32 34 36 39 41 40 40 45 46 47 48 49 48 52 54 56 58 47 46 46 47 48 51 51
33 35 35 37 34 34 33 29 25 24 25 23 21 24 24 23 22 24 25 27 30 32 35 38 41 39 41 44 46 46 45 45 44 43 43 43 44 42 43 45 45 46 47 49
26 26 35 35 35 31 31 29 22 17 18 17 20 19 19 19 22 24 26 27 28 28 32 38 40 39 41 45 46 45 45 45 46 45 46 47 47 47 47 46 46 44 45 45
28 27 34 35 33 32 29 26 28 29 24 18 21 21 21 20 22 24 26 27 29 28 29 37 39 40 43 45 45 45 45 45 46 46 46 46 45 45 44 43 43 41 41 39
35 29 35 35 36 36 35 34 27 29 20 14 11 11 15 16 18 24 23 25 27 27 28 31 34 39 41 44 45 44 45 45 46 45 44 43 43 42 41 41 40 39 39 39
35 34 33 36 34 32 34 33 34 28 23 14 14 15 18 19 22 23 27 31 32 32 29 31 33 37 40 43 44 44 44 45 44 43 42 41 41 40 40 40 39 39 39 39
30 34 29 31 36 35 32 32 34 28 24 23 21 21 20 21 22 24 31 34 35 35 36 34 36 40 42 44 45 45 45 44 43 42 41 40 40 40 39 38 38 38 38 38
33 32 27 30 33 36 35 33 31 31 31 25 21 19 22 22 23 24 29 27 33 36 37 37 38 40 41 42 43 43 43 42 42 41 41 40 39 39 38 38 37 37 37 36
38 33 25 20 26 31 31 32 32 32 29 26 26 24 23 23 24 24 28 28 27 29 36 37 38 39 40 42 42 42 42 41 40 40 39 39 39 39 38 38 37 37 36 36
35 29 33 29 27 31 33 30 31 33 33 27 26 27 26 25 25 25 26 27 27 28 30 37 39 39 40 41 41 41 40 39 39 39 39 38 39 39 38 38 38 38 37 37
33 30 31 31 34 33 31 30 29 30 31 32 30 28 29 30 30 29 28 28 28 29 30 31 38 39 39 40 40 40 39 39 39 38 38 38 38 38 38 38 38 38 37 37
29 29 28 27 32 31 27 30 29 29 29 30 29 29 29 29 28 28 28 29 28 29 29 30 34 39 40 40 39 39 38 38 38 38 38 38 38 38 38 38 37 37 37 36
28 26 26 28 29 20 24 26 30 28 29 29 29 29 29 29 28 28 28 28 28 29 30 31 34 38 40 40 39 38 38 38 38 38 38 38 38 37 37 37 36 37 36 36
30 27 25 26 25 22 21 23 27 28 27 28 27 27 26 26 28 27 33 33 33 33 32 31 33 34 40 40 40 38 38 38 38 38 37 38 38 37 37 36 37 36 35 35
31 29 28 28 23 20 21 23 24 24 19 28 25 27 31 32 30 32 35 34 34 36 35 33 34 35 39 40 39 38 37 37 37 37 37 37 38 37 36 36 36 35 34 33
28 28 23 26 25 24 25 25 27 18 27 34 34 35 36 34 34 34 34 35 37 37 36 35 36 38 38 40 39 38 37 37 37 38 38 37 37 37 36 36 35 34 33 32
26 25 25 27 25 22 28 28 22 29 31 31 34 37 37 35 33 33 35 35 36 36 36 38 39 40 40 40 39 38 37 38 38 38 37 37 37 37 37 36 34 33 31 30
24 30 29 32 28 29 29 28 28 29 28 31 36 38 38 34 34 34 35 35 35 36 36 39 39 38 39 39 39 38 38 37 37 37 37 37 37 36 36 35 33 31 30 29
30 33 30 29 28 30 31 29 31 31 30 31 34 35 38 35 36 36 35 34 35 35 35 38 38 38 38 38 39 39 38 37 37 36 37 36 36 35 35 34 32 31 29 28
22 21 25 27 27 30 31 31 32 33 33 30 31 32 38 39 38 37 35 34 34 34 34 35 36 36 36 36 36 38 37 37 36 36 36 35 35 35 34 33 32 31 30 30
20 18 17 18 22 29 31 25 33 35 36 34 32 35 38 39 38 38 37 35 34 34 34 34 34 35 35 35 35 35 36 36 36 35 35 34 34 34 33 32 31 33 32 33

GFSCGP_sfc_30mbdewp_093.txt.gz
Dewpoint
39 32 30 33 34 32 30 29 29 34 40 37 38 39 37 35 37 37 37 38 38 39 44 44 45 51 57 62 64 65 65 65 65 64 64 65 64 64 63 63 62 62 62 62
34 29 35 35 33 31 29 27 27 36 40 38 38 37 37 35 36 38 38 38 37 37 40 43 41 42 52 59 63 64 65 65 65 65 65 65 64 64 64 65 65 65 65 65
32 36 38 34 32 29 29 29 27 31 36 38 35 33 32 34 33 37 38 37 37 37 37 42 39 38 48 59 61 62 63 64 64 65 65 64 64 64 63 63 64 64 65 65
34 36 35 34 32 31 29 32 32 33 33 29 30 23 26 29 29 30 34 37 37 36 37 41 38 36 40 57 60 62 63 63 64 64 64 63 61 60 62 62 63 63 62 61
32 34 34 32 31 30 29 33 32 33 29 28 28 27 28 26 25 28 29 32 35 35 35 41 38 36 36 46 55 58 60 63 63 64 64 62 61 61 61 62 61 58 56 56
34 37 36 34 34 33 33 31 31 29 28 25 27 28 26 24 22 27 29 30 32 35 35 37 41 39 37 46 51 50 54 58 59 60 62 62 61 58 58 57 56 54 52 51
31 32 37 36 32 34 32 30 26 24 24 20 25 26 25 26 25 24 27 30 31 34 35 37 40 39 40 44 46 47 48 50 49 53 55 56 57 52 53 51 49 49 50 49
25 19 33 36 34 31 32 30 23 16 19 18 22 21 21 23 24 25 27 27 28 29 33 38 40 39 40 42 44 45 45 45 45 44 45 47 46 46 47 47 46 46 47 46
27 25 35 35 35 33 30 28 29 27 27 21 20 22 22 22 22 24 26 28 28 28 31 38 41 39 41 42 44 44 45 45 45 45 47 47 47 46 46 44 43 43 42 41
31 27 34 34 36 37 34 34 26 30 21 17 14 19 15 17 19 24 25 27 28 27 30 36 39 40 42 44 45 45 45 46 46 46 45 45 44 43 43 42 41 40 39 40
33 33 32 35 34 31 34 32 32 29 25 14 12 13 19 19 23 26 30 32 33 32 31 31 34 40 43 45 45 44 45 46 45 44 42 42 42 41 41 40 39 39 39 39
35 34 29 32 36 35 34 33 32 24 24 23 20 18 22 23 27 30 32 33 33 34 35 34 35 39 41 44 44 44 45 45 44 43 43 43 41 40 39 39 38 39 38 38
36 32 26 28 33 36 34 35 35 34 32 24 18 17 21 23 23 30 32 33 34 35 35 36 39 40 41 43 44 44 45 44 43 42 41 41 41 40 39 38 38 38 37 37
36 32 29 24 29 32 32 31 33 34 28 26 24 22 21 22 23 24 28 28 32 36 36 36 37 40 41 43 43 44 44 44 43 42 42 41 40 39 38 38 37 37 36 36
35 29 31 31 31 33 33 32 33 32 31 26 25 26 26 27 27 25 26 27 28 30 36 37 37 39 40 41 42 43 42 41 41 40 40 39 39 39 38 37 37 37 37 36
32 28 30 28 32 33 30 32 33 33 34 33 31 29 29 29 31 30 29 29 28 28 29 35 38 39 39 40 41 41 40 40 40 39 39 39 39 38 38 38 38 37 37 36
27 26 20 23 32 31 27 30 31 29 32 33 31 31 31 31 30 30 29 29 28 29 30 30 34 39 39 40 41 41 40 39 39 39 39 38 38 38 38 38 37 37 36 36
26 25 25 21 29 20 24 28 31 30 28 31 32 31 31 31 31 31 29 28 28 28 30 30 31 37 40 40 41 40 39 39 38 38 38 38 38 38 38 37 37 36 36 35
28 26 21 22 25 26 21 22 29 29 28 30 30 30 30 29 28 28 34 34 33 34 34 34 32 33 40 40 40 39 39 38 38 38 38 38 38 38 37 36 36 36 35 35
29 28 25 24 22 18 22 23 25 25 20 31 26 28 28 31 24 27 35 34 35 37 37 36 35 34 38 40 39 39 38 38 38 38 38 38 38 37 36 36 36 36 35 34
26 27 21 22 23 24 26 24 27 17 22 34 35 36 36 34 34 34 34 35 37 37 36 36 37 38 38 40 39 38 38 38 38 38 38 38 38 37 36 36 36 35 34 34
24 24 24 24 23 21 28 27 23 28 31 32 34 37 37 35 34 33 35 35 36 36 36 39 39 39 40 40 39 38 38 38 38 38 38 37 37 37 36 35 35 34 33 32
23 30 28 30 28 35 36 31 32 31 30 31 37 38 38 34 34 34 35 35 35 35 37 39 38 38 38 39 39 37 38 38 38 37 37 36 37 37 36 35 34 33 32 31
29 30 29 27 29 30 34 31 31 34 33 32 33 35 38 35 36 36 35 35 35 35 36 38 38 37 37 39 39 38 38 37 37 36 36 36 36 36 36 35 34 33 31 30
22 22 22 25 23 26 32 27 31 34 36 37 35 31 37 39 37 36 36 35 34 34 34 36 37 37 37 37 38 38 37 37 36 36 36 36 36 36 35 34 33 32 31 31
21 19 17 18 23 23 24 25 30 31 34 36 37 35 38 39 38 37 35 35 34 34 34 34 35 35 35 35 36 37 37 37 36 36 36 36 35 35 34 33 32 34 33 33

GFSCGP_sfc_30mbdewp_096.txt.gz
Dewpoint
37 29 30 33 34 32 31 34 33 34 39 39 38 39 42 43 42 38 39 40 40 43 46 47 53 60 62 64 64 64 64 64 64 65 64 64 64 65 63 63 62 62 62 61
30 27 36 37 35 32 31 29 28 35 37 36 36 33 38 43 41 37 37 39 38 38 41 45 45 53 59 62 64 64 63 64 64 63 63 64 64 65 64 65 64 63 63 63
29 34 37 35 33 30 29 27 29 33 39 39 36 34 36 38 38 37 38 38 38 38 37 41 44 43 51 60 63 63 64 64 64 64 64 64 64 64 64 64 64 65 65 65
33 36 34 33 32 31 28 32 30 34 35 31 37 26 27 31 33 34 34 37 38 38 37 38 43 41 42 55 61 63 64 64 65 65 64 63 63 62 63 62 63 63 64 64
31 34 34 32 32 32 29 33 33 34 31 28 31 28 27 28 27 29 31 33 37 37 37 38 41 41 39 44 58 61 63 63 64 64 64 63 62 62 61 62 62 61 59 60
33 36 36 35 35 34 32 32 32 35 32 27 27 28 26 27 26 26 27 30 32 36 37 38 40 40 38 38 49 57 60 62 62 63 63 62 61 60 59 60 59 57 55 54
29 31 36 36 32 33 33 34 27 26 25 24 26 28 26 26 27 24 25 27 30 32 36 36 40 40 39 40 44 51 55 58 59 61 61 61 61 59 59 59 57 55 52 50
25 18 31 36 32 30 31 33 25 17 19 20 26 23 22 25 27 27 26 29 30 31 33 35 38 40 40 41 46 49 50 53 51 53 55 53 57 55 56 54 54 53 51 49
27 25 33 35 36 32 31 29 29 27 26 21 20 21 22 23 21 25 26 28 28 29 32 33 38 40 40 42 45 46 46 47 46 45 47 49 50 51 50 50 50 49 48 46
29 28 32 34 36 37 32 32 29 30 22 18 17 20 17 18 21 24 26 27 28 28 32 39 40 40 41 42 44 45 45 45 45 46 46 46 46 46 45 44 44 42 41 41
30 31 31 35 33 31 33 31 30 27 24 18 13 14 17 19 19 24 27 29 30 30 30 33 39 40 41 44 44 44 45 45 46 45 44 44 43 42 41 41 40 39 39 39
32 33 28 29 37 38 34 31 30 24 23 22 18 16 23 25 26 29 32 33 33 34 32 33 36 39 42 44 44 44 45 46 45 44 43 42 41 41 40 39 39 39 39 39
35 31 25 27 32 36 34 34 33 31 30 22 19 16 23 24 30 31 30 32 33 34 34 35 37 37 39 42 44 44 45 45 44 43 42 42 41 40 40 39 39 39 38 38
35 30 27 22 27 32 30 34 34 32 28 24 23 19 21 22 25 30 31 32 34 34 34 35 36 38 40 42 44 44 44 44 43 42 42 42 41 41 41 41 40 39 37 37
33 26 29 30 31 32 31 33 33 32 31 25 25 25 25 23 25 25 27 28 28 30 35 36 35 37 40 41 43 44 44 43 42 42 41 41 41 41 39 38 37 37 36 36
31 25 26 20 28 31 29 32 33 33 34 31 31 29 29 28 28 29 30 30 29 28 30 35 36 37 38 40 42 43 43 43 42 42 41 40 39 38 38 37 37 37 37 36
26 25 19 16 24 29 24 28 32 32 34 34 31 32 32 32 32 32 31 30 29 29 29 30 34 37 38 39 41 42 42 41 41 40 40 39 39 38 38 38 37 37 36 36
23 24 24 15 27 20 27 28 32 32 31 32 33 33 33 32 33 33 32 30 28 28 29 30 31 32 38 40 41 42 41 40 40 39 39 39 38 38 38 37 37 36 36 35
27 25 20 20 22 26 22 23 29 29 27 31 30 31 33 32 30 29 33 33 33 34 34 35 35 35 34 39 41 41 40 39 39 39 38 38 38 38 37 37 36 35 35 34
28 27 22 21 21 16 23 25 25 28 22 33 30 29 30 29 26 27 35 34 35 37 37 37 36 36 35 38 40 40 39 39 39 38 38 39 38 38 37 36 35 35 35 34
24 25 21 19 21 23 31 29 27 18 21 33 35 36 35 33 32 34 34 35 36 36 36 37 39 38 39 39 40 39 39 39 39 39 38 38 38 37 37 35 35 35 35 34
23 23 22 23 22 18 35 31 26 30 30 31 35 37 36 35 34 33 35 35 35 35 37 39 38 38 39 40 39 39 39 39 39 38 38 38 38 37 36 36 35 35 34 34
25 28 26 28 23 35 35 34 31 34 33 34 33 39 38 35 34 34 35 35 35 36 37 38 38 37 38 39 39 38 38 38 38 38 37 37 37 36 36 35 34 34 34 33
25 29 27 28 27 25 34 37 37 35 33 36 37 34 37 35 36 36 35 35 34 35 36 37 37 37 37 38 38 38 38 38 38 37 36 36 36 36 35 35 35 34 33 32
21 22 21 24 22 28 29 26 28 33 34 35 37 37 34 38 38 36 36 36 34 34 35 36 37 36 36 38 37 37 37 37 37 36 36 36 36 36 35 35 34 34 33 33
22 20 18 17 23 22 22 24 24 30 33 35 37 37 37 39 39 39 36 35 34 34 34 34 35 35 35 36 37 37 37 37 36 36 36 36 36 36 35 34 34 35 35 34

GFSCGP_sfc_30mbdewp_099.txt.gz
Dewpoint
35 31 32 34 34 33 34 34 33 36 40 39 38 39 41 43 42 40 40 39 40 43 46 51 56 61 62 63 64 64 64 65 65 65 64 64 64 64 63 62 61 61 60 61
28 28 36 36 35 32 31 32 31 35 40 37 38 37 40 42 42 41 40 39 38 40 41 45 47 53 60 63 63 64 64 64 65 65 65 65 64 65 64 64 63 62 62 62
25 32 36 34 32 30 29 29 29 31 38 38 36 35 36 39 41 42 41 39 38 39 39 40 44 45 53 59 62 63 63 64 64 64 64 63 64 64 64 64 64 64 63 63
32 35 34 33 31 30 28 31 29 36 35 31 35 23 28 36 37 39 40 38 37 38 39 38 40 44 44 54 60 63 63 64 64 64 63 62 62 62 63 63 63 64 64 64
28 33 33 31 32 32 29 33 32 36 32 29 34 27 27 29 33 34 37 36 36 37 39 38 38 41 43 44 56 61 63 64 64 64 63 63 62 63 62 62 63 63 63 63
32 36 35 34 34 34 32 33 35 35 31 27 28 29 26 27 27 29 32 32 33 34 36 38 38 40 42 41 50 58 61 62 63 63 63 63 63 61 61 61 61 59 58 58
27 30 35 37 33 33 34 31 27 26 26 23 26 30 27 28 27 26 27 28 28 30 34 36 37 39 40 39 42 50 58 60 61 62 62 62 62 61 60 59 59 57 55 54
23 17 30 35 32 30 33 32 25 18 20 24 27 26 27 25 26 28 27 26 28 29 32 35 36 38 39 40 41 45 50 56 59 59 60 58 59 59 58 58 57 56 54 52
26 24 30 34 36 32 32 30 33 29 25 20 25 22 21 22 23 24 25 28 28 30 31 33 35 37 39 40 42 43 48 53 53 53 54 53 54 54 55 54 54 54 53 51
28 25 30 33 36 37 32 33 29 30 21 18 18 18 16 18 20 23 26 27 28 28 34 38 36 38 39 41 44 46 47 48 47 46 47 48 50 51 50 50 50 49 46 45
29 30 28 35 32 29 33 30 30 29 27 20 15 14 20 21 19 22 26 28 28 29 31 36 40 40 41 43 44 44 45 45 45 46 45 45 46 46 45 45 43 42 41 41
31 30 25 27 35 38 35 31 30 25 24 21 17 16 23 25 25 23 27 31 32 32 31 33 38 41 41 42 43 43 44 45 45 45 44 43 43 42 41 41 40 39 39 39
31 29 23 23 32 35 34 34 33 31 28 23 20 17 22 25 30 31 30 32 32 34 34 34 35 36 39 42 43 43 44 45 45 44 43 42 41 41 40 39 39 39 38 38
34 29 25 19 23 30 28 32 33 32 27 24 23 21 20 23 28 31 31 32 33 34 34 34 35 36 38 40 42 44 44 45 44 43 42 41 41 40 40 40 40 40 39 38
32 23 26 28 30 31 30 30 32 31 30 25 24 24 22 21 23 25 29 28 29 29 33 34 34 34 37 40 42 43 44 44 43 42 42 41 41 41 41 40 39 38 37 36
29 21 25 22 24 28 29 29 32 32 33 33 31 30 30 28 26 27 29 30 30 29 28 29 35 36 36 38 40 43 43 44 43 42 42 42 41 40 40 38 37 36 36 36
25 23 21 16 21 28 22 27 27 30 33 34 30 31 32 33 34 33 31 31 31 30 30 29 30 34 36 37 39 41 43 43 42 42 41 41 40 39 38 37 36 36 36 36
23 23 24 17 24 17 22 28 29 28 32 34 35 34 33 33 33 33 34 32 32 31 29 29 30 31 32 37 39 41 42 42 42 41 41 40 39 38 37 37 36 36 36 35
26 24 20 18 20 22 22 26 28 31 28 31 31 32 33 34 33 32 32 32 31 32 34 35 36 36 35 35 37 41 41 41 41 40 40 39 38 38 37 36 36 35 35 34
28 27 21 20 18 16 25 31 30 29 24 29 30 33 31 31 29 30 34 35 34 36 37 37 37 36 36 36 38 40 40 40 40 40 39 39 38 38 37 36 36 35 35 34
21 22 19 19 18 20 32 33 30 20 21 32 32 36 33 30 29 33 34 35 36 36 36 38 39 38 39 40 40 40 40 40 40 39 39 39 38 38 37 36 35 34 34 35
22 21 20 21 19 15 35 31 25 31 33 34 35 35 38 36 34 33 35 35 35 35 37 38 38 38 38 39 40 39 39 40 39 39 39 38 38 37 36 36 35 35 34 34
23 26 25 23 21 33 35 32 32 34 33 33 35 36 35 35 34 34 35 35 35 35 37 37 37 37 38 38 39 39 38 39 39 38 38 38 37 37 36 35 35 34 34 34
22 29 28 27 26 26 31 36 35 35 36 36 35 36 37 35 36 36 35 35 34 35 36 37 37 37 37 37 38 38 38 39 38 37 37 37 36 36 35 35 34 34 34 34
21 23 22 22 22 30 31 25 24 25 32 34 36 36 37 37 39 36 36 35 34 34 35 36 36 36 37 37 37 37 38 38 37 37 36 36 36 35 35 35 34 34 34 34
22 20 18 16 21 22 23 23 28 28 27 34 35 34 37 37 39 38 36 35 34 34 34 35 35 35 35 36 36 36 37 37 36 36 35 35 35 36 35 35 35 36 35 35

GFSCGP_sfc_30mbdewp_102.txt.gz
Dewpoint
34 34 33 34 35 33 35 34 33 36 41 36 36 35 38 40 40 41 41 40 38 41 46 54 61 63 63 63 64 65 65 63 66 65 64 63 63 63 62 61 62 61 61 60
28 31 36 37 35 31 34 33 33 37 40 37 37 33 37 37 39 40 41 41 39 38 40 42 50 59 62 62 63 64 63 64 64 65 65 64 64 64 63 63 62 62 61 61
25 31 36 34 31 29 29 30 30 33 39 39 38 34 37 38 38 40 41 42 40 39 39 39 42 48 58 61 62 63 64 64 65 64 65 64 64 64 64 64 63 63 62 62
31 35 33 32 31 30 27 31 30 36 34 28 35 22 33 36 35 38 39 39 40 39 39 39 40 43 46 55 61 63 63 64 64 64 63 62 61 60 63 63 63 64 64 63
27 33 32 31 31 32 30 34 32 37 32 32 34 28 27 35 34 36 35 38 40 39 38 38 39 40 43 45 52 60 62 63 63 63 63 63 62 62 62 62 63 63 63 63
31 34 35 33 34 34 33 34 34 34 31 27 29 29 26 28 31 33 35 35 37 38 37 38 39 40 40 43 46 56 61 62 63 63 63 62 62 61 61 61 61 61 60 60
26 27 32 36 33 33 34 30 26 25 26 23 26 30 27 29 29 28 28 30 33 34 34 35 37 38 39 39 41 51 57 59 61 62 62 63 62 62 61 60 60 58 57 57
22 16 27 34 33 30 32 29 23 17 20 23 28 27 28 28 27 27 29 27 27 28 28 29 35 37 38 39 40 43 50 55 59 60 61 61 61 61 60 59 58 58 57 55
25 23 29 31 36 33 32 31 31 25 23 20 24 26 23 23 23 23 24 27 27 29 32 32 34 37 38 39 39 41 45 51 56 58 59 58 58 58 58 57 56 55 54 52
27 25 28 33 36 37 33 33 28 30 21 18 19 19 16 17 19 22 24 26 28 29 35 38 37 35 38 40 41 44 46 48 51 53 54 53 53 53 53 53 54 53 51 50
30 29 24 32 31 30 33 32 31 29 26 19 15 14 19 20 21 20 24 27 28 29 32 38 40 40 40 42 43 44 46 48 48 47 47 48 49 50 50 51 50 49 48 46
30 29 24 22 32 38 34 33 32 25 24 22 17 18 22 24 28 26 24 29 31 31 31 35 39 41 41 42 43 44 45 45 46 45 45 45 45 45 45 44 43 42 41 40
32 27 21 17 28 34 32 34 34 32 27 22 20 19 21 27 30 30 30 32 33 33 33 34 34 36 40 42 43 43 44 44 45 44 44 43 42 42 41 40 39 39 39 38
32 28 21 16 17 27 24 28 30 32 27 25 23 21 20 23 28 30 31 32 33 33 33 33 33 34 37 39 42 43 43 44 44 43 43 42 41 41 40 39 39 38 38 38
30 22 24 23 26 29 29 27 28 29 31 27 24 24 24 23 24 26 30 29 30 30 31 33 33 33 35 37 40 42 43 44 43 43 42 41 41 40 40 39 40 40 39 37
27 18 23 19 22 23 23 27 29 30 31 31 32 29 29 29 25 26 28 30 30 31 30 29 29 34 35 36 38 41 43 43 43 42 42 41 41 40 40 39 38 37 36 36
24 22 21 17 19 25 22 25 28 28 32 32 29 32 34 35 34 33 31 31 32 32 32 31 30 30 33 36 38 39 42 43 43 42 42 41 41 40 39 38 37 36 35 35
24 22 22 18 22 14 24 28 29 28 29 31 34 34 35 36 36 35 34 33 33 33 32 30 30 31 33 34 37 39 41 42 42 42 41 41 40 39 38 37 36 35 35 35
25 24 18 17 18 19 23 29 25 30 29 31 30 31 34 34 34 33 33 33 32 31 33 34 36 36 36 36 35 38 40 41 42 42 41 40 40 39 37 36 35 35 35 34
27 27 21 18 17 15 26 32 33 29 27 32 33 34 35 32 31 32 32 34 34 36 36 36 36 37 37 37 37 37 38 40 40 41 41 40 39 38 37 36 35 35 35 34
20 21 18 18 17 16 27 33 32 23 21 33 35 35 35 35 32 34 35 35 36 36 36 38 38 38 38 39 39 38 38 39 40 40 40 39 39 38 37 35 35 35 35 34
20 19 19 20 18 13 33 30 25 30 32 33 34 35 36 36 36 34 35 35 35 35 36 37 37 37 38 38 40 39 39 40 40 40 39 39 38 37 36 36 35 34 34 34
23 23 23 21 20 28 34 31 32 34 34 34 35 35 36 36 36 36 35 35 35 35 36 37 37 37 37 37 39 39 38 39 39 39 39 38 37 36 36 36 35 34 34 34
23 29 28 27 26 27 27 36 31 26 29 33 35 36 36 36 37 38 35 35 35 34 36 37 36 36 36 36 37 37 38 39 39 38 37 37 36 36 36 35 35 34 34 34
20 25 24 23 22 28 32 24 26 28 29 29 33 34 34 36 37 38 36 35 34 34 35 36 36 36 36 36 36 37 38 38 37 37 37 36 36 36 35 35 34 34 34 35
22 21 19 16 21 22 23 25 30 30 30 29 30 33 35 36 37 37 38 36 34 34 34 34 35 35 35 36 36 36 37 37 37 36 36 36 36 35 35 35 35 36 36 36

GFSCGP_sfc_30mbdewp_105.txt.gz
Dewpoint
32 34 32 34 35 33 33 33 32 35 37 38 36 36 35 37 39 40 40 41 42 48 54 60 61 60 60 59 57 55 56 65 65 64 63 63 63 63 61 62 63 63 63 63
30 32 35 36 35 32 34 34 34 37 39 37 35 34 34 38 37 39 39 40 41 40 45 54 60 61 60 60 61 63 61 64 65 65 65 63 64 64 63 63 63 63 63 62
27 30 36 33 31 29 31 32 33 32 38 39 35 32 33 36 38 38 39 40 41 41 39 41 50 59 61 60 61 62 61 64 63 63 63 61 64 64 64 64 63 63 63 62
30 34 33 32 31 30 27 31 31 36 35 29 36 25 30 33 32 35 35 38 40 40 40 40 41 46 55 60 62 62 62 63 62 63 63 59 60 60 62 62 63 64 64 63
27 33 32 31 30 32 28 34 34 36 32 32 33 29 29 32 30 31 33 38 39 40 40 39 39 40 44 51 59 62 63 62 63 64 63 62 61 61 62 61 63 63 64 63
30 34 35 32 34 34 35 34 35 34 31 26 28 29 24 30 32 32 34 37 38 39 39 39 39 40 40 44 47 56 61 62 63 63 63 63 62 62 61 62 62 62 61 62
24 27 32 36 33 33 33 30 26 25 25 22 26 30 26 29 30 29 30 32 35 37 38 38 38 38 39 41 43 51 56 60 62 62 62 63 62 62 61 60 61 60 59 59
22 12 26 35 32 30 32 30 22 16 20 23 29 27 25 31 31 31 30 30 28 32 35 35 37 37 37 39 41 46 54 56 60 61 62 62 63 62 61 61 60 59 59 58
23 22 28 31 35 34 32 31 30 23 22 21 23 25 23 22 25 25 24 25 28 28 31 31 31 33 36 38 39 40 46 53 57 60 60 61 61 60 60 59 59 58 57 56
26 24 29 33 35 37 34 34 29 30 20 17 19 20 18 18 19 21 24 26 28 30 36 39 35 34 37 39 40 41 44 49 54 58 58 58 57 57 57 57 57 56 54 52
30 29 23 28 30 29 32 31 32 31 27 19 15 14 19 20 22 24 21 28 28 30 35 39 40 39 39 41 42 43 45 47 50 53 54 53 52 52 53 54 53 52 51 49
30 29 23 21 33 36 33 32 31 27 25 21 18 16 21 24 29 30 25 29 31 31 33 37 41 41 41 42 43 44 46 47 48 48 48 48 49 49 50 50 49 48 47 45
32 26 18 13 26 28 28 29 30 30 29 22 20 19 21 28 30 30 29 32 33 33 33 34 35 38 41 42 43 44 45 46 46 45 45 45 46 46 45 45 43 43 42 40
30 25 20 14 12 27 24 25 29 28 27 26 22 20 21 22 28 30 31 32 32 33 33 33 33 35 38 40 43 43 43 44 44 44 43 43 43 43 42 41 40 39 39 39
27 16 23 23 23 24 23 26 29 26 27 27 26 24 25 26 24 27 30 29 30 30 30 29 31 34 35 37 40 42 43 44 44 43 43 42 41 41 40 39 39 38 38 38
25 18 22 16 20 22 22 23 24 27 27 28 30 29 33 34 32 27 28 30 30 32 32 32 30 30 33 35 37 40 42 43 43 43 42 41 41 40 39 39 39 39 38 37
22 21 20 16 19 23 19 24 26 28 30 30 27 31 35 34 33 35 35 32 31 32 33 32 31 30 31 33 36 37 41 43 43 43 42 41 40 40 39 39 38 37 36 36
23 22 21 18 19 13 27 28 30 30 32 32 33 33 33 34 36 37 37 35 34 34 33 32 30 32 34 34 36 38 40 42 42 42 42 41 40 40 39 38 37 36 36 36
24 23 18 16 17 18 25 29 28 28 30 33 32 33 35 35 33 34 34 34 33 32 34 35 36 36 36 36 36 36 38 41 42 42 42 41 41 39 38 38 36 35 35 34
27 26 19 18 14 12 23 30 33 31 26 34 34 34 34 34 32 32 35 35 35 36 36 36 37 38 38 38 39 37 37 39 40 42 42 41 40 39 38 37 35 35 35 35
19 20 16 17 16 14 20 31 32 24 23 33 34 35 35 34 36 36 36 35 35 35 36 38 37 37 37 38 38 38 38 37 39 41 41 41 40 39 38 36 36 35 35 35
17 17 18 19 17 11 31 29 25 28 32 33 34 35 35 36 36 37 37 35 35 35 36 37 37 37 37 37 38 39 39 39 40 40 40 40 39 38 36 36 35 35 35 35
21 20 20 20 17 22 34 31 32 34 34 34 34 35 35 36 36 37 37 36 35 35 36 37 36 37 37 37 37 38 38 39 39 40 39 39 38 37 36 36 35 34 35 34
23 27 27 26 26 28 27 35 32 26 27 28 30 32 35 34 36 36 37 37 35 35 35 36 36 36 36 36 36 37 38 39 39 39 38 38 37 36 36 36 35 35 34 34
21 26 25 25 24 24 31 28 26 28 30 30 29 29 33 35 34 37 37 38 35 34 35 35 36 36 36 36 36 36 38 38 38 38 37 37 37 36 35 35 35 35 35 35
21 22 20 16 20 20 23 25 30 30 29 29 29 29 31 32 35 37 37 36 35 34 34 34 35 35 35 35 36 36 37 37 37 37 37 37 36 36 35 35 35 36 36 37

GFSCGP_sfc_30mbdewp_108.txt.gz
Dewpoint
34 36 32 33 34 34 32 29 20 33 35 36 36 36 37 37 42 42 45 48 51 53 57 59 60 61 61 62 59 62 63 65 65 65 64 64 61 60 60 60 60 61 62 63
32 31 34 36 35 33 33 31 31 34 36 37 35 34 36 35 39 41 42 43 48 50 55 58 60 60 60 60 60 58 60 64 65 65 64 64 64 64 63 62 61 62 62 62
30 31 35 34 31 31 33 30 32 30 36 37 35 32 33 36 38 39 40 42 42 48 52 56 57 59 57 60 58 59 60 63 64 65 64 62 62 63 63 64 64 64 63 64
29 33 33 31 30 30 26 31 32 34 33 30 33 23 33 32 36 37 39 40 42 42 43 49 55 58 56 60 60 60 60 63 64 64 62 59 57 57 61 60 63 63 64 64
28 32 31 29 29 32 29 34 31 34 31 29 31 27 28 31 31 34 38 38 40 42 42 42 43 50 59 57 59 60 59 61 60 61 58 61 59 59 60 62 61 59 61 64
31 33 35 32 34 34 36 34 34 33 31 24 23 27 16 28 31 32 35 37 39 41 42 42 44 45 48 56 60 61 60 60 62 61 61 61 61 59 60 60 60 59 60 62
26 26 31 36 32 33 34 30 24 23 25 19 26 29 20 26 30 30 30 33 34 39 40 40 40 41 41 46 50 58 61 61 60 61 62 60 62 61 60 59 61 60 61 61
23 18 27 32 33 31 29 30 21 14 16 19 28 25 21 30 30 31 31 30 31 32 37 38 38 40 41 43 45 48 53 58 61 62 62 62 61 61 61 61 62 61 61 61
21 20 28 30 34 34 34 30 31 25 22 22 22 24 23 21 24 27 27 26 28 29 35 35 35 38 40 40 43 44 49 52 58 62 61 62 63 62 62 62 62 61 61 60
26 23 29 32 34 34 33 35 29 30 21 15 17 18 16 20 21 22 24 26 29 32 36 37 37 34 34 37 41 43 45 50 54 59 61 60 60 61 61 61 60 60 59 57
29 28 23 27 27 24 27 29 32 31 29 17 12 13 18 22 26 27 25 28 29 34 38 40 40 39 37 38 41 42 43 48 53 58 59 58 58 58 58 58 57 56 54 53
31 28 22 20 28 32 30 30 30 26 24 27 20 15 22 27 30 28 26 30 31 34 37 39 41 41 40 41 42 43 45 47 50 54 56 56 54 54 54 54 54 53 52 51
29 26 16 13 27 27 26 27 29 29 30 26 20 18 24 27 29 30 31 32 32 32 33 34 38 41 41 42 43 45 46 47 49 49 50 50 50 51 52 52 51 50 48 45
29 27 22 13 18 25 22 23 25 27 24 25 24 22 22 26 26 29 31 31 32 32 32 33 34 36 40 42 43 44 45 46 47 46 46 47 48 48 48 48 48 46 43 41
25 17 22 19 19 20 21 20 20 25 24 24 28 30 28 29 30 26 29 30 31 32 32 31 33 33 36 38 41 43 44 44 44 44 44 44 45 45 44 44 44 43 42 40
26 22 22 18 20 24 19 19 22 23 23 25 25 27 29 29 33 32 30 30 31 32 33 33 31 31 35 36 38 42 43 44 44 44 44 43 43 42 42 42 41 40 40 39
22 22 21 18 21 25 21 25 26 28 29 29 26 29 33 33 34 34 34 35 35 35 34 34 32 31 32 33 37 38 41 44 44 44 43 42 42 41 41 40 40 40 40 40
22 23 22 19 20 16 26 29 31 30 32 33 33 34 35 35 35 34 35 36 35 35 34 33 32 34 35 36 35 37 40 42 44 44 43 43 42 41 40 40 40 40 40 39
25 23 20 17 15 18 25 29 28 27 30 33 32 34 35 36 34 34 36 35 33 34 35 36 36 36 37 37 36 36 37 40 42 43 43 43 42 41 40 40 40 40 39 39
27 25 21 20 13 9 25 29 33 32 24 34 35 34 34 35 32 34 37 36 36 36 36 36 37 37 37 38 38 38 37 37 39 41 43 43 42 41 40 41 40 39 38 36
20 20 18 16 15 12 19 28 32 25 24 33 34 35 35 34 35 36 38 37 37 37 37 38 37 37 38 38 39 39 39 38 38 41 43 43 42 42 41 39 39 37 37 37
17 16 17 18 17 11 24 30 25 29 33 33 34 34 34 35 36 37 37 38 36 36 37 37 37 38 38 38 38 39 40 41 40 40 42 42 42 41 40 39 38 37 37 37
19 19 19 19 15 23 33 31 33 34 34 31 30 30 32 33 32 35 37 38 37 35 36 37 37 37 38 37 38 38 40 39 40 40 41 42 41 40 39 38 37 36 37 36
24 25 24 26 25 25 28 33 34 29 27 28 29 29 28 30 32 32 37 38 38 35 35 36 37 37 37 37 37 38 39 39 40 40 40 40 39 38 38 38 37 37 36 36
21 26 25 26 26 26 27 30 30 27 29 29 29 29 28 28 31 32 34 37 38 35 35 36 36 36 36 36 37 37 38 39 39 39 39 39 38 37 37 37 37 36 36 36
22 24 21 16 22 20 26 26 29 29 28 28 29 29 30 30 29 30 34 37 36 35 35 35 35 35 35 35 36 36 37 38 38 38 37 37 37 36 36 35 35 37 37 37

GFSCGP_sfc_30mbdewp_111.txt.gz
Dewpoint
36 36 33 31 31 33 30 27 23 22 34 33 32 35 38 38 42 41 45 50 50 51 56 57 58 60 59 60 63 65 64 63 63 63 61 60 57 58 59 62 64 63 62 61
31 31 33 35 33 32 31 26 25 31 33 34 32 33 38 37 39 41 45 50 51 54 55 57 59 60 60 60 61 61 63 63 64 64 64 63 62 61 60 60 59 60 61 62
29 32 33 32 31 28 29 28 27 28 33 34 35 33 37 36 39 40 43 48 51 54 54 56 58 59 60 60 60 60 60 62 64 64 64 64 64 64 63 63 62 62 62 62
27 30 31 30 29 28 25 30 30 30 30 24 30 29 35 36 38 39 41 45 47 51 54 55 57 59 59 57 56 60 59 60 63 64 63 62 60 59 61 63 63 63 64 63
29 30 30 27 26 31 28 32 30 29 28 26 25 24 31 35 35 37 40 41 44 49 53 54 56 58 58 57 56 60 60 61 60 60 60 60 59 60 61 61 61 61 61 63
27 31 32 32 33 32 33 31 29 29 28 24 21 23 26 31 35 36 38 40 42 44 46 49 55 58 57 59 61 60 60 60 61 60 61 60 60 59 60 60 59 59 60 61
25 23 27 34 30 29 30 28 24 23 24 18 25 23 21 24 29 35 37 38 40 43 44 45 46 48 54 58 59 58 59 59 60 60 58 60 61 60 59 58 57 56 59 60
20 20 24 27 30 30 29 28 24 19 17 15 26 21 25 26 29 30 31 33 34 38 41 42 43 45 48 53 56 57 58 58 59 59 59 60 61 60 59 59 58 58 59 60
18 17 24 28 31 31 31 28 30 26 21 16 17 21 20 22 25 28 28 28 29 30 32 40 41 42 42 46 50 54 56 57 57 59 59 60 61 60 60 60 60 60 60 61
24 20 25 26 29 32 29 33 27 27 19 13 14 15 17 22 24 24 25 26 29 32 34 37 36 37 40 41 45 46 49 52 57 60 61 61 60 60 61 61 61 61 61 61
25 23 22 21 24 23 25 27 29 30 28 23 16 17 23 26 27 27 24 28 31 36 38 39 40 38 36 37 40 43 45 49 52 58 61 60 61 62 62 61 61 60 59 58
28 24 21 15 24 28 27 26 28 23 25 26 24 23 26 27 26 26 28 30 32 35 36 40 41 39 39 39 39 41 43 46 51 56 58 59 59 59 59 58 57 56 55 55
26 25 18 16 25 26 23 24 24 29 30 26 22 25 27 27 28 30 30 30 31 31 32 36 40 40 40 41 41 42 45 47 52 55 56 56 56 56 56 55 54 54 53 50
28 28 23 13 18 22 20 20 18 25 25 22 24 28 27 29 29 28 30 30 30 30 31 32 34 39 41 42 43 44 46 48 49 51 51 52 52 52 53 53 52 50 48 45
22 20 20 18 19 19 18 19 18 21 24 23 23 24 29 29 29 31 29 31 32 32 32 31 32 33 36 40 43 44 45 46 47 47 47 48 49 49 50 50 48 46 45 43
25 24 23 20 21 21 17 16 17 20 22 23 25 24 28 32 33 33 32 31 33 33 34 33 32 31 33 35 39 43 44 44 44 44 44 45 45 45 46 46 46 44 42 41
22 24 23 17 21 25 23 23 25 27 28 29 25 27 33 32 32 33 34 35 34 34 34 34 32 32 33 34 36 38 41 44 44 44 44 43 43 43 43 43 42 42 41 40
20 24 24 20 22 18 25 29 30 27 30 32 32 34 36 34 35 34 34 34 33 34 34 34 35 35 36 36 35 36 39 42 44 44 44 43 43 42 42 41 41 41 41 41
25 23 21 19 12 17 23 26 27 26 28 35 34 34 34 35 34 35 37 37 35 35 35 35 36 36 36 37 37 37 36 38 41 43 44 44 43 42 41 41 41 42 42 41
24 23 23 20 15 7 22 29 31 31 24 34 35 34 34 34 31 35 37 38 37 38 38 37 37 37 37 38 38 38 37 36 36 39 43 44 43 42 42 42 42 42 40 39
22 22 19 15 15 10 24 27 31 23 26 33 34 34 35 34 35 37 38 38 38 37 39 39 38 37 38 39 39 39 39 38 39 39 41 44 44 43 43 43 42 40 39 38
17 17 17 15 16 12 26 29 26 29 32 32 33 33 33 33 33 35 36 38 39 36 37 38 38 38 39 39 39 39 40 41 41 41 41 43 44 43 43 41 40 39 37 37
16 15 17 17 16 25 27 30 31 32 31 32 30 30 28 28 29 30 30 36 38 36 36 37 37 38 39 38 38 38 39 40 40 40 40 42 43 42 42 41 39 38 37 37
22 23 21 24 22 23 29 32 32 33 29 28 28 27 27 27 27 28 29 32 38 38 36 36 37 37 37 37 37 38 38 39 40 40 40 41 42 41 41 40 39 38 37 37
19 24 22 22 23 26 27 27 31 29 29 28 28 28 28 28 28 27 28 30 37 38 35 36 36 36 36 36 37 37 38 39 40 40 40 40 40 40 39 39 38 38 37 37
19 18 20 12 21 22 25 28 28 28 27 27 27 27 27 29 30 29 28 30 37 36 36 35 35 36 35 36 36 36 37 38 39 39 39 39 38 37 37 37 36 37 37 38

GFSCGP_sfc_30mbdewp_114.txt.gz
Dewpoint
39 36 34 37 34 31 32 29 28 25 35 34 33 31 34 39 38 41 40 41 51 53 54 55 56 57 57 58 59 59 58 62 58 61 61 62 61 62 63 64 63 61 60 59
33 31 32 35 32 31 30 30 29 31 34 33 32 32 34 37 39 41 42 44 51 54 55 56 58 58 59 59 59 62 61 61 59 59 59 59 60 62 64 64 64 63 62 61
26 29 31 31 29 28 29 32 29 29 32 33 33 32 33 38 39 39 43 46 49 52 55 57 58 59 59 59 59 60 61 61 61 62 62 62 61 61 60 60 61 61 62 62
29 29 28 29 28 29 28 34 30 27 27 29 33 24 33 36 37 40 41 48 52 53 56 56 56 58 59 59 58 60 59 61 62 63 62 61 61 61 62 62 63 62 63 63
28 30 31 30 29 31 29 31 30 28 26 27 25 24 36 36 36 38 41 46 51 54 55 55 54 56 57 59 57 58 59 60 61 62 62 61 61 61 63 63 62 61 61 63
26 25 29 31 31 31 30 30 30 28 27 24 23 23 31 33 36 38 40 43 47 51 54 54 55 59 57 56 57 59 58 58 60 61 61 59 57 58 60 61 60 60 59 60
25 23 25 31 29 29 30 28 23 23 23 21 24 22 25 26 30 38 40 42 44 49 50 52 54 58 57 54 56 59 58 58 60 60 60 59 58 59 59 59 59 59 59 59
19 19 23 25 26 27 29 30 26 21 22 25 24 26 20 26 29 38 40 36 42 45 46 48 49 54 57 56 57 59 59 56 57 58 59 60 61 60 60 59 59 58 58 58
23 17 23 26 25 30 28 27 30 29 23 19 19 20 23 26 26 27 32 34 32 31 42 45 46 48 50 54 58 58 58 57 58 59 60 60 59 61 59 59 59 59 59 59
24 21 25 22 26 29 29 32 26 27 20 15 17 19 23 26 26 27 28 30 33 37 37 39 41 42 44 47 52 57 58 58 58 59 59 59 60 60 60 60 57 59 59 60
26 23 23 22 24 24 28 26 27 29 27 23 22 25 27 27 26 28 30 33 36 38 40 40 39 37 36 39 46 51 55 56 56 58 59 59 59 59 61 60 58 59 60 60
26 24 21 22 27 26 25 24 27 23 22 27 27 26 27 28 30 30 30 31 32 35 39 41 40 39 38 38 41 43 44 49 52 58 60 60 61 61 60 61 61 60 59 58
28 24 19 21 27 23 22 21 21 29 29 23 23 26 33 30 28 29 30 30 31 32 33 38 41 41 42 42 40 42 44 48 55 58 58 59 59 59 58 57 56 56 56 54
27 25 22 18 16 18 20 20 19 24 23 22 25 27 33 29 31 29 31 32 33 33 32 32 36 42 42 43 44 45 48 51 53 54 55 55 55 56 56 55 54 53 50 49
24 19 22 20 19 19 19 18 18 19 21 22 23 22 28 30 32 32 31 32 34 34 34 32 32 35 39 42 44 45 46 48 50 51 52 52 51 52 52 51 50 48 45 44
25 24 22 20 21 22 18 16 16 19 22 24 25 26 33 32 32 33 34 34 35 34 34 33 33 33 35 36 41 44 44 45 46 46 48 49 49 49 49 48 46 45 43 42
23 24 23 18 21 24 22 23 24 26 26 27 24 30 35 34 32 33 34 34 34 34 35 35 35 36 36 35 36 39 43 44 44 44 44 45 45 45 46 46 44 43 41 41
21 23 24 21 21 17 25 29 30 27 28 31 32 33 34 33 35 36 37 36 35 35 35 36 36 36 37 37 37 37 40 43 44 44 43 43 43 43 43 43 42 42 41 41
25 25 22 19 17 16 22 24 28 26 26 32 32 34 34 35 36 36 37 38 37 38 38 37 37 37 37 38 38 38 38 37 42 44 44 43 43 42 42 41 41 41 41 41
24 23 22 21 15 8 25 30 31 31 25 34 34 33 34 34 32 35 37 38 39 37 39 39 38 38 38 39 39 39 39 38 37 38 42 44 43 42 42 41 42 42 41 40
21 22 19 20 16 14 27 30 31 23 24 34 35 34 33 33 34 36 37 38 39 37 37 38 39 38 39 39 39 39 40 41 42 42 40 44 44 43 42 42 42 40 40 40
18 17 17 16 15 9 27 30 27 29 32 33 34 33 33 33 32 31 32 35 37 38 36 37 37 38 39 39 38 38 39 40 40 41 41 41 44 44 43 42 40 39 39 38
14 16 19 16 18 24 30 30 32 32 31 32 32 31 29 27 27 28 30 30 36 38 36 37 37 37 38 38 38 37 38 39 39 40 40 41 43 43 42 40 39 38 37 37
20 21 19 19 20 24 27 31 32 33 31 29 28 28 28 27 28 28 28 29 34 38 36 36 36 36 37 37 37 37 37 38 39 40 40 41 42 42 41 40 39 38 37 37
19 23 22 21 22 25 26 28 31 30 29 29 28 28 28 28 28 29 28 29 31 38 36 36 36 36 36 36 36 36 37 38 38 40 40 40 41 41 40 39 39 38 38 38
20 21 19 17 21 23 26 27 30 29 28 28 27 27 27 29 30 29 30 29 32 37 36 36 36 36 36 36 35 35 35 37 38 38 39 39 39 38 38 38 37 38 38 38

GFSCGP_sfc_30mbdewp_117.txt.gz
Dewpoint
38 37 33 34 35 37 36 31 32 34 37 36 36 36 35 34 38 39 43 43 47 52 57 57 57 57 57 58 58 58 60 61 63 59 58 56 56 56 56 55 55 56 56 57
36 33 34 35 35 34 30 30 34 38 36 35 33 32 33 35 37 39 39 41 49 54 55 56 56 57 58 57 58 59 59 62 62 61 59 57 58 59 59 58 58 57 58 58
30 29 30 30 30 29 28 30 32 31 30 34 33 30 33 35 37 39 39 46 51 52 54 56 56 57 59 59 59 60 58 62 62 63 62 62 62 62 61 62 60 60 60 60
30 32 30 29 29 31 28 32 30 29 29 25 32 25 32 37 37 38 40 48 50 50 54 56 57 58 59 59 60 59 61 61 61 62 61 60 59 59 60 61 63 62 62 62
24 28 27 26 30 30 30 31 29 30 28 27 25 28 32 39 38 40 42 47 51 53 54 55 57 58 58 58 57 58 60 61 61 60 61 60 58 59 61 62 62 62 63 63
26 27 27 29 29 31 31 30 29 29 29 22 26 28 25 26 36 41 41 44 51 53 54 54 56 57 58 58 58 58 58 60 60 60 58 56 54 60 59 61 61 61 62 63
24 24 25 26 26 29 28 28 21 22 22 21 25 24 25 26 40 41 40 41 48 52 53 53 56 56 55 56 57 57 57 58 60 60 58 58 58 58 58 60 61 60 59 60
21 17 23 26 25 27 28 29 25 19 20 23 26 20 25 26 30 43 44 42 41 47 52 53 54 54 54 54 56 58 56 58 59 60 59 59 60 59 59 59 59 59 59 59
22 18 25 24 28 30 27 25 29 28 29 24 23 26 26 28 28 33 40 41 41 39 42 48 51 55 55 56 56 58 57 56 58 58 59 59 59 59 59 59 59 58 58 58
25 21 25 25 26 26 29 31 22 24 19 19 23 27 26 28 29 31 33 36 37 41 41 40 40 44 50 55 57 58 58 57 57 58 58 59 59 60 60 59 58 58 58 58
24 23 22 24 25 24 25 25 27 27 27 22 20 25 30 28 29 30 31 32 36 39 40 40 39 38 37 42 50 57 58 58 57 58 59 58 59 60 60 59 59 59 59 59
25 25 20 25 24 25 25 22 25 21 20 28 27 26 34 34 30 31 31 31 32 35 40 41 41 42 41 39 44 50 55 58 58 58 58 58 59 60 60 60 60 60 58 59
26 22 15 20 18 18 20 20 24 28 28 22 23 26 33 32 32 31 32 33 33 32 33 39 42 42 43 44 43 45 49 52 56 58 59 59 59 59 59 59 59 59 58 58
29 24 19 12 16 19 17 18 20 21 18 22 21 22 30 30 31 33 34 35 34 34 32 33 36 40 43 44 46 47 49 52 54 56 56 56 56 57 57 56 56 55 54 54
24 14 20 19 20 20 20 17 18 17 21 21 22 28 31 32 32 33 34 34 34 34 34 34 34 35 36 42 44 45 46 48 51 52 53 53 53 54 54 53 52 50 50 49
25 18 21 20 22 22 17 17 17 18 22 24 25 29 34 34 33 35 35 34 34 35 35 35 36 36 36 36 40 44 44 45 47 48 49 50 51 52 50 49 48 47 45 43
22 22 23 15 21 22 18 20 23 27 26 27 23 30 34 32 35 36 36 35 35 35 35 36 36 36 37 37 37 38 43 44 44 45 45 46 47 48 49 47 46 45 43 42
20 23 24 17 20 -0 19 29 30 27 28 29 31 33 33 35 36 36 37 37 37 37 37 37 37 37 38 38 38 38 38 43 44 44 43 44 44 45 46 45 45 43 42 42
25 24 21 12 17 16 25 26 28 27 24 30 30 33 33 34 36 36 37 38 38 37 38 39 39 38 38 39 39 39 39 38 39 43 44 43 43 43 43 43 43 42 41 41
25 23 21 20 10 2 19 28 31 30 20 33 33 33 33 34 32 34 37 37 38 39 37 38 38 39 39 39 39 40 40 41 41 41 40 44 43 43 42 42 42 41 41 40
18 20 15 19 16 14 26 31 31 15 13 34 34 34 33 32 33 35 36 36 37 39 37 38 38 38 39 38 38 38 39 39 40 40 41 41 44 43 42 41 41 41 41 40
14 13 15 17 15 0 29 30 20 24 34 34 35 33 32 33 32 30 31 31 35 37 37 37 37 37 38 38 37 37 37 38 39 40 40 41 41 44 42 41 40 40 40 39
14 17 17 16 10 19 30 27 31 31 31 32 34 33 32 28 27 27 28 29 34 35 37 36 36 37 37 37 37 36 36 38 38 39 40 40 41 43 42 41 40 39 38 38
20 22 18 16 14 23 27 31 32 33 31 30 28 28 28 27 28 28 28 28 29 35 37 36 36 36 36 36 36 36 36 37 38 39 40 40 41 42 42 40 39 38 37 37
17 21 19 20 21 23 25 30 32 31 29 29 28 28 28 28 28 29 29 29 29 34 37 36 36 35 36 36 36 35 35 36 38 38 39 40 40 42 41 41 40 39 38 38
20 20 17 11 18 18 22 26 31 30 29 29 28 27 27 29 29 30 28 30 30 33 37 36 36 36 36 35 35 34 35 35 37 38 38 38 38 38 40 39 39 39 39 39